[[{"header":{"parameterUnit":"m.s-1","parameterCategory":1,"la1":30.6,"la2":28.766,"lo1":-90.7593,"lo2":-88.6598,"dy":0.0162,"dx":0.0183,"nx":116,"ny":114,"refTime":"2024-05-19T06:00:00:Z","depth":0,"parameterNumber":2,"parameterNumberName":"U-component_of_WINDS"},"data":[0.0,0.0,0.0,0.0,0.0,0.0,0.0,0.0,0.0,0.0,0.0,0.0,0.0,0.0,0.0,0.0,0.0,0.0,0.0,0.0,0.0,0.0,0.0,0.0,0.0,0.0,0.0,0.0,0.0,0.0,0.0,0.0,0.0,0.0,0.0,0.0,0.0,0.0,0.0,0.0,0.0,0.0,0.0,0.0,0.0,0.0,0.0,0.0,0.0,0.0,0.0,0.0,0.0,0.0,0.0,0.0,0.0,0.0,0.0,0.0,0.0,0.0,0.0,0.0,0.0,0.0,0.0,0.0,0.0,0.0,0.0,0.0,0.0,0.0,0.0,0.0,0.0,0.0,0.0,0.0,0.0,0.0,0.0,0.0,0.0,0.0,0.0,0.0,0.0,0.0,0.0,0.0,0.0,0.0,0.0,0.0,0.0,0.0,0.0,0.0,0.0,0.0,0.0,0.0,0.0,0.0,0.0,0.0,0.0,0.0,0.0,0.0,0.0,0.0,0.0,0.0,0.0,0.0,0.0,0.0,0.0,0.0,0.0,0.0,0.0,0.0,0.0,0.0,0.0,0.0,0.0,0.0,0.0,0.0,0.0,0.0,0.0,0.0,0.0,0.0,0.0,0.0,0.0,0.0,0.0,0.0,0.0,0.0,0.0,0.0,0.0,0.0,0.0,0.0,0.0,0.0,0.0,0.0,0.0,0.0,0.0,0.0,0.0,0.0,0.0,0.0,0.0,0.0,0.0,0.0,0.0,0.0,0.0,0.0,0.0,0.0,0.0,0.0,0.0,0.0,0.0,0.0,0.0,0.0,0.0,0.0,0.0,0.0,0.0,0.0,0.0,0.0,0.0,0.0,0.0,0.0,0.0,0.0,0.0,0.0,0.0,0.0,0.0,0.0,0.0,0.0,0.0,0.0,0.0,0.0,0.0,0.0,0.0,0.0,0.0,0.0,0.0,0.0,0.0,0.0,0.0,0.0,0.0,0.0,0.0,0.0,0.0,0.0,0.0,0.0,0.0,0.0,0.0,0.0,0.0,0.0,0.0,0.0,0.0,0.0,0.0,0.0,0.0,0.0,0.0,0.0,0.0,0.0,0.0,0.0,0.0,0.0,0.0,0.0,0.0,0.0,0.0,0.0,0.0,0.0,0.0,0.0,0.0,0.0,0.0,0.0,0.0,0.0,0.0,0.0,0.0,0.0,0.0,0.0,0.0,0.0,0.0,0.0,0.0,0.0,0.0,0.0,0.0,0.0,0.0,0.0,0.0,0.0,0.0,0.0,0.0,0.0,0.0,0.0,0.0,0.0,0.0,0.0,0.0,0.0,0.0,0.0,0.0,0.0,0.0,0.0,0.0,0.0,0.0,0.0,0.0,0.0,0.0,0.0,0.0,0.0,0.0,0.0,0.0,0.0,0.0,0.0,0.0,0.0,0.0,0.0,0.0,0.0,0.0,0.0,0.0,0.0,0.0,0.0,0.0,0.0,0.0,0.0,0.0,0.0,0.0,0.0,0.0,0.0,0.0,0.0,0.0,0.0,0.0,0.0,0.0,0.0,0.0,0.0,0.0,0.0,0.0,0.0,0.0,0.0,0.0,0.0,0.0,0.0,0.0,0.0,0.0,0.0,0.0,0.0,0.0,0.0,0.0,0.0,0.0,0.0,0.0,0.0,0.0,0.0,0.0,0.0,0.0,0.0,0.0,0.0,0.0,0.0,0.0,0.0,0.0,0.0,0.0,0.0,0.0,0.0,0.0,0.0,0.0,0.0,0.0,0.0,0.0,0.0,0.0,0.0,0.0,0.0,0.0,0.0,0.0,0.0,0.0,0.0,0.0,0.0,0.0,0.0,0.0,0.0,0.0,0.0,0.0,0.0,0.0,0.0,0.0,0.0,0.0,0.0,0.0,0.0,0.0,0.0,0.0,0.0,0.0,0.0,0.0,0.0,0.0,0.0,0.0,0.0,0.0,0.0,0.0,0.0,0.0,0.0,0.0,0.0,0.0,0.0,0.0,0.0,0.0,0.0,0.0,0.0,0.0,0.0,0.0,0.0,0.0,0.0,0.0,0.0,0.0,0.0,0.0,0.0,0.0,0.0,0.0,0.0,0.0,0.0,0.0,0.0,0.0,0.0,0.0,0.0,0.0,0.0,0.0,0.0,0.0,0.0,0.0,0.0,0.0,0.0,0.0,0.0,0.0,0.0,0.0,0.0,0.0,0.0,0.0,0.0,0.0,0.0,0.0,0.0,0.0,0.0,0.0,0.0,0.0,0.0,0.0,0.0,0.0,0.0,0.0,0.0,0.0,0.0,0.0,0.0,0.0,0.0,0.0,0.0,0.0,0.0,0.0,0.0,0.0,0.0,0.0,0.0,0.0,0.0,0.0,0.0,0.0,0.0,0.0,0.0,0.0,0.0,0.0,0.0,0.0,0.0,0.0,0.0,0.0,0.0,0.0,0.0,0.0,0.0,0.0,0.0,0.0,0.0,0.0,0.0,0.0,0.0,0.0,0.0,0.0,0.0,0.0,0.0,0.0,0.0,0.0,0.0,0.0,0.0,0.0,0.0,0.0,0.0,0.0,0.0,0.0,0.0,0.0,0.0,0.0,0.0,0.0,0.0,0.0,0.0,0.0,0.0,0.0,0.0,0.0,0.0,0.0,0.0,0.0,0.0,0.0,0.0,0.0,0.0,0.0,0.0,0.0,0.0,0.0,0.0,0.0,0.0,0.0,0.0,0.0,0.0,0.0,0.0,0.0,0.0,0.0,0.0,0.0,0.0,0.0,0.0,0.0,0.0,0.0,0.0,0.0,0.0,0.0,0.0,0.0,0.0,0.0,0.0,0.0,0.0,0.0,0.0,0.0,0.0,0.0,0.0,0.0,0.0,0.0,0.0,0.0,0.0,0.0,0.0,0.0,0.0,0.0,0.0,0.0,0.0,0.0,0.0,0.0,0.0,0.0,0.0,0.0,0.0,0.0,0.0,0.0,0.0,0.0,0.0,0.0,0.0,0.0,0.0,0.0,0.0,0.0,0.0,0.0,0.0,0.0,0.0,0.0,0.0,0.0,0.0,0.0,0.0,0.0,0.0,0.0,0.0,0.0,0.0,0.0,0.0,0.0,0.0,0.0,0.0,0.0,0.0,0.0,0.0,0.0,0.0,0.0,0.0,0.0,0.0,0.0,0.0,0.0,0.0,0.0,0.0,0.0,0.0,0.0,0.0,0.0,0.0,0.0,0.0,0.0,0.0,0.0,0.0,0.0,0.0,0.0,0.0,0.0,0.0,0.0,0.0,0.0,0.0,0.0,0.0,0.0,0.0,0.0,0.0,0.0,0.0,0.0,0.0,0.0,0.0,0.0,0.0,0.0,0.0,0.0,0.0,0.0,0.0,0.0,0.0,0.0,0.0,0.0,0.0,0.0,0.0,0.0,0.0,0.0,0.0,0.0,0.0,0.0,0.0,0.0,0.0,0.0,0.0,0.0,0.0,0.0,0.0,0.0,0.0,0.0,0.0,0.0,0.0,0.0,0.0,0.0,0.0,0.0,0.0,0.0,0.0,0.0,0.0,0.0,0.0,0.0,0.0,0.0,0.0,0.0,0.0,0.0,0.0,0.0,0.0,0.0,0.0,0.0,0.0,0.0,0.0,0.0,0.0,0.0,0.0,0.0,0.0,0.0,0.0,0.0,0.0,0.0,0.0,0.0,0.0,0.0,0.0,0.0,0.0,0.0,0.0,0.0,0.0,0.0,0.0,0.0,0.0,0.0,0.0,0.0,0.0,0.0,0.0,0.0,0.0,0.0,0.0,0.0,0.0,0.0,0.0,0.0,0.0,0.0,0.0,0.0,0.0,0.0,0.0,0.0,0.0,0.0,0.0,0.0,0.0,0.0,0.0,0.0,0.0,0.0,0.0,0.0,0.0,0.0,0.0,0.0,0.0,0.0,0.0,0.0,0.0,0.0,0.0,0.0,0.0,0.0,0.0,0.0,0.0,0.0,0.0,0.0,0.0,0.0,0.0,0.0,0.0,0.0,0.0,0.0,0.0,0.0,0.0,0.0,0.0,0.0,0.0,0.0,0.0,0.0,0.0,0.0,0.0,0.0,0.0,0.0,0.0,0.0,0.0,0.0,0.0,0.0,0.0,0.0,0.0,0.0,0.0,0.0,0.0,0.0,0.0,0.0,0.0,0.0,0.0,0.0,0.0,0.0,0.0,0.0,0.0,0.0,0.0,0.0,0.0,0.0,0.0,0.0,0.0,0.0,0.0,0.0,0.0,0.0,0.0,0.0,0.0,0.0,0.0,0.0,0.0,0.0,0.0,0.0,0.0,0.0,0.0,0.0,0.0,0.0,0.0,0.0,0.0,0.0,0.0,0.0,0.0,0.0,0.0,0.0,0.0,0.0,0.0,0.0,0.0,0.0,0.0,0.0,0.0,0.0,0.0,0.0,0.0,0.0,0.0,0.0,0.0,0.0,0.0,0.0,0.0,0.0,0.0,0.0,0.0,0.0,0.0,0.0,0.0,0.0,0.0,0.0,0.0,0.0,0.0,0.0,0.0,0.0,0.0,0.0,0.0,0.0,0.0,0.0,0.0,0.0,0.0,0.0,0.0,0.0,0.0,0.0,0.0,0.0,0.0,0.0,0.0,0.0,0.0,0.0,0.0,0.0,0.0,0.0,0.0,0.0,0.0,0.0,0.0,0.0,0.0,0.0,0.0,0.0,0.0,0.0,0.0,0.0,0.0,0.0,0.0,0.0,0.0,0.0,0.0,0.0,0.0,0.0,0.0,0.0,0.0,0.0,0.0,0.0,0.0,0.0,0.0,0.0,0.0,0.0,0.0,0.0,0.0,0.0,0.0,0.0,0.0,0.0,0.0,0.0,0.0,0.0,0.0,0.0,0.0,0.0,0.0,0.0,0.0,0.0,0.0,0.0,0.0,0.0,0.0,0.0,0.0,0.0,0.0,0.0,0.0,0.0,0.0,0.0,0.0,0.0,0.0,0.0,0.0,0.0,0.0,0.0,0.0,0.0,0.0,0.0,0.0,0.0,0.0,0.0,0.0,0.0,0.0,0.0,0.0,0.0,0.0,0.0,0.0,0.0,0.0,0.0,0.0,0.0,0.0,0.0,0.0,0.0,0.0,0.0,0.0,0.0,0.0,0.0,0.0,0.0,0.0,0.0,0.0,0.0,0.0,0.0,0.0,0.0,0.0,0.0,0.0,0.0,0.0,0.0,0.0,0.0,0.0,0.0,0.0,0.0,0.0,0.0,0.0,0.0,0.0,0.0,0.0,0.0,0.0,0.0,0.0,0.0,0.0,0.0,0.0,0.0,0.0,0.0,0.0,0.0,0.0,0.0,0.0,0.0,0.0,0.0,0.0,0.0,0.0,0.0,0.0,0.0,0.0,0.0,0.0,0.0,0.0,0.0,0.0,0.0,0.0,0.0,0.0,0.0,0.0,0.0,0.0,0.0,0.0,0.0,0.0,0.0,0.0,0.0,0.0,0.0,0.0,0.0,0.0,0.0,0.0,0.0,0.0,0.0,0.0,0.0,0.0,0.0,0.0,0.0,0.0,0.0,0.0,0.0,0.0,0.0,0.0,0.0,0.0,0.0,0.0,0.0,0.0,0.0,0.0,0.0,0.0,0.0,0.0,0.0,0.0,0.0,0.0,0.0,0.0,0.0,0.0,0.0,0.0,0.0,0.0,0.0,0.0,0.0,0.0,0.0,0.0,0.0,0.0,0.0,0.0,0.0,0.0,0.0,0.0,0.0,0.0,0.0,0.0,0.0,0.0,0.0,0.0,0.0,0.0,0.0,0.0,0.0,0.0,0.0,0.0,0.0,0.0,0.0,0.0,0.0,0.0,0.0,0.0,0.0,0.0,0.0,0.0,0.0,0.0,0.0,0.0,0.0,0.0,0.0,0.0,0.0,0.0,0.0,0.0,0.0,0.0,0.0,0.0,0.0,0.0,0.0,0.0,0.0,0.0,0.0,0.0,0.0,0.0,0.0,0.0,0.0,0.0,0.0,0.0,0.0,0.0,0.0,0.0,0.0,0.0,0.0,0.0,0.0,0.0,0.0,0.0,0.0,0.0,0.0,0.0,0.9131,0.8542,0.0,0.0,0.0,0.0,0.0,0.0,0.0,0.0,0.0,0.0,0.0,0.0,0.0,0.0,0.0,0.0,0.0,0.0,0.0,0.0,0.0,0.0,0.0,0.3097,0.3112,0.3186,0.3133,0.3121,0.3186,0.0,0.0,0.0,0.0,0.0,0.3306,0.3229,0.3427,0.3879,0.3745,0.3978,0.4531,0.4176,0.4052,0.4114,0.0,0.0,0.0,0.0,0.0,0.0,0.0,0.0,0.0,0.0,0.0,0.0,0.0,0.0,0.0,0.0,0.0,0.0,0.0,0.0,0.0,0.0,0.0,0.0,0.0,0.0,0.0,0.0,0.0,0.0,0.0,0.0,0.0,0.0,0.0,0.0,0.0,0.0,0.0,0.0,0.0,0.0,0.0,0.0,0.0,0.0,0.0,0.0,0.0,0.0,0.0,0.0,0.0,0.0,0.0,0.0,0.0,0.0,0.0,0.0,0.0,0.0,0.0,0.0,0.0,0.0,0.0,0.0,0.0,0.0,1.0107,0.9565,0.0,0.0,0.0,0.0,0.0,0.0,0.0,0.0,0.0,0.0,0.0,0.0,0.0,0.0,0.0,0.0,0.0,0.0,0.0,0.0,0.0,0.3017,0.3127,0.3255,0.3323,0.3306,0.3306,0.3306,0.3306,0.3306,0.0,0.0,0.0,0.3315,0.3332,0.3447,0.3844,0.4514,0.4472,0.4693,0.5149,0.5237,0.5288,0.5275,0.5086,0.0,0.0,0.0,0.0,0.0,0.0,0.0,0.0,0.0,0.0,0.0,0.0,0.0,0.0,0.0,0.0,0.0,0.0,0.0,0.0,0.0,0.0,0.0,0.0,0.0,0.0,0.0,0.0,0.0,0.0,0.0,0.0,0.0,0.0,0.0,0.0,0.0,0.0,0.0,0.0,0.0,0.0,0.0,0.0,0.0,0.0,0.0,0.0,0.0,0.0,0.0,0.0,0.0,0.0,0.0,0.0,0.0,0.0,0.0,0.0,0.0,0.0,0.0,1.1756,1.1874,1.1908,1.2567,1.2657,1.2248,1.1525,1.109,1.0784,0.9795,0.0,0.0,0.0,0.0,0.0,0.0,0.0,0.0,0.0,0.0,0.0,0.0,0.0,0.0,0.0,0.0,0.0,0.0,0.0,0.3251,0.3272,0.3395,0.342,0.3315,0.3306,0.3306,0.3306,0.3306,0.0,0.0,0.3306,0.3349,0.3467,0.4047,0.4412,0.4583,0.542,0.5786,0.5715,0.6177,0.6386,0.6336,0.5412,0.4959,0.4896,0.0,0.0,0.0,0.0,0.0,0.0,0.0,0.0,0.0,0.0,0.0,0.0,0.0,0.0,0.0,0.0,0.0,0.0,0.0,0.0,0.0,0.0,0.0,0.0,0.0,0.0,0.0,0.0,0.0,0.0,0.0,0.0,0.0,0.0,0.0,0.0,0.0,0.0,0.0,0.0,0.0,0.7724,0.8643,0.0,0.0,0.0,0.0,0.0,0.0,0.0,0.0,0.0,0.0,0.0,0.0,0.0,1.091,1.1132,1.2442,1.3108,1.3108,1.4377,1.5003,1.5003,1.5122,1.4984,1.4632,1.4283,0.0,1.103,1.0708,0.0,0.0,0.0,0.0,0.0,0.0,0.0,0.0,0.0,0.0,0.0,0.0,0.0,0.0,0.0,0.0,0.0,0.0,0.0,0.0,0.0,0.4079,0.4244,0.4562,0.4486,0.4302,0.3991,0.3841,0.3612,0.3319,0.3378,0.362,0.4043,0.4496,0.5069,0.5774,0.6422,0.6609,0.6429,0.6554,0.6599,0.6574,0.6227,0.5903,0.5618,0.5714,0.0,0.0,0.0,0.0,0.0,0.0,0.0,0.0,0.0,0.0,0.0,0.0,0.0,0.0,0.0,0.0,0.0,0.0,0.0,0.0,0.0,0.0,0.0,0.0,0.0,0.0,0.0,0.0,0.0,0.0,0.0,0.0,0.0,0.0,0.0,0.0,0.0,0.0,0.0,0.737,0.8503,0.8857,0.8891,0.8891,0.0,0.0,0.0,0.0,0.0,0.0,0.0,0.0,0.0,1.0813,1.1843,1.2428,1.2489,1.3905,1.4649,1.4631,1.5291,1.5595,1.5612,1.6018,1.592,1.545,1.5759,1.4852,1.3105,1.2268,1.1936,1.1913,0.0,0.0,0.0,0.0,1.1848,1.1721,0.0,0.0,0.0,0.0,0.0,0.0,0.0,0.0,0.0,0.0,0.0,0.0,0.4552,0.4661,0.4936,0.5551,0.5419,0.5134,0.0,0.0,0.394,0.357,0.352,0.3853,0.4614,0.5183,0.5955,0.6935,0.7109,0.7096,0.6908,0.6689,0.6599,0.6616,0.6861,0.6706,0.6234,0.6413,0.6188,0.0,0.0,0.0,0.0,0.0,0.0,0.0,0.0,0.0,0.0,0.0,0.0,0.0,0.0,0.0,0.0,0.0,0.0,0.0,0.0,0.0,0.0,0.0,0.0,0.0,0.0,0.0,0.0,0.0,0.0,0.0,0.0,0.0,0.0,0.0,0.0,0.0,0.0,0.8217,0.9111,0.8925,0.923,0.9382,0.0,0.0,0.0,0.0,0.0,0.0,1.0748,1.1349,1.1831,1.2121,1.3327,1.3972,1.3972,1.5223,1.5866,1.5866,1.6069,1.6153,1.6187,1.6648,1.6679,1.6418,1.6873,1.658,1.5594,1.3991,1.334,1.3329,1.2823,1.3031,1.3585,1.3635,1.3565,1.3571,0.0,0.0,0.0,0.0,0.0,0.0,0.0,0.0,0.0,0.0,0.0,0.4082,0.4637,0.4811,0.5076,0.5562,0.5419,0.5285,0.0,0.0,0.4148,0.4253,0.3769,0.3968,0.4952,0.6364,0.7238,0.7547,0.7304,0.0,0.6908,0.6689,0.6599,0.6616,0.7015,0.6953,0.6617,0.7256,0.6968,0.6116,0.0,0.0,0.0,0.0,0.0,0.0,0.0,0.0,0.0,0.0,0.0,0.0,0.0,0.0,0.0,0.0,0.0,0.0,0.0,0.0,0.0,0.0,0.0,0.0,0.0,0.0,0.0,0.0,0.0,0.0,0.0,0.0,0.0,0.0,0.0,0.0,0.0,0.0,0.0,0.8976,1.0145,0.0,0.0,0.0,0.0,1.1192,1.1196,1.1541,1.2253,1.2918,1.3616,1.4327,1.5088,1.5494,1.5494,1.6275,1.6648,1.6648,1.7354,1.7693,1.767,1.7396,1.7633,1.8259,1.7963,1.7991,1.8036,1.5682,1.4485,1.4146,1.4115,1.4671,1.5422,1.518,1.5452,1.5906,0.0,0.0,0.0,0.0,0.0,0.3272,0.3404,0.3511,0.3618,0.378,0.4356,0.4922,0.0,0.6011,0.6565,0.7043,0.673,0.638,0.6023,0.0,0.4801,0.4944,0.4642,0.5171,0.6704,0.7427,0.7885,0.0,0.0,0.0,0.0,0.0,0.0,0.0,0.0,0.7563,0.6824,0.7376,0.7386,0.7083,0.7272,0.7018,0.0,0.0,0.0,0.0,0.0,0.0,0.0,0.0,0.0,0.0,0.0,0.0,0.0,0.0,0.0,0.0,0.0,0.0,0.0,0.0,0.0,0.0,0.0,0.0,0.0,0.0,0.0,0.0,0.0,0.0,0.0,0.0,0.0,0.0,0.0,0.0,0.0,1.0284,1.0775,0.0,1.0724,1.0998,1.1383,1.1897,1.2389,1.2969,1.3718,1.443,1.4936,1.5206,1.5917,1.6309,1.6309,1.7033,1.7405,1.7422,1.7455,1.7846,1.8481,1.7887,1.8176,1.9059,1.8394,1.8217,1.8315,1.7152,1.6593,1.6457,1.6457,1.6783,1.7228,1.6908,1.7075,1.7408,0.0,0.0,0.0,0.0,0.3238,0.3357,0.3511,0.3579,0.3682,0.3913,0.4664,0.5379,0.5945,0.668,0.7344,0.7854,0.7561,0.7179,0.6829,0.0,0.5619,0.5792,0.5802,0.6384,0.7577,0.7995,0.8267,0.0,0.0,0.0,0.0,0.0,0.0,0.0,0.0,0.0,0.0,0.8175,0.8088,0.7605,0.7679,0.7517,0.724,0.0,0.0,0.0,0.0,0.0,0.0,0.0,0.0,0.0,0.0,0.0,0.0,0.0,0.0,0.0,0.0,0.0,0.0,0.0,0.0,0.0,0.0,0.0,0.0,0.0,0.0,0.0,0.0,0.0,0.0,0.0,0.0,0.0,0.0,0.0,1.0961,1.1451,1.1942,1.2246,1.2246,1.2466,1.2838,1.3362,1.3853,1.4462,1.5206,1.5697,1.6086,1.6339,1.6813,1.7067,1.7067,1.7557,1.7861,1.7973,1.7732,1.8062,1.8849,1.8219,1.8546,1.9593,1.8902,1.878,1.9013,1.8722,1.8507,1.8343,1.7861,1.7964,1.8356,1.811,1.8329,1.8659,0.0,0.0,0.0,0.3306,0.3306,0.3361,0.3573,0.3605,0.3758,0.4169,0.4757,0.541,0.6125,0.6695,0.7258,0.7839,0.7709,0.759,0.7605,0.6857,0.6542,0.6805,0.7218,0.7436,0.7448,0.8088,0.8415,0.0,0.0,0.0,0.0,0.0,0.0,0.0,0.0,0.0,0.0,0.0,0.9055,0.7693,0.7886,0.7944,0.7929,0.0,0.0,0.0,0.0,0.0,0.0,0.0,0.0,0.0,0.0,0.0,0.0,0.0,0.0,0.0,0.0,0.0,0.0,0.0,0.0,0.0,0.0,0.0,0.0,0.0,0.0,0.0,0.0,0.0,0.0,0.0,0.0,0.0,1.0068,1.1367,1.2314,1.2365,1.3633,1.4494,1.4528,1.517,1.5592,1.5609,1.5609,1.595,1.6678,1.6733,1.705,1.7794,1.7811,1.7789,1.7789,1.7805,1.7966,1.8271,1.8297,1.8486,1.8826,1.8407,1.8842,1.9923,1.9546,1.9741,2.0314,2.028,2.0054,1.9555,1.8283,1.8179,1.8732,1.8732,1.9136,1.969,0.0,0.0,0.3306,0.3306,0.3306,0.3349,0.3503,0.3571,0.386,0.4545,0.5371,0.6049,0.6442,0.7142,0.7603,0.768,0.7454,0.7394,0.7575,0.0,0.6921,0.7432,0.8031,0.8391,0.8488,0.0,0.0,0.0,0.0,0.0,0.0,0.0,0.0,0.0,0.0,0.0,0.0,0.0,1.0062,0.9267,0.9319,0.9053,0.8635,0.0,0.0,0.0,0.0,0.0,0.0,0.0,0.0,0.0,0.0,0.0,0.0,0.0,0.0,0.0,0.0,0.0,0.0,0.0,0.0,0.0,0.0,0.0,0.0,0.0,0.0,0.0,0.0,0.0,0.0,0.0,1.0808,1.1671,1.1671,1.2026,1.2703,1.3785,1.4241,1.4605,1.4911,1.5122,1.5369,1.5655,1.5884,1.637,1.7107,1.7378,1.7591,1.7772,1.7811,1.7681,1.7439,1.7914,1.8074,1.7925,1.8137,1.8724,1.9558,1.8898,1.935,2.0655,1.9946,1.9867,2.028,2.0,1.9818,1.9645,1.9286,1.9256,1.942,1.942,1.9525,1.9639,0.0,0.3306,0.3306,0.3306,0.3306,0.334,0.3475,0.3528,0.3751,0.4317,0.5238,0.5952,0.6167,0.6998,0.7517,0.7439,0.7394,0.7455,0.7665,0.0,0.7712,0.7982,0.0,0.876,0.0,0.0,0.0,0.0,0.0,0.0,0.0,0.0,0.0,0.0,0.0,0.0,0.0,0.0,1.1171,1.0838,1.0737,1.0129,0.9325,0.9409,0.92,0.8835,0.8719,0.8624,0.8459,0.7982,0.0,0.0,0.0,0.0,0.0,0.0,0.0,0.0,0.0,0.0,0.0,0.0,0.0,0.0,0.0,0.0,0.0,0.0,0.0,0.0,0.0,0.0,0.0,0.0,1.1975,1.2872,1.3176,1.3227,1.365,1.4834,1.5107,1.5433,1.5978,1.5886,1.5902,1.6134,1.6354,1.6654,1.7085,1.7288,1.7448,1.7572,1.7455,1.7509,1.7716,1.7981,1.8187,1.8385,1.8532,1.9058,1.9805,1.9349,1.9615,2.0447,1.9925,1.9839,2.0035,1.9782,1.969,1.969,0.0,0.0,0.0,0.0,1.969,1.9603,0.0,0.3306,0.3306,0.3306,0.3306,0.334,0.3459,0.3484,0.3579,0.3828,0.0,0.5396,0.5608,0.6491,0.7095,0.7164,0.7408,0.7635,0.0,0.0,0.0,0.8415,0.8592,0.8748,0.0,0.0,0.0,0.0,0.0,0.0,0.0,0.0,0.0,0.0,0.0,0.0,0.0,0.0,1.2231,1.2185,1.194,1.1092,0.9994,0.9994,0.9965,0.9833,0.9369,0.9188,0.9158,0.8944,0.0,0.0,0.0,0.0,0.0,0.0,0.0,0.0,0.0,0.0,0.0,0.0,0.0,0.0,0.0,0.0,0.0,0.0,0.0,0.0,0.0,0.0,0.0,0.0,1.3041,1.3768,1.453,1.4716,1.5003,1.5646,1.6015,1.6459,1.7182,1.6926,1.6738,1.6686,1.6712,1.6738,1.6738,1.6789,0.0,0.0,0.0,1.7319,1.8222,1.8054,1.8369,1.9142,1.9219,1.9402,1.969,1.969,1.969,1.969,1.969,1.969,1.969,1.969,1.969,1.969,1.969,1.969,1.969,1.969,1.969,1.9603,0.0,0.3306,0.3306,0.3306,0.3306,0.3315,0.3332,0.342,0.3668,0.4145,0.4528,0.5038,0.5766,0.6126,0.6489,0.6921,0.716,0.7487,0.0,0.0,0.0,0.0,0.0,0.0,0.0,0.0,0.0,0.0,0.0,0.0,0.0,0.0,0.0,0.0,0.0,0.0,0.0,0.0,1.2412,1.2205,1.2128,1.151,1.0618,1.0618,1.0324,0.9875,0.9776,0.9748,0.9771,0.9874,0.9622,0.9262,0.9315,0.0,0.0,0.0,0.0,0.0,0.0,0.0,0.0,0.0,0.0,0.0,0.0,0.0,0.0,0.0,0.0,0.0,0.0,0.0,0.0,1.3041,1.3802,1.4546,1.5274,1.59,1.6343,1.6479,1.6315,1.6383,1.6837,1.6607,1.6301,1.6011,1.6246,1.6394,1.6394,1.6659,1.6952,1.7296,1.7517,1.77,1.7882,1.859,1.8881,1.8805,1.9331,0.0,1.969,1.969,1.969,1.969,1.969,1.969,1.969,1.969,1.969,1.969,1.969,1.969,1.969,1.969,1.969,1.9603,0.3086,0.3159,0.3194,0.3194,0.3194,0.3194,0.3194,0.3259,0.342,0.3757,0.4064,0.4421,0.4858,0.5225,0.556,0.5826,0.6589,0.0,0.0,0.0,0.0,0.0,0.0,0.0,0.0,0.0,0.0,0.0,0.0,0.0,0.0,0.0,0.0,0.0,0.0,0.0,0.0,0.0,1.2722,1.2588,1.2451,1.2113,1.1664,1.1399,1.1117,1.0802,1.0473,1.0354,1.035,1.0359,1.0161,0.9919,0.9711,0.9465,0.9117,0.0,0.0,0.0,0.0,0.0,0.0,0.0,0.0,0.0,0.0,0.0,0.0,0.0,0.0,1.0791,0.0,0.0,1.321,1.431,1.5122,1.5731,1.6086,1.6779,1.7101,1.6749,1.6736,1.6758,1.6809,1.6501,1.6163,1.5827,1.5955,1.6067,1.6067,1.6219,1.6604,1.7284,1.7264,1.7663,1.8482,1.8805,1.9023,1.9196,1.9525,1.969,1.969,1.969,1.969,1.969,1.969,1.969,1.969,1.969,1.969,1.969,1.969,1.969,1.969,1.969,1.969,1.9603,0.2896,0.2972,0.3046,0.3064,0.3064,0.3064,0.3064,0.3064,0.3089,0.3194,0.3513,0.3771,0.3844,0.4341,0.4733,0.0,0.0,0.0,0.0,0.0,0.0,0.0,0.0,0.0,0.0,0.0,0.0,0.0,0.0,0.0,0.0,0.0,0.0,0.0,0.0,0.0,0.0,0.0,1.3087,1.3033,1.2778,1.2649,1.2553,1.2113,1.1918,1.18,1.1122,1.0877,1.0829,1.0536,1.0399,1.0252,0.9863,0.9642,0.9359,0.8424,0.8227,0.0,0.0,0.0,0.0,0.0,0.0,0.0,0.0,0.0,1.0178,1.0203,1.0808,1.1756,1.3142,1.3532,1.4108,1.5561,1.6326,1.6749,1.6902,1.7422,1.7591,1.6965,1.7136,1.7199,1.6926,1.6528,1.6191,1.5913,1.5827,1.5799,1.5799,1.5799,1.6287,1.7363,1.7151,1.776,1.9322,1.9113,1.9256,1.969,1.969,1.969,1.969,1.969,1.969,1.969,1.9603,1.953,1.953,1.953,1.9603,1.969,1.969,1.969,1.969,1.969,1.969,1.9639,0.0,0.2861,0.2843,0.2917,0.2926,0.2926,0.2926,0.2926,0.2908,0.2861,0.3047,0.3301,0.3607,0.397,0.4475,0.0,0.0,0.0,0.0,0.0,0.0,0.0,0.0,0.0,0.0,0.0,0.0,0.0,0.0,0.0,0.0,0.0,0.0,0.0,0.0,0.0,0.0,0.0,1.3427,1.3244,1.3051,1.2815,1.2591,1.2533,1.2356,1.2072,1.1401,1.1116,1.0986,1.0434,1.0001,0.9691,0.957,0.9092,0.8524,0.8406,0.0,0.8106,0.8819,0.9624,1.0173,0.9746,1.0208,1.075,0.0,0.0,1.0825,1.095,1.1603,1.2415,1.3244,1.3938,1.4868,1.6343,1.6648,1.6936,1.7591,1.776,1.7777,1.7693,1.7436,1.7296,1.7248,1.667,1.6301,1.6246,1.5983,1.5799,1.5799,1.5799,1.6414,1.7796,1.8075,1.8733,1.9813,2.0011,1.9993,1.969,1.969,1.969,1.969,1.969,1.969,1.969,1.9207,1.9006,1.9006,1.9006,1.9281,1.969,1.969,1.969,1.969,1.969,1.969,1.969,0.0,0.2646,0.2597,0.2713,0.2788,0.2852,0.2887,0.2871,0.2843,0.2861,0.2889,0.2957,0.3063,0.3338,0.3872,0.0,0.0,0.0,0.6835,0.0,0.0,0.0,0.0,0.0,0.0,0.0,0.0,0.0,0.0,0.0,0.0,0.0,0.0,0.0,0.0,0.0,0.0,1.387,1.3646,1.3475,1.3378,1.3227,1.3019,1.2588,1.2267,1.197,1.1521,1.1069,0.0,0.0,1.0256,1.0042,0.9624,0.9287,0.8955,0.8527,0.8499,0.0,0.9529,1.0271,1.0783,0.0,1.1089,1.1599,1.1129,1.1699,1.2369,1.2432,1.3379,1.4445,1.5191,1.5581,1.612,0.0,1.7337,1.7456,1.776,1.7811,1.7811,1.7811,1.7681,1.7526,1.732,1.6876,1.6501,1.6313,1.5983,1.5963,1.6323,1.5979,1.6724,1.8713,1.8546,1.9092,2.0527,2.0376,2.0227,2.007,1.9803,1.969,1.969,1.969,1.953,1.9207,1.9006,1.8727,1.8419,1.8419,1.8574,1.8765,1.8765,1.8968,1.9281,1.9566,1.969,1.969,0.0,0.2441,0.2393,0.2519,0.2656,0.276,0.2816,0.2779,0.276,0.2816,0.2807,0.2796,0.2814,0.2953,0.3341,0.0,0.0,0.0,0.0,0.7375,0.0,0.0,0.0,0.0,0.0,0.0,0.0,0.0,0.0,0.0,0.0,0.0,0.0,0.0,0.0,0.0,0.0,1.3975,1.3899,1.3751,1.3724,1.3467,1.3087,1.2559,1.1947,1.1348,1.1108,1.0672,0.0,0.0,0.9978,0.9955,0.9382,0.9235,0.9211,0.8893,0.9157,0.964,0.9986,1.0699,0.0,1.1287,1.195,1.2449,1.1857,1.277,1.3718,1.3803,1.4772,1.5855,1.6666,1.6761,1.6953,1.7693,1.7811,1.7811,1.7811,1.7811,1.7811,1.7811,1.7811,1.7704,1.7462,1.7126,1.6815,1.6448,1.6219,1.6314,1.6864,1.6573,1.7403,1.9657,1.926,1.9684,2.1134,2.0846,2.0534,2.0314,2.0,1.9818,1.969,1.969,1.9332,1.8688,1.8688,1.838,1.7867,1.7867,1.7987,1.8106,1.8263,1.8458,1.8765,1.9442,1.969,1.969,0.0,0.0,0.2245,0.2383,0.2519,0.2607,0.2607,0.2607,0.2607,0.2607,0.2723,0.2872,0.3064,0.2981,0.2972,0.0,0.0,0.0,0.5738,0.704,0.7896,0.0,0.0,0.0,0.0,0.0,0.0,0.0,0.0,0.0,0.0,0.0,0.0,0.0,0.0,0.0,1.338,1.3956,1.4188,1.4162,1.3969,1.3327,1.2511,1.2508,1.1483,1.0043,0.9902,0.0,0.0,0.0,0.8677,0.8891,0.8533,0.8562,0.0,0.9551,1.0234,1.0614,0.9985,0.0,1.1942,1.2184,1.2821,1.3362,1.3345,1.3921,1.4534,1.4794,1.5241,1.5914,1.6907,1.6867,1.6953,1.7693,1.7811,1.7811,1.7811,1.7811,1.7811,1.7811,1.7811,1.7789,0.0,1.7479,1.715,1.6815,1.6789,1.6961,1.7361,1.7686,1.8686,2.0492,2.0553,2.0871,2.1582,2.1552,2.1134,2.0314,2.028,2.0089,1.969,1.969,1.9132,1.8145,1.8145,1.7827,1.7312,1.7312,1.7626,1.8145,1.865,1.8574,1.8263,1.9332,1.969,1.969,0.0,0.0,0.0,0.2626,0.2549,0.2529,0.2713,0.2656,0.2549,0.2422,0.2559,0.0,0.0,0.0,0.0,0.0,0.0,0.0,0.0,0.6338,0.0,0.0,0.0,0.0,0.0,0.0,0.0,0.0,0.0,0.0,0.0,0.0,0.0,0.0,0.0,0.0,1.2657,1.2845,1.2841,1.2662,1.2606,1.2282,1.1781,1.1286,1.0773,1.0192,0.0,0.0,0.0,0.0,0.8665,0.8724,0.8479,0.0,0.0,1.0133,1.0369,1.0533,1.1783,0.0,1.2334,1.2997,1.3274,1.3413,1.3509,1.4126,1.4762,1.4941,1.5521,1.6061,1.6266,1.6639,1.6932,1.7059,1.749,1.7811,1.7811,1.7811,1.7811,1.7811,1.7811,0.0,0.0,0.0,0.0,1.715,1.7387,1.7764,1.8353,1.8539,1.9455,2.1217,2.0817,2.1076,2.2061,2.1477,2.1055,2.0764,2.0174,1.9839,1.969,1.969,1.9332,1.8612,1.8612,1.8145,1.7312,1.7312,1.7188,1.7076,1.7229,1.7626,1.8145,1.8496,1.9095,1.969,0.0,0.0,0.0,0.0,0.0,0.0,0.0,0.0,0.0,0.0,0.0,0.0,0.0,0.0,0.0,0.0,0.0,0.0,0.0,0.0,0.0,0.0,0.0,0.0,0.0,0.0,0.0,0.0,0.0,0.0,0.0,0.0,0.0,0.0,0.0,0.0,1.1818,1.2116,1.2141,1.2021,1.2021,1.1723,1.1234,1.0751,1.0361,0.0,0.0,0.0,0.0,0.0,0.0,0.0,0.0,0.0,0.9675,1.0333,1.065,1.1197,1.2889,1.3071,1.2995,1.3812,1.4259,1.4345,1.3815,1.4546,1.531,1.5163,1.5719,1.6184,1.6115,1.6429,1.6734,1.6792,1.7295,1.7706,1.78,1.7883,1.7922,1.7811,1.7811,1.7811,0.0,0.0,0.0,1.732,1.788,1.8522,1.9074,1.9547,2.0421,2.182,2.1433,2.1546,2.231,2.1751,2.1323,2.0991,2.0261,1.9839,1.969,1.969,1.9406,1.8893,1.8893,1.8419,1.7585,1.7585,1.7271,1.6795,1.6993,1.7394,1.7867,1.8263,1.8817,1.9442,0.0,0.0,0.0,0.0,0.0,0.0,0.0,0.0,0.0,0.0,0.0,0.0,0.0,0.0,0.0,0.0,0.0,0.0,0.0,0.0,0.0,0.0,0.6694,0.7096,0.8382,0.8136,0.8511,0.0,0.0,0.0,0.0,0.0,0.0,0.0,0.0,0.0,1.0884,1.1664,1.2013,1.2074,1.2093,1.1581,1.0852,1.0852,0.0,0.0,0.0,0.0,0.0,0.0,0.0,0.0,0.0,0.0,1.1002,1.0344,1.1209,1.2547,1.3293,1.3675,1.4005,1.4708,1.5605,1.5922,1.4349,1.5132,1.6029,1.5428,1.5702,1.609,0.0,0.0,1.6273,1.6822,1.7183,1.7498,1.7803,1.8078,1.8142,0.0,0.0,0.0,0.0,0.0,0.0,1.7491,1.8397,1.9143,1.9578,2.0646,2.1566,2.2293,2.231,2.231,2.231,2.2282,2.1857,2.0991,2.055,2.0124,1.9747,1.9747,1.9479,1.8954,1.8954,1.865,1.8145,1.8145,1.7827,1.7394,1.7907,1.7827,1.7504,1.8535,1.893,1.9006,0.0,0.0,0.0,0.0,0.0,0.0,0.0,0.0,0.0,0.0,0.0,0.0,0.0,0.0,0.0,0.0,0.0,0.0,0.0,0.0,0.0,0.0,0.0,0.0,0.7159,0.7766,0.0,0.0,0.0,0.0,0.0,0.0,0.0,0.0,0.0,0.0,0.0,1.0273,1.0426,1.0495,0.0,1.0439,1.0145,0.0,0.0,0.0,0.0,0.0,0.0,0.0,0.0,0.0,0.0,1.076,1.1617,0.0,0.0,1.3765,1.4641,1.5284,1.5784,1.6072,1.5791,1.535,1.5088,1.4872,1.4571,1.3949,1.3937,1.3829,0.0,0.0,0.0,1.5412,1.6571,0.0,1.8305,1.845,0.0,1.9222,0.0,1.9541,2.0125,2.0181,0.0,1.9711,1.9702,2.0027,2.0733,2.1573,2.2124,2.231,2.231,2.231,2.231,2.1957,2.1507,2.0991,2.0862,2.0764,2.0665,2.0665,2.0382,1.9954,1.9954,1.9492,1.8688,1.8688,1.838,1.7907,1.8066,1.8263,1.8535,1.8817,1.9169,1.953,0.0,0.0,0.0,0.0,0.0,0.0,0.0,0.0,0.0,0.0,0.0,0.0,0.0,0.0,0.0,0.0,0.0,0.0,0.0,0.0,0.0,0.0,0.0,0.0,0.0,0.0,0.0,0.0,0.0,0.0,0.0,0.0,0.0,0.0,0.0,0.0,0.0,0.0,0.0,0.0,0.0,0.0,0.0,0.0,0.0,0.0,0.0,0.0,0.0,0.0,0.0,1.0593,1.0927,1.1557,1.2257,1.2677,0.0,1.4674,1.5568,1.6386,1.7028,1.7073,1.676,1.6161,1.5228,1.4659,1.4035,1.2984,1.2796,0.0,1.2083,1.3018,1.4058,0.0,0.0,0.0,1.8003,1.8466,1.9037,0.0,1.9814,0.0,2.0921,2.0993,2.105,2.1183,2.0891,2.0841,2.1187,2.1904,2.231,2.231,2.231,2.231,2.231,2.2032,2.1705,2.1244,2.1244,2.1181,2.0991,2.0991,2.0862,2.0616,2.0616,2.0299,1.9798,1.9798,1.939,1.876,1.876,1.8826,1.8893,1.8893,1.9244,1.969,0.0,0.0,0.0,0.0,0.0,0.0,0.0,0.0,0.0,0.0,0.0,0.0,0.0,0.0,0.0,0.0,0.0,0.0,0.0,0.0,0.0,0.0,0.0,0.0,0.0,0.0,0.0,0.0,0.0,0.0,0.0,0.0,0.0,0.0,0.0,0.0,0.0,0.0,0.0,0.0,0.0,0.0,0.0,0.0,0.0,0.0,0.0,0.0,0.0,0.0,1.1042,1.0977,1.1732,1.2459,1.3088,1.3063,1.4154,1.5499,1.6187,1.717,1.7962,1.7788,1.7854,1.7344,1.5019,1.4426,1.3875,1.2278,0.0,1.1992,1.1898,1.2643,1.3485,1.4178,0.0,1.7117,1.764,1.8481,1.9308,2.0006,2.0075,2.0432,2.1327,2.1417,2.1682,2.2273,2.2037,2.1759,2.1481,2.2031,2.2349,2.231,2.231,2.231,2.231,2.231,2.2106,2.1688,2.1688,2.1507,2.1166,2.1166,2.1134,2.1086,2.1086,2.1055,2.0991,2.0991,2.0534,1.9783,1.9783,1.9549,1.9177,1.9177,1.9485,1.9889,0.0,0.0,0.0,0.0,0.0,0.0,0.0,0.0,0.0,0.0,0.278,0.2598,0.0,0.0,0.0,0.0,0.0,0.0,0.0,0.0,0.0,0.0,0.0,0.0,0.0,0.0,0.0,0.0,0.0,0.0,0.0,0.0,0.0,0.0,0.0,0.0,0.0,0.0,0.0,0.0,0.0,0.0,0.0,0.0,0.0,0.0,0.0,0.0,0.0,0.0,1.1639,1.2222,1.3011,1.3857,1.4504,1.4404,1.5499,1.6761,1.678,1.7896,1.8892,1.8203,1.7573,1.6652,1.4891,1.3985,0.0,0.0,1.1131,1.0945,1.0328,1.0886,1.2178,1.4419,1.5479,1.6811,1.9077,1.9313,1.984,0.0,2.1528,2.2027,2.3507,2.3654,0.0,2.3433,2.3368,2.3195,2.2869,2.272,2.2527,2.231,2.231,2.231,2.231,2.231,2.2254,2.218,2.218,2.2135,2.2077,2.2077,2.1869,2.1491,2.1491,2.1306,2.0991,2.0991,2.0894,2.0748,2.0748,2.0715,2.0649,2.0649,2.0682,2.0764,0.0,0.0,0.0,0.0,0.0,0.0,0.0,0.3436,0.3315,0.322,0.3008,0.2815,0.2713,0.2704,0.2732,0.0,0.0,0.0,0.0,0.0,0.0,0.0,0.0,0.0,0.0,0.0,0.0,0.0,0.0,0.0,0.0,0.0,0.0,0.0,0.0,0.0,0.0,0.0,0.0,0.0,0.0,0.0,0.0,0.0,0.0,0.0,0.0,0.0,0.0,0.0,1.1599,1.2077,1.3247,1.4203,1.4895,1.4822,1.5647,1.6656,1.7011,1.7975,1.8801,1.841,1.7671,1.6509,1.4455,0.0,0.0,0.0,1.0339,1.0264,0.9925,1.0596,0.0,1.3379,1.4246,1.5563,1.8046,1.8241,1.9062,2.1588,2.1835,2.2428,2.4043,2.419,2.4113,2.3976,2.3976,2.3753,2.323,2.3045,2.2755,2.231,2.2598,2.2669,2.25,2.2669,2.2773,2.2773,2.2773,2.2773,2.2747,2.2581,2.2402,2.2158,2.2027,2.184,2.1691,2.1691,2.1524,2.1306,2.1306,2.1181,2.0991,2.0991,2.0991,2.0991,0.0,0.0,0.0,0.0,0.0,0.0,0.0,0.337,0.3306,0.3306,0.3204,0.3056,0.2843,0.2816,0.2788,0.0,0.0,0.0,0.0,0.0,0.0,0.0,0.0,0.0,0.0,0.0,0.0,0.0,0.0,0.0,0.0,0.0,0.0,0.0,0.0,0.0,0.0,0.0,0.0,0.0,0.0,0.0,0.0,0.0,0.0,0.0,0.0,0.0,0.0,0.0,1.1267,1.1609,1.2782,1.3868,1.4679,1.4673,1.5356,1.6262,1.6867,1.7763,1.8407,1.8046,1.7566,1.65,1.3831,1.265,0.0,0.0,0.9825,0.9899,0.9916,1.0574,1.1412,0.0,1.3188,1.4538,1.6897,1.7249,1.8416,0.0,2.1835,0.0,2.4043,2.419,0.0,2.419,2.419,2.3937,2.3346,2.3323,2.3056,2.2508,2.2958,2.3069,2.2822,2.3069,2.3189,2.3189,2.3189,2.3189,2.3189,2.2923,2.2822,2.2797,2.2581,2.248,2.248,2.248,2.2281,2.1931,2.1931,2.174,2.1456,2.1456,2.1456,2.1456,0.0,0.0,0.0,0.0,0.0,0.0,0.0,0.3315,0.3306,0.3306,0.3285,0.3182,0.2915,0.2834,0.275,0.0,0.0,0.0,0.0,0.0,0.0,0.0,0.0,0.0,0.0,0.0,0.0,0.0,0.0,0.0,0.0,0.0,0.0,0.0,0.0,0.0,0.0,0.0,0.0,0.0,0.0,0.0,0.0,0.0,0.0,0.0,0.0,0.0,0.0,0.0,0.0,1.1435,1.1639,1.2748,1.3977,1.3925,0.0,0.0,1.6219,1.734,1.8121,1.6537,1.6664,1.634,1.3068,0.0,1.1748,1.0207,0.9881,0.9916,0.9972,1.0073,1.0694,1.2397,0.0,1.4611,1.7262,1.7941,1.9162,2.1859,0.0,0.0,2.4043,2.419,2.419,2.419,2.419,2.4036,2.3671,2.3649,2.35,2.3135,2.3165,2.3189,2.3141,2.3189,2.3189,2.3189,2.3189,2.3189,2.3189,2.3165,2.3141,2.3141,2.3117,2.3135,2.3135,2.3135,2.3093,2.3052,2.3052,2.3028,2.3003,2.3003,2.3003,2.3003,0.0,0.0,0.0,0.0,0.0,0.0,0.3289,0.3378,0.3395,0.3315,0.3306,0.3191,0.2924,0.288,0.2851,0.2849,0.0,0.0,0.0,0.0,0.0,0.0,0.0,0.0,0.0,0.0,0.0,0.0,0.0,0.0,0.0,0.0,0.0,0.0,0.0,0.0,0.0,0.0,0.0,0.0,0.0,0.0,0.0,0.0,0.0,0.0,0.0,0.0,0.0,0.0,0.0,0.0,1.071,1.1519,0.0,0.0,1.4373,1.5082,1.6067,1.68,1.7129,1.6432,1.6403,1.5828,1.307,0.0,1.1756,1.0226,0.9959,1.0031,1.0062,1.0092,1.0524,1.177,1.1729,1.2605,1.5645,1.576,1.6816,2.0277,2.1068,0.0,0.0,0.0,2.4559,2.4559,2.4444,2.4321,2.4192,2.4077,2.3735,2.323,2.3588,2.3714,2.3482,2.3692,2.3795,2.3795,2.3795,2.3795,2.3795,2.3588,2.35,2.35,2.33,2.3189,2.3189,2.3189,2.3189,2.3189,2.3189,2.3189,2.3189,2.3189,2.3189,2.3189,0.0,0.0,0.0,0.0,0.0,0.3026,0.3156,0.3255,0.3302,0.3246,0.3212,0.3112,0.2915,0.2933,0.3009,0.3167,0.3166,0.0,0.0,0.0,0.0,0.0,0.0,0.0,0.0,0.0,0.0,0.0,0.0,0.0,0.0,0.0,0.0,0.0,0.0,0.0,0.0,0.0,0.0,0.0,0.0,0.0,0.0,0.0,0.0,0.0,0.0,0.0,0.0,0.0,0.0,0.0,0.0,0.0,0.0,0.0,1.361,1.4251,1.5436,1.6123,1.6426,1.6131,1.5911,1.5215,0.0,1.2227,1.1543,1.0241,1.0067,1.0135,1.0121,1.017,1.0407,0.0,1.0757,1.1467,1.4307,1.4348,1.5418,1.8982,0.0,2.1262,2.2938,2.4134,2.4804,2.4804,2.467,2.4575,2.4575,2.4444,2.4116,2.3504,2.3937,2.4133,2.3941,2.4154,2.4321,2.4375,2.4321,2.4321,2.4375,2.3999,2.3878,2.3903,2.3613,2.35,2.35,2.35,2.35,2.35,2.35,2.35,2.3504,2.3574,2.3552,2.3504,0.0,0.0,0.0,0.0,0.0,0.0,0.2878,0.2906,0.2953,0.3082,0.299,0.2896,0.2896,0.3021,0.3226,0.3559,0.3411,0.0,0.0,0.0,0.0,0.0,0.0,0.0,0.0,0.0,0.0,0.0,0.0,0.0,0.0,0.0,0.0,0.0,0.0,0.0,0.0,0.0,0.0,0.0,0.0,0.0,0.0,0.0,0.0,0.0,0.0,0.0,0.0,0.0,0.0,0.0,0.0,0.0,0.0,0.0,1.2703,1.3992,1.4015,1.524,1.6253,1.5264,1.5014,1.4568,1.2884,1.1819,1.1019,1.0347,1.0194,1.0193,1.0192,1.0195,1.0194,1.0219,1.087,1.1993,1.3762,1.4563,1.5906,0.0,0.0,2.0371,2.2045,2.3776,2.4804,2.4804,2.4804,2.4804,2.4804,2.479,2.4607,2.4209,2.4208,2.4284,2.4495,2.4495,2.4591,2.479,2.4591,2.4591,2.4775,2.4375,2.4303,2.4478,2.4284,2.419,2.419,2.419,2.419,2.419,2.419,2.419,2.4209,2.4409,2.4357,2.4266,0.0,0.0,0.0,0.0,0.0,0.0,0.0,0.2653,0.2795,0.288,0.2852,0.2852,0.2887,0.3021,0.3235,0.3567,0.3549,0.0,0.0,0.0,0.0,0.0,0.0,0.0,0.0,0.0,0.0,0.4493,0.4898,0.0,0.0,0.0,0.0,0.0,0.0,0.0,0.0,0.0,0.0,0.0,0.0,0.0,0.0,0.0,0.0,0.0,0.0,0.0,0.0,0.0,0.0,0.0,0.0,0.0,0.0,0.0,0.0,0.0,1.3022,1.3537,1.384,1.352,1.3366,1.3024,1.1986,1.1471,1.1005,1.0332,1.0206,1.0191,1.0194,1.0193,1.0393,1.0997,1.1307,0.0,0.0,0.0,0.0,1.7864,2.0286,2.2478,0.0,2.4812,2.5138,2.5138,2.5005,2.4943,2.4943,2.4855,2.4746,2.4607,2.4607,2.4639,2.47,2.47,2.4746,2.4804,2.4731,2.4746,2.4804,2.467,2.4639,2.47,2.4639,2.4607,2.4607,2.4607,2.4607,2.4607,2.4607,2.4607,2.4607,2.4685,2.467,2.4623,0.0,0.0,0.0,0.0,0.0,0.0,0.0,0.2355,0.2558,0.2702,0.2722,0.2769,0.2878,0.3088,0.3344,0.3637,0.3705,0.0,0.0,0.0,0.0,0.0,0.0,0.0,0.0,0.0,0.4067,0.4862,0.5364,0.5854,0.6326,0.0,0.0,0.0,0.0,0.0,0.0,0.0,0.0,0.0,0.0,0.0,0.0,0.0,0.0,0.0,0.0,0.0,0.0,0.0,0.0,0.0,0.0,0.0,0.0,0.0,1.0578,1.12,0.0,1.2506,1.2699,1.2709,1.2396,1.1957,1.1508,1.1091,1.0703,1.0298,1.0203,1.0193,1.0194,1.019,1.0383,1.0927,1.1288,1.1988,0.0,0.0,0.0,1.846,0.0,0.0,2.4678,2.512,2.5303,2.5303,2.5173,2.5111,2.5111,2.5056,2.5032,2.5032,2.4874,2.4814,2.4864,2.4883,2.4923,2.4994,2.4923,2.4923,2.4975,2.4861,2.4828,2.4864,2.4814,2.4804,0.0,2.4804,2.4804,2.4804,2.4804,2.4804,2.4804,2.4855,2.4842,2.4818,0.0,0.0,0.0,0.0,0.0,0.0,0.0,0.2035,0.2285,0.2578,0.2617,0.2695,0.2898,0.3209,0.3508,0.3781,0.0,0.0,0.0,0.0,0.0,0.0,0.0,0.0,0.0,0.3736,0.4169,0.4914,0.5847,0.6352,0.642,0.7109,0.6597,0.0,0.0,0.0,0.0,0.0,0.0,0.0,0.0,0.0,0.0,0.0,0.0,0.0,0.0,0.0,0.0,0.0,0.0,0.0,0.0,0.0,0.0,0.0,0.0,0.0,0.0,1.1949,1.253,1.2526,1.192,1.131,1.1316,1.0733,0.0,1.0194,1.0198,1.0212,1.0272,1.0231,1.0233,1.0367,1.1066,1.1905,0.0,1.444,0.0,0.0,2.1216,2.235,2.4033,2.4889,2.5303,2.5303,2.5303,2.5303,2.5303,2.537,2.5418,2.5409,2.5043,2.4904,2.5022,2.5041,2.513,2.5303,2.513,2.513,2.5303,2.4994,2.491,2.503,2.4896,2.4847,2.4847,2.4847,2.4847,2.4847,2.4847,2.4847,2.4842,2.4993,2.4943,2.4888,0.0,0.0,0.0,0.0,0.0,0.0,0.0,0.0,0.0,0.0,0.275,0.2826,0.3037,0.326,0.3504,0.0,0.0,0.0,0.0,0.0,0.0,0.0,0.0,0.0,0.0,0.3736,0.4523,0.6032,0.6372,0.7175,0.8411,0.7875,0.7122,0.6195,0.5398,0.0,0.0,0.0,0.0,0.0,0.0,0.0,0.0,0.0,0.0,0.0,0.8386,0.8894,0.0,0.0,0.0,0.0,0.0,0.0,0.0,0.0,1.0208,1.0232,1.0449,0.0,1.0796,1.0787,1.0641,1.0483,0.0,1.0344,1.0207,1.0202,0.0,1.0391,1.1005,1.061,1.0617,1.1891,1.2322,1.2784,1.3597,1.6341,0.0,2.2034,2.3124,2.4032,2.5063,2.5332,2.5447,2.5447,2.5447,2.5447,2.5447,2.5466,2.5473,2.5473,2.5383,2.5352,2.5388,2.5378,2.5417,2.5447,2.5417,2.5417,2.5447,2.5367,2.5346,2.5378,2.5346,2.5335,2.5335,2.5335,2.5316,2.5258,2.5258,2.5228,2.5201,2.5214,2.5241,2.5258,0.0,0.0,0.0,0.0,0.0,0.0,0.0,0.0,0.0,0.0,0.0,0.0,0.0,0.0,0.0,0.0,0.0,0.0,0.0,0.0,0.0,0.0,0.0,0.0,0.0,0.3918,0.4825,0.6441,0.6672,0.7562,0.9043,0.8562,0.7727,0.6587,0.5207,0.0,0.0,0.0,0.0,0.0,0.0,0.0,0.0,0.0,0.0,0.0,0.7789,0.8444,0.0,0.989,1.0192,1.0203,0.0,0.0,0.0,0.0,1.0194,1.0208,1.0193,1.0195,1.0201,1.0205,1.0194,1.0198,1.0195,0.0,0.0,0.0,0.0,0.0,0.0,0.0,1.1056,1.1968,1.2813,1.391,0.0,0.0,2.059,2.2751,2.3767,2.4626,2.5418,2.5488,2.5488,2.5488,2.5488,2.5488,2.5488,2.5532,2.5551,2.5549,2.5574,2.5554,2.5495,2.5488,2.5488,2.5488,2.5488,2.5488,2.5488,2.5488,2.5488,2.5488,2.5488,2.5488,2.5488,2.5488,2.5468,2.5441,2.5456,2.5428,2.539,2.539,2.5409,2.5447,0.0,0.0,0.0,0.0,0.0,0.0,0.0,0.0,0.0,0.0,0.0,0.0,0.0,0.0,0.0,0.0,0.0,0.0,0.0,0.0,0.0,0.0,0.0,0.0,0.4054,0.4208,0.5039,0.658,0.6854,0.7635,0.8903,0.9029,0.8228,0.6619,0.5007,0.0,0.0,0.0,0.0,0.0,0.0,0.0,0.0,0.0,0.0,0.0,0.0,0.0,0.0,0.9856,1.02,1.0193,1.0191,0.0,0.0,0.0,0.0,0.0,1.0209,1.0192,1.0204,1.0208,1.0198,1.0206,1.0192,0.0,0.0,0.0,0.0,0.0,0.0,1.1036,0.0,0.0,0.0,0.0,1.7753,1.9492,2.1149,2.2828,2.378,2.4635,2.5442,2.5539,2.5539,2.5539,2.5539,2.5539,2.5539,2.5576,2.5627,2.563,2.5667,2.5656,2.5539,2.5539,2.5539,2.5539,2.5539,2.5539,2.5539,2.5539,2.5539,2.5539,2.5539,2.5539,2.5539,2.5539,2.552,2.5526,2.5519,2.5504,2.5504,2.5504,2.5515,2.5524,0.0,0.0,0.0,0.0,0.0,0.0,0.0,0.0,0.0,0.0,0.0,0.0,0.0,0.0,0.0,0.0,0.0,0.0,0.0,0.0,0.0,0.0,0.0,0.4234,0.5215,0.4573,0.5109,0.6921,0.6919,0.7422,0.842,0.8881,0.8214,0.6571,0.5624,0.0,0.0,0.0,0.0,0.0,0.0,0.0,0.0,0.0,0.0,0.0,0.0,0.0,0.0,0.9673,1.0195,1.019,1.0203,0.0,0.0,0.0,0.0,0.0,1.0225,1.0193,1.0208,1.0203,1.02,1.0206,1.0192,0.0,0.0,0.0,0.0,0.0,0.0,1.1866,1.2179,0.0,0.0,1.6852,0.0,0.0,2.1211,2.2889,2.3846,2.4725,2.5584,2.5662,2.5662,2.5662,2.5662,2.5662,2.5662,2.5677,2.5675,2.5678,2.5699,2.5681,2.5662,2.5662,2.5662,2.5662,2.5662,2.5662,2.5662,2.5662,2.5662,2.5662,2.5662,2.5662,2.5662,2.5662,2.5642,2.5581,2.5589,2.5554,2.5496,2.5496,2.5541,2.559,0.0,0.0,0.0,0.0,0.0,0.0,0.0,0.0,0.0,0.0,0.0,0.0,0.0,0.0,0.0,0.0,0.0,0.0,0.0,0.0,0.0,0.0,0.4022,0.4523,0.5377,0.5204,0.5951,0.765,0.7727,0.8177,0.8924,0.8275,0.7535,0.6696,0.5436,0.4673,0.0,0.0,0.0,0.0,0.0,0.0,0.0,0.0,0.0,0.0,0.0,0.0,0.0,0.0,0.9804,1.0199,1.0191,0.0,0.0,0.0,0.0,0.0,1.0212,1.0208,1.0198,1.0193,1.021,1.0314,1.0799,0.0,0.0,0.0,0.0,0.0,0.0,0.0,1.3513,1.5568,0.0,1.8271,1.9038,2.0365,2.1523,2.2305,2.3164,2.4043,2.4902,2.5,2.5195,2.5664,2.5703,2.5703,2.5703,2.5675,2.5661,2.5706,2.5625,2.5616,2.5648,2.5613,2.5633,2.5703,2.5703,2.5689,2.5648,2.5648,2.5655,2.5644,2.5644,2.5664,2.5703,2.5703,2.5684,2.5644,2.5654,2.5644,2.5592,2.5572,2.5605,2.5656,0.0,0.0,0.0,0.0,0.0,0.0,0.0,0.0,0.0,0.0,0.0,0.0,0.0,0.0,0.0,0.0,0.0,0.0,0.0,0.0,0.3898,0.3996,0.4484,0.5061,0.5701,0.5829,0.6676,0.8273,0.8403,0.8818,0.9464,0.7988,0.7176,0.6859,0.5391,0.0,0.0,0.0,0.0,0.0,0.0,0.0,0.0,0.0,0.0,0.0,0.0,0.0,0.0,0.0,0.0,0.0,0.0,0.0,0.0,1.0194,1.0205,1.0215,1.0196,1.0195,1.0205,1.0198,0.0,1.0425,1.1284,0.0,0.0,0.0,0.0,0.0,0.0,1.4058,0.0,1.6868,1.8454,1.9471,1.9408,2.0627,2.1593,2.1797,2.2402,2.3164,2.4023,2.4297,2.4687,2.5352,2.5586,2.5703,2.5703,2.5641,2.5631,2.5679,2.5563,2.5512,2.5582,2.5529,2.5546,2.5659,2.5659,2.5625,2.5569,2.5572,2.5575,2.5583,2.5577,2.56,2.5659,2.5663,2.5684,2.5684,2.5684,2.5699,2.5668,2.5619,2.5622,2.5646,0.0,0.0,0.0,0.0,0.0,0.0,0.0,0.0,0.0,0.0,0.0,0.0,0.0,0.0,0.0,0.0,0.0,0.0,0.0,0.0,0.4066,0.4265,0.5242,0.6167,0.6943,0.6263,0.6737,0.8477,0.8424,0.878,0.9482,0.861,0.7773,0.6953,0.0,0.0,0.0,0.0,0.0,0.0,0.0,0.0,0.0,0.0,0.0,0.0,0.0,0.0,0.0,0.0,0.0,0.0,0.0,0.0,1.0209,1.0208,1.0234,1.027,1.0222,1.0195,1.0195,1.0198,1.0198,0.0,1.1227,1.1462,0.0,1.2532,0.0,0.0,0.0,1.594,1.7907,1.8776,1.9761,2.0377,2.0327,2.0523,2.0981,2.1795,2.1953,2.2324,2.3203,2.3965,2.4434,2.4492,2.5234,2.5703,2.5703,2.5641,2.5601,2.5619,2.5538,2.5493,2.5505,2.5505,2.5492,2.5503,2.5503,2.5513,2.5512,2.5509,2.5505,2.5513,2.5504,2.5503,2.5511,2.558,2.5605,2.5605,2.5684,2.5664,2.561,2.5601,2.5572,2.5526,0.0,0.0,0.0,0.0,0.0,0.0,0.0,0.0,0.0,0.0,0.0,0.0,0.0,0.0,0.0,0.0,0.0,0.0,0.0,0.0,0.4228,0.4301,0.485,0.5535,0.6334,0.7036,0.7921,0.8999,0.9048,0.926,0.9589,0.8196,0.7403,0.0,0.0,0.0,0.0,0.0,0.0,0.0,0.0,0.0,0.0,0.0,0.0,0.0,0.0,0.0,0.0,0.0,0.85,0.9102,0.0,0.0,1.0208,1.0202,1.0257,1.0293,1.0211,1.0598,1.0884,1.0333,1.1007,0.0,0.0,1.2719,1.3512,1.4902,1.5601,0.0,0.0,0.0,1.8839,1.9057,1.9841,2.0408,2.035,2.0412,2.0594,2.0921,2.105,2.1426,2.2305,2.312,2.382,2.4355,2.5176,2.5664,2.5703,2.5609,2.5557,2.5611,2.5462,2.5404,2.5447,2.5409,2.5379,2.5387,2.5464,2.5484,2.5445,2.5428,2.5447,2.5428,2.5451,2.5464,2.5492,2.5525,2.5547,2.5548,2.557,2.5561,2.5524,2.5484,2.5486,2.5495,0.0,0.0,0.0,0.0,0.0,0.0,0.0,0.0,0.0,0.0,0.0,0.0,0.0,0.0,0.0,0.0,0.0,0.0,0.0,0.0,0.4347,0.4353,0.4837,0.5351,0.5895,0.7216,0.8265,0.8975,0.9339,0.9542,0.9615,0.8203,0.0,0.0,0.0,0.0,0.0,0.0,0.0,0.0,0.0,0.0,0.0,0.0,0.0,0.0,0.0,0.0,0.0,0.0,0.7831,0.0,0.0,0.0,0.0,0.0,1.0252,1.0281,1.0234,1.0648,1.1014,0.0,0.0,0.0,1.3053,1.388,1.4923,1.6393,1.7138,0.0,1.8241,0.0,0.0,1.9473,2.0057,2.0446,2.0369,2.0424,2.0458,2.0464,2.0541,2.082,2.1426,2.2247,2.3073,2.3956,2.4779,2.5352,2.5684,2.5588,2.5551,2.5592,2.5428,2.5341,2.5409,2.5322,2.5303,2.5303,2.539,2.5409,2.537,2.537,2.537,2.537,2.537,2.539,2.5447,2.5466,2.549,2.5499,2.5499,2.5499,2.546,2.5416,2.5428,2.5466,0.0,0.0,0.0,0.0,0.0,0.0,0.0,0.0,0.0,0.0,0.0,0.0,0.0,0.0,0.0,0.0,0.0,0.0,0.0,0.4218,0.443,0.4502,0.5459,0.5952,0.5882,0.6676,0.7486,0.8296,0.9094,0.949,0.9472,0.8803,0.0,0.0,0.0,0.0,0.0,0.0,0.0,0.0,0.0,0.0,0.0,0.0,0.0,0.0,0.0,0.0,0.0,0.0,0.6971,0.7847,0.0,0.0,0.0,0.0,1.0258,1.0299,1.0307,1.0264,1.0418,0.0,0.0,0.0,1.3609,1.4742,1.565,1.6546,1.6731,1.7266,1.8984,1.8608,0.0,2.023,2.0565,2.057,2.0512,2.057,2.0603,2.0603,2.0605,2.0605,2.0605,2.1387,2.2252,2.3112,2.3922,2.4766,2.5625,2.5605,2.5587,2.5592,2.5466,2.539,2.5409,2.5322,2.5303,2.5303,2.5303,2.5303,2.5303,2.5303,2.5303,2.5303,2.5303,2.5303,2.5303,2.537,2.5447,2.5505,2.5505,2.5466,2.5409,2.5409,2.5409,2.5409,0.0,0.0,0.0,0.0,0.0,0.0,0.0,0.0,0.0,0.0,0.0,0.0,0.0,0.0,0.0,0.0,0.0,0.0,0.0,0.4336,0.4494,0.4559,0.4894,0.507,0.5061,0.5759,0.6549,0.745,0.8366,0.8803,0.0,0.0,0.0,0.8461,0.0,0.0,0.0,0.0,0.0,0.0,0.0,0.0,0.0,0.0,0.0,0.0,0.0,0.0,0.0,0.0,0.0,0.0,0.0,0.0,0.0,1.0036,1.0251,1.0292,1.0229,1.0656,0.0,1.1443,0.0,0.0,0.0,1.5206,0.0,0.0,1.9449,1.959,2.0059,1.9972,0.0,2.0353,2.0494,2.0503,2.0449,2.0495,2.053,2.0538,2.0579,2.0605,2.0605,2.1348,2.1969,2.2269,2.3032,2.3607,2.3867,2.3848,2.4098,2.4673,2.456,2.4775,2.539,2.5322,2.5303,2.5303,2.5303,2.5303,2.5303,2.5303,2.5303,2.5303,2.5303,2.5303,2.5303,2.5322,2.5341,2.537,2.537,2.5341,2.5322,2.5322,2.5322,2.5322,0.0,0.0,0.0,0.0,0.0,0.0,0.0,0.0,0.0,0.0,0.0,0.0,0.0,0.0,0.0,0.0,0.0,0.0,0.0,0.0,0.4547,0.4557,0.4648,0.4675,0.4616,0.5383,0.587,0.6061,0.7263,0.0,0.0,0.0,0.0,0.8498,0.0,0.8044,0.0,0.0,0.0,0.0,0.5575,0.5247,0.5286,0.0,0.0,0.0,0.0,0.0,0.0,0.0,0.0,0.0,0.0,0.0,0.0,0.947,0.9758,0.9844,1.0112,1.0845,0.0,1.1935,1.3006,1.4224,1.5273,0.0,0.0,0.0,2.0312,2.0176,2.0488,2.0293,2.0175,2.0445,2.0502,2.0526,2.0484,2.0515,2.0551,2.0551,2.0586,2.0605,2.0605,2.1035,2.1484,2.1875,2.236,2.2749,2.3086,2.3105,2.332,2.3809,2.4054,2.4424,2.4908,2.5207,2.5322,2.5303,2.5322,2.5341,2.5341,2.5303,2.5303,2.5303,2.5303,2.5303,2.5303,2.5303,2.5303,2.5303,2.5303,2.5303,2.5303,2.5303,2.5322,2.539,0.0,0.0,0.0,0.0,0.0,0.0,0.0,0.0,0.0,0.0,0.0,0.0,0.0,0.0,0.0,0.0,0.0,0.0,0.0,0.0,0.4557,0.4501,0.4615,0.4634,0.4502,0.534,0.5363,0.4502,0.6052,0.0,0.0,0.0,0.8413,0.8644,0.0,0.9147,0.0,0.0,0.0,0.0,0.6203,0.5887,0.5901,0.5968,0.0,0.0,0.0,0.0,0.0,0.0,0.0,0.0,0.6381,0.6952,0.7771,0.8719,0.9005,0.9171,0.9987,0.0,0.0,1.2578,1.341,0.0,1.7119,1.78,1.8397,2.0137,0.0,1.9648,2.0449,1.9941,1.9687,2.0469,2.0605,2.0605,2.0605,2.0605,2.0605,2.0605,2.0605,2.0605,2.0605,2.0605,2.0937,2.1719,2.1777,2.2109,2.2832,2.2871,2.291,2.2988,2.3691,2.4124,2.4214,2.4918,2.5284,2.5322,2.537,2.5399,2.5399,2.5341,2.5303,2.5303,2.5303,2.5303,2.5303,2.5303,2.5303,2.5303,2.5303,2.5303,2.5303,2.5303,2.539,2.5466,0.0,0.0,0.0,0.0,0.0,0.0,0.0,0.0,0.0,0.0,0.0,0.0,0.0,0.0,0.0,0.0,0.0,0.0,0.0,0.0,0.4453,0.4496,0.4527,0.4532,0.4506,0.4697,0.4697,0.4506,0.5588,0.0,0.0,0.0,0.0,0.9423,0.0,0.8321,0.0,0.0,0.0,0.5314,0.5127,0.5085,0.5138,0.5216,0.5143,0.0,0.0,0.0,0.0,0.0,0.0,0.0,0.6191,0.6521,0.6982,0.8543,0.9003,0.9179,0.9987,1.0837,0.0,0.0,1.3835,1.5253,1.6509,1.7323,1.8338,2.0134,2.0352,2.0312,2.0566,2.0449,2.0371,2.0566,2.0605,2.0605,2.0605,2.0605,2.0605,2.0605,2.0605,2.0605,2.0605,2.0605,2.0684,2.0879,2.0879,2.0957,2.1133,2.1133,2.1445,2.2148,2.2266,2.2967,2.4278,2.4346,2.4735,2.5466,2.5428,2.5432,2.5479,2.5415,2.5341,2.5303,2.5303,2.5303,2.5303,2.5303,2.5303,2.5303,2.5303,2.5303,2.5303,2.537,2.537,2.5361,0.0,0.0,0.0,0.0,0.0,0.0,0.0,0.0,0.0,0.0,0.0,0.0,0.0,0.0,0.0,0.0,0.0,0.0,0.0,0.0,0.442,0.4496,0.4509,0.4471,0.4409,0.4465,0.4487,0.4448,0.0,0.0,0.0,0.0,0.0,0.911,0.0,0.8045,0.0,0.0,0.5754,0.5369,0.5413,0.5441,0.5476,0.5557,0.5338,0.5001,0.5034,0.0,0.0,0.0,0.0,0.0,0.0,0.0,0.6113,0.7875,0.8379,0.8651,0.9862,0.0,0.0,1.2982,0.0,1.5426,1.6292,1.7151,1.8146,1.9534,2.0199,2.0527,2.0586,2.0605,2.0605,2.0605,2.0605,2.0605,2.0605,2.0605,2.0605,2.0605,2.0605,2.0605,2.0605,2.0605,2.0605,2.0605,2.0605,2.0605,2.0605,2.0605,2.0801,2.1269,2.1641,2.2246,2.3086,2.3457,2.3823,2.4265,2.4678,2.51,2.5547,2.5479,2.5428,2.539,2.537,2.5341,2.5341,2.5303,2.5303,2.5303,2.5303,2.5322,2.5341,2.539,2.5409,2.5409,0.0,0.0,0.0,0.0,0.0,0.0,0.0,0.0,0.0,0.0,0.0,0.0,0.0,0.0,0.0,0.0,0.0,0.0,0.0,0.4363,0.4443,0.4496,0.4493,0.4448,0.4334,0.4437,0.4475,0.0,0.0,0.0,0.0,0.0,0.0,0.8699,0.0,0.0,0.0,0.0,0.5923,0.5795,0.5867,0.5893,0.5923,0.5967,0.5584,0.5024,0.5024,0.5059,0.5097,0.5097,0.0,0.0,0.0,0.0,0.5674,0.7402,0.7812,0.8065,0.9748,0.0,1.2068,1.3522,1.4555,0.0,1.6118,1.6907,1.7766,1.8686,1.9718,2.0486,2.0566,2.0586,2.0586,2.0605,2.0605,2.0605,2.0605,2.0605,2.0605,2.0605,2.0605,2.0605,2.0605,2.0605,2.0605,2.0605,2.0605,2.0605,2.0605,2.0605,2.0605,2.0605,2.1309,2.1719,2.1816,2.2518,2.2901,2.2949,2.386,2.4682,2.5399,2.5492,2.5528,2.5493,2.5436,2.5408,2.5409,2.5341,2.5322,2.5322,2.5322,2.537,2.5428,2.5428,2.5457,2.5504,0.0,0.0,0.0,0.0,0.0,0.0,0.0,0.0,0.0,0.0,0.0,0.3751,0.3876,0.4012,0.0,0.0,0.0,0.0,0.4302,0.0,0.0,0.4496,0.4493,0.4499,0.4469,0.449,0.4522,0.0,0.0,0.0,0.0,0.0,0.0,0.9515,0.0,0.0,0.0,0.0,0.0,0.4966,0.503,0.5097,0.515,0.5163,0.5122,0.5091,0.5091,0.5093,0.5097,0.5097,0.5559,0.0,0.0,0.0,0.6566,0.8237,0.824,0.8059,0.0,0.0,1.2762,0.0,1.4555,1.5228,0.0,0.0,1.6901,0.0,1.9231,2.0363,2.0486,2.0508,2.0527,2.0586,2.0605,2.0605,2.0605,2.0605,2.0605,2.0605,2.0605,2.0605,2.0605,2.0605,2.0605,2.0605,2.0605,2.0605,2.0605,2.0605,2.0605,2.0605,2.0703,2.1133,2.1875,2.193,2.2345,2.3074,2.3973,2.4452,2.4588,2.5327,2.5612,2.5502,2.5482,2.5459,2.5409,2.5447,2.5447,2.539,2.5447,2.5486,2.5486,2.5543,2.5542,2.5523,0.0,0.0,0.0,0.0,0.0,0.0,0.0,0.0,0.0,0.0,0.0,0.3825,0.3991,0.4068,0.0,0.0,0.0,0.0,0.4302,0.4431,0.0,0.0,0.0,0.4509,0.4496,0.4607,0.4675,0.0,0.0,0.0,0.0,0.725,0.8124,0.0,0.0,0.0,0.0,0.0,0.0,0.5489,0.5109,0.526,0.568,0.5225,0.5358,0.5713,0.527,0.5097,0.5174,0.5616,0.6003,0.6388,0.6905,0.0,0.0,0.0,0.8339,0.0,0.9748,1.106,1.218,0.0,1.3843,1.4593,1.5093,1.5868,1.6734,1.7574,1.8718,1.9753,2.0337,2.0435,2.0443,2.0482,2.0482,2.0482,2.0482,2.0522,2.0547,2.0547,2.0586,2.0605,2.0605,2.0605,2.0605,2.0605,2.0605,2.0605,2.0605,2.0605,2.0605,2.0605,2.0605,2.0781,2.1172,2.1133,2.1572,2.2434,2.2777,2.3454,2.4414,2.4805,2.5183,2.5553,2.557,2.5522,2.5466,2.5486,2.5473,2.5459,2.5485,2.5526,2.5563,2.5582,2.5583,2.5564,0.0,0.0,0.0,0.0,0.0,0.0,0.0,0.0,0.0,0.0,0.0,0.0,0.4102,0.0,0.0,0.0,0.0,0.0,0.4338,0.0,0.0,0.0,0.0,0.0,0.4547,0.4705,0.0,0.0,0.0,0.0,0.7302,0.7291,0.8131,0.0,0.903,0.0,0.0,0.0,0.0,0.0,0.0,0.567,0.622,0.5851,0.6075,0.6521,0.5941,0.5734,0.583,0.6432,0.6776,0.7078,0.7719,0.7331,0.0,0.0,0.0,0.0,0.0,0.0,1.1545,1.2185,1.3127,1.4069,0.0,0.0,1.6407,1.7234,1.7914,1.8703,1.985,2.0231,2.0381,2.04,2.04,2.04,2.04,2.0435,2.0472,2.0463,2.0527,2.0566,2.0566,2.0586,2.0605,2.0605,2.0605,2.0605,2.0605,2.0605,2.0605,2.0605,2.0605,2.0605,2.0605,2.0605,2.0937,2.1562,2.1741,2.2512,2.3789,2.4219,2.4715,2.5277,2.5504,2.5571,2.5509,2.5519,2.5518,2.5493,2.5543,2.5576,2.5619,2.5619,2.5632,2.5625,0.0,0.0,0.0,0.0,0.0,0.0,0.0,0.0,0.0,0.0,0.0,0.0,0.0,0.0,0.0,0.0,0.0,0.0,0.0,0.0,0.0,0.0,0.0,0.0,0.0,0.0,0.0,0.0,0.0,0.0,0.7308,0.7302,0.8091,0.9508,0.9472,0.8676,0.7353,0.0,0.0,0.0,0.0,0.0,0.6207,0.7057,0.7392,0.7441,0.7467,0.7469,0.7471,0.7521,0.8088,0.8768,0.8816,0.8226,0.7883,0.0,0.0,0.0,0.0,1.0787,0.0,1.1374,1.2654,0.0,0.0,0.0,1.5503,1.6388,1.6599,1.7138,1.8766,1.9754,2.0327,2.0385,2.0404,2.0404,2.0404,2.0392,2.0405,2.0406,2.0456,2.0508,2.0508,2.0566,2.0605,2.0605,2.0605,2.0605,2.0605,2.0605,2.0605,2.0605,2.0605,2.0605,2.0605,2.0605,2.0625,2.0684,2.1503,2.1933,2.207,2.3672,2.4394,2.4411,2.524,2.5557,2.5489,2.5572,2.5566,2.5503,2.5636,2.5683,2.5683,2.5683,2.5683,2.5703,0.0,0.0,0.0,0.0,0.0,0.0,0.0,0.0,0.0,0.0,0.0,0.0,0.0,0.0,0.0,0.0,0.0,0.0,0.0,0.0,0.0,0.0,0.0,0.0,0.0,0.0,0.0,0.0,0.0,0.5484,0.6534,0.7057,0.7585,0.8128,0.9169,0.9281,0.8686,0.8198,0.0,0.0,0.0,0.0,0.0,0.757,0.7875,0.8336,0.7787,0.7603,0.768,0.8239,0.8636,0.8998,0.9502,0.8722,0.7726,0.8405,0.8963,0.0,0.0,0.0,0.0,1.1172,1.1791,1.2565,1.3564,1.4092,1.4766,1.6195,1.6503,1.683,1.7965,1.8869,1.9658,2.0235,2.035,2.035,2.035,2.035,2.0335,2.0347,2.0402,2.0457,2.0507,2.0476,2.051,2.0586,2.0566,2.0547,2.0605,2.0605,2.0605,2.0605,2.0605,2.0605,2.0605,2.0605,2.0605,2.0605,2.0918,2.1367,2.1914,2.2519,2.3066,2.3574,2.4408,2.506,2.5561,2.5635,2.5658,2.5634,2.5683,2.5703,2.5703,2.5703,2.5703,2.5703,0.0,0.0,0.0,0.0,0.0,0.0,0.0,0.0,0.0,0.0,0.0,0.0,0.0,0.0,0.0,0.0,0.0,0.0,0.0,0.0,0.0,0.0,0.0,0.0,0.0,0.0,0.0,0.0,0.0,0.0,0.0,0.6645,0.7012,0.7293,0.8406,0.9001,0.0,0.0,0.0,0.8445,0.0,0.0,0.8606,0.8371,0.8656,0.9125,0.8574,0.8368,0.8467,0.9034,0.9252,0.9371,0.9929,0.9344,0.8421,0.82,0.8709,0.0,1.0027,0.0,0.0,0.0,0.0,1.1643,1.2716,1.3442,1.4188,1.5351,1.5811,1.6253,1.7078,1.774,1.853,1.9669,1.9869,1.9965,2.0254,2.0312,2.0312,2.0312,2.035,2.0392,2.0461,2.0453,2.0472,2.055,2.0531,2.0501,2.0537,2.0546,2.0586,2.0605,2.0605,2.0605,2.0605,2.0605,2.0605,2.0605,2.0605,2.0898,2.1465,2.1777,2.2187,2.2754,2.3867,2.4642,2.5182,2.5532,2.5665,2.5665,2.5681,2.5703,2.5703,2.5703,2.5703,2.5703,0.0,0.0,0.0,0.0,0.0,0.0,0.0,0.0,0.0,0.3589,0.0,0.0,0.0,0.0,0.0,0.0,0.0,0.4636,0.4601,0.0,0.0,0.0,0.0,0.0,0.0,0.0,0.0,0.0,0.0,0.0,0.0,0.0,0.6442,0.7079,0.722,0.7739,0.8454,0.0,0.8363,0.8534,0.0,0.8516,0.8615,0.946,0.9791,0.9805,0.9863,0.9893,0.9899,0.9892,0.9948,1.0006,1.0052,1.0106,1.0019,0.9231,0.955,0.0,0.0,0.0,0.0,0.0,0.0,0.0,1.1291,0.0,1.3742,1.3799,1.4416,1.5224,1.6094,1.6366,1.7003,1.8669,1.8965,1.93,2.0139,2.0292,2.0312,2.0312,2.0312,2.0331,2.0389,2.0455,2.048,2.0504,2.0493,2.0469,2.0398,2.0458,2.0527,2.0586,2.0605,2.0605,2.0605,2.0605,2.0605,2.0605,2.0605,2.0605,2.0625,2.1484,2.1855,2.1953,2.3633,2.4336,2.4335,2.5233,2.5611,2.5618,2.5679,2.5703,2.5703,2.5703,2.5703,2.5703,0.0,0.0,0.0,0.0,0.0,0.0,0.342,0.356,0.3703,0.0,0.0,0.0,0.0,0.0,0.0,0.0,0.0,0.5294,0.4702,0.4666,0.4675,0.4706,0.4749,0.4757,0.0,0.0,0.0,0.0,0.0,0.0,0.0,0.0,0.0,0.0,0.6953,0.7379,0.7629,0.7598,0.0,0.9313,0.8736,0.8828,0.0,0.9574,0.968,0.9735,0.9737,0.9825,0.9893,0.991,0.9941,0.9915,0.9401,0.9253,0.9209,0.8989,0.9082,0.0,0.9887,0.0,0.0,0.0,0.0,0.0,0.0,1.1667,1.2349,1.3551,1.3984,1.4379,1.5205,1.5465,1.5926,1.7003,1.8222,1.9088,1.9323,1.99,2.0312,2.0312,2.0312,2.0312,2.0331,2.0347,2.0374,2.0415,2.0392,2.0373,2.0404,2.0458,2.0508,2.0527,2.0566,2.0605,2.0605,2.0605,2.0605,2.0605,2.0605,2.0605,2.0605,2.0859,2.0957,2.1055,2.2773,2.3516,2.3613,2.5063,2.5673,2.5676,2.5681,2.5703,2.5703,2.5703,2.5703,2.5703,0.0,0.0,0.0,0.0,0.0,0.3841,0.3983,0.4094,0.4347,0.0,0.0,0.0,0.0,0.0,0.0,0.0,0.0,0.0,0.4799,0.4745,0.4757,0.4789,0.4793,0.4793,0.4793,0.0,0.0,0.0,0.0,0.0,0.0,0.0,0.0,0.5484,0.601,0.6429,0.6746,0.6422,0.0,0.0,0.8986,0.0,0.9547,0.9506,0.9504,0.9534,0.9534,0.9621,0.9738,0.9738,0.9819,0.9862,0.9507,0.9399,0.9409,0.943,0.9428,0.0,0.0,0.0,0.0,0.0,0.0,0.0,1.0636,1.1005,1.1497,1.243,1.2918,1.3425,1.4236,1.4518,1.4884,1.5747,1.7041,1.8061,1.8407,1.9215,1.9754,1.9754,2.0081,2.0312,2.0312,2.0312,2.0318,2.0363,2.0313,2.0331,2.0369,2.04,2.0443,2.0508,2.0547,2.0566,2.0605,2.0605,2.0605,2.0605,2.0605,2.0605,2.0605,2.0605,2.0605,2.0703,2.2441,2.3203,2.332,2.5019,2.5703,2.5703,2.5703,2.5703,2.5703,2.5703,2.5703,2.5703,0.0,0.0,0.2795,0.3055,0.3799,0.4498,0.4867,0.4968,0.5318,0.0,0.5838,0.0,0.0,0.0,0.0,0.0,0.0,0.0,0.4994,0.4848,0.482,0.488,0.4827,0.482,0.488,0.4824,0.0,0.0,0.0,0.0,0.0,0.0,0.0,0.4718,0.4842,0.5268,0.5855,0.5368,0.6399,0.8386,0.899,0.9329,0.9456,0.9331,0.9284,0.9284,0.9284,0.9412,0.9627,0.9725,0.9882,1.0044,1.0164,1.0212,1.0216,1.0179,1.0121,0.0,0.0,0.0,0.0,0.0,1.0031,0.0,1.002,1.0569,1.1084,1.102,1.1644,1.2427,1.3233,1.355,1.3921,1.4627,1.5575,1.6522,1.7446,1.8318,1.8857,1.8857,1.9542,2.0004,2.0004,2.0004,2.0062,2.0158,2.0254,2.0312,2.0312,2.0312,2.0377,2.0483,2.0507,2.0547,2.0605,2.0605,2.0605,2.0605,2.0605,2.0605,2.0605,2.0605,2.0605,2.0684,2.2344,2.3105,2.3301,2.4902,2.5605,2.5703,2.5703,2.5703,2.5703,2.5703,2.5703,2.5703,0.0,0.2635,0.2843,0.3064,0.3333,0.4166,0.603,0.6583,0.6732,0.6567,0.0,0.0,0.0,0.0,0.0,0.0,0.0,0.0,0.5832,0.5163,0.4797,0.4812,0.4801,0.4797,0.4812,0.4797,0.4793,0.0,0.0,0.0,0.0,0.0,0.0,0.0,0.4827,0.4967,0.5276,0.6371,0.0,0.7391,0.7513,0.8275,0.9331,0.9179,0.9129,0.9129,0.9129,0.9602,1.0351,1.1163,1.146,1.1424,1.1042,1.0909,1.0789,1.0137,0.9942,0.9936,0.9875,0.9863,0.0,0.9857,1.0438,0.0,1.0168,1.0611,1.1188,1.1163,1.1295,1.1673,1.2539,1.2825,1.2973,1.3122,1.3857,1.4939,1.6503,1.7452,1.7953,1.7953,1.81,1.8215,1.8215,1.8215,1.8504,1.9203,1.9908,2.0312,2.0312,2.035,2.0388,2.0418,2.0521,2.0586,2.0605,2.0605,2.0605,2.0605,2.0605,2.0605,2.0605,2.0605,2.0605,2.0664,2.1699,2.2519,2.3203,2.4238,2.5078,2.5703,2.5703,2.5703,2.5703,2.5703,2.5703,2.5703,0.0,0.2625,0.288,0.2981,0.3809,0.4834,0.5981,0.7058,0.7736,0.0,0.0,0.0,0.0,0.0,0.0,0.0,0.0,0.0,0.6088,0.5625,0.5235,0.486,0.4846,0.5042,0.544,0.506,0.503,0.5401,0.0,0.0,0.0,0.0,0.0,0.0,0.5506,0.5781,0.6241,0.0,0.7539,0.7874,0.8105,0.8594,0.9179,0.9047,0.9241,0.9555,0.9555,1.0117,1.089,1.1087,1.1455,1.1719,1.102,1.1115,1.1335,1.0505,1.0223,1.0131,0.9826,0.972,0.9824,1.0317,1.0502,0.0,0.0,1.0527,1.0665,1.1074,1.0829,1.0942,1.2217,1.2196,1.2254,1.3017,1.3576,1.4192,1.5044,1.6285,1.7099,1.7099,1.7472,1.7702,1.7702,1.7702,1.7876,1.8318,1.9165,1.9638,1.9638,2.01,2.0376,2.0404,2.0471,2.0537,2.0605,2.0605,2.0605,2.0605,2.0605,2.0605,2.0605,2.0605,2.0605,2.0644,2.1523,2.2129,2.2597,2.3832,2.4631,2.5098,2.5527,2.5703,2.5703,2.5703,2.5703,2.5703,0.0,0.2691,0.2953,0.2969,0.4192,0.535,0.5952,0.7344,0.8468,0.0,0.0,0.0,0.0,0.0,0.0,0.0,0.0,0.0,0.6533,0.6301,0.5965,0.5391,0.5208,0.5424,0.6075,0.5294,0.5164,0.5772,0.0,0.0,0.0,0.4771,0.52,0.5939,0.0,0.0,0.0,0.0,0.0,0.8545,0.908,0.9228,0.9119,0.8968,0.9354,1.0035,1.0339,1.0893,1.1437,1.1122,1.1512,1.199,1.118,1.1434,1.1887,1.1037,1.0733,1.0606,1.0153,0.9992,1.0122,1.0829,1.0632,1.0364,0.0,0.0,0.0,1.079,1.037,1.032,1.1699,1.1456,1.1468,1.2726,1.3182,1.3388,1.3335,1.4731,1.583,1.5984,1.6715,1.7215,1.7215,1.7215,1.7292,1.7465,1.8126,1.8588,1.8742,1.9439,1.9947,2.0158,2.0184,2.0328,2.0605,2.0605,2.0605,2.0605,2.0605,2.0605,2.0605,2.0605,2.0605,2.0644,2.1348,2.1738,2.201,2.3468,2.4199,2.4499,2.5351,2.5684,2.5703,2.5703,2.5703,2.5703,0.313,0.3124,0.3118,0.3238,0.3425,0.4484,0.7234,0.8309,0.8846,0.0,0.0,0.0,0.0,0.0,0.9359,0.0,0.8549,0.8112,0.8051,0.7374,0.699,0.7033,0.6292,0.5914,0.6006,0.5231,0.4856,0.4939,0.484,0.0,0.0,0.4793,0.5257,0.6071,0.6101,0.0,0.0,0.0,0.8287,0.8223,0.8993,0.9303,0.9237,0.9001,0.9354,1.017,1.1553,1.2109,1.229,1.3001,1.3318,1.3278,1.2648,1.2512,1.2454,1.1647,1.1394,1.1376,1.1306,1.1408,1.1391,1.0799,1.1341,1.1644,1.0245,0.0,1.0802,1.0236,0.0,0.999,1.0301,0.0,0.0,1.0464,1.1125,1.1603,1.1676,1.2502,1.3412,1.4113,1.4959,1.5484,1.5484,1.5484,1.5811,1.658,1.6734,1.7099,1.7818,1.8056,1.8536,1.9311,1.9389,1.9804,2.0586,2.0605,2.0605,2.0605,2.0605,2.0605,2.0605,2.0605,2.0605,2.0605,2.0703,2.1191,2.1971,2.2873,2.3698,2.4485,2.5291,2.5644,2.5703,2.5703,2.5703,2.5703,0.3281,0.3255,0.3645,0.4984,0.4341,0.4613,0.7467,0.8472,0.8835,0.0,0.0,0.0,0.9199,0.9255,0.9216,0.9023,0.8881,0.8567,0.804,0.7871,0.0,0.7196,0.6826,0.6886,0.7446,0.6132,0.5707,0.6245,0.5277,0.0,0.0,0.0,0.6002,0.6814,0.7242,0.0,0.8686,0.0,0.8946,0.892,0.956,0.9819,0.9808,0.9606,1.0284,1.1485,1.2551,1.2939,1.2922,1.2882,1.3196,1.3448,1.2508,1.2682,1.3037,1.2031,1.1843,1.1871,1.1482,1.1449,1.1464,1.1239,1.1201,1.1011,1.0358,1.0215,1.0291,1.048,0.0,0.0,0.0,0.0,0.0,0.0,1.1035,1.1291,1.1291,1.2089,1.2834,1.3156,1.3522,1.3926,1.4401,1.4459,1.4805,1.5676,1.5753,1.6118,1.6965,1.7533,1.8267,1.9165,1.9226,1.9675,2.0586,2.0605,2.0605,2.0605,2.0605,2.0605,2.0605,2.0605,2.0605,2.0605,2.0605,2.0801,2.125,2.2555,2.3334,2.3823,2.5104,2.5636,2.5703,2.5703,2.5703,2.5703,0.3289,0.0,0.0,0.5424,0.4694,0.4864,0.7742,0.8583,0.8812,0.8575,0.8755,0.8979,0.9159,0.9136,0.9114,0.9095,0.9253,0.9054,0.8335,0.856,0.8374,0.7596,0.7437,0.7662,0.829,0.6915,0.6514,0.719,0.5777,0.0,0.0,0.0,0.6573,0.7586,0.8086,0.876,0.9522,0.0,0.9654,0.9678,1.0267,1.0611,1.0766,1.0679,1.1333,1.2398,1.3142,1.3346,1.321,1.2673,1.2856,1.3176,1.2338,1.2656,1.3143,1.2219,1.2156,1.2256,1.1686,1.1683,1.1771,1.1486,1.1065,1.0623,1.0252,1.0139,1.0258,1.0779,1.0814,0.0,0.0,0.0,0.0,0.0,0.0,1.1158,1.0934,1.1523,1.2084,1.2315,1.2546,1.2926,1.3511,1.3358,1.3574,1.4451,1.4286,1.4632,1.5734,1.6407,1.729,1.8457,1.8746,1.9313,2.0234,2.0488,2.0605,2.0605,2.0605,2.0605,2.0605,2.0605,2.0583,2.0562,2.0562,2.0576,2.0684,2.2148,2.2912,2.3338,2.4725,2.5446,2.5703,2.5703,2.5703,2.5703,0.3243,0.3306,0.0,0.3395,0.3678,0.5024,0.837,0.888,0.8891,0.888,0.8891,0.8902,0.8913,0.8913,0.9174,0.9809,0.9637,0.9511,0.9542,0.9666,0.9446,0.8779,0.8317,0.7988,0.7827,0.719,0.6889,0.6914,0.6144,0.0,0.0,0.0,0.0,0.0,0.8167,0.8559,0.9347,1.0059,1.0289,1.0233,1.0981,1.1647,1.2229,1.2229,1.2263,1.2398,1.3142,1.3226,1.3013,1.298,1.2818,1.263,1.2578,1.2614,1.2575,1.2202,1.2337,1.2508,1.2155,1.2634,1.2856,1.1313,1.1244,1.117,0.9675,1.0429,1.1316,1.0886,1.1917,1.2769,1.2333,1.2188,0.0,0.0,0.0,0.0,0.0,1.0152,1.0502,1.1329,1.2199,1.2714,1.2746,1.1983,1.1844,1.2714,1.2002,1.2238,1.3896,1.4071,1.4903,1.6625,1.755,1.8457,1.9336,2.0176,2.0605,2.0605,2.0605,2.0605,2.0605,2.0605,2.0567,2.0508,2.0508,2.0493,2.0566,2.1465,2.2383,2.3277,2.4106,2.4954,2.5703,2.5703,2.5703,2.5703,0.0,0.0,0.0,0.0,0.5652,0.7587,0.8728,0.8891,0.8738,0.8293,0.8243,0.8243,0.8243,0.978,1.0921,1.1136,1.072,1.0351,1.0221,0.9853,0.9514,0.9156,0.867,0.8376,0.8265,0.7681,0.7402,0.7501,0.6849,0.673,0.0,0.0,0.0,0.0,0.0,0.8924,0.0,0.0,0.0,1.0041,1.1234,1.2235,1.3041,1.3041,1.2925,1.2788,1.3055,1.2961,1.2741,1.2741,1.2684,1.2517,1.2133,1.2133,1.2193,1.1721,1.1749,1.1993,1.2298,1.2768,1.29,1.1775,1.1578,1.1282,0.9832,1.048,1.1185,1.0542,1.1758,1.2746,1.2099,0.0,0.0,0.0,0.0,0.0,0.0,1.0094,1.021,1.0502,1.131,1.1848,1.1839,1.1566,1.1758,1.2627,1.243,1.2762,1.3912,1.4536,1.5366,1.6499,1.7449,1.834,1.9222,2.0043,2.0472,2.0472,2.0472,2.0472,2.0475,2.0505,2.0522,2.0506,2.056,2.0565,2.0681,2.2088,2.2878,2.334,2.4662,2.5395,2.5703,2.5703,2.5703,2.5703,0.4469,0.6333,0.7424,0.5938,0.7461,0.8891,0.8891,0.8691,0.8383,0.7971,0.8318,0.8609,0.8609,1.0123,1.1113,1.1113,1.0771,1.0532,1.0499,1.0042,0.9592,0.9172,0.8805,0.8591,0.8616,0.8064,0.7846,0.7981,0.7392,0.7371,0.0,0.0,0.0,0.0,0.0,0.905,0.8823,0.9656,1.0043,1.0176,1.158,1.2533,1.3122,1.3122,1.3069,1.2995,1.2797,1.261,1.2455,1.2455,1.232,1.2082,1.1672,1.1607,1.1571,1.1116,1.1281,1.1734,1.2183,1.2647,1.2899,1.2401,1.2184,1.1764,1.0605,1.1342,1.2058,1.1366,1.2529,1.3547,1.3213,1.2812,0.0,0.0,0.0,0.0,0.0,1.0094,1.0094,1.0094,1.0598,0.0,0.0,1.0979,1.1211,1.177,1.2108,1.264,1.3483,1.4349,1.5215,1.6053,1.7263,1.8174,1.873,1.9831,2.0399,2.0399,2.0399,2.0399,2.0404,2.046,2.0486,2.0464,2.0515,2.0532,2.0627,2.2002,2.2798,2.327,2.4588,2.532,2.5631,2.5665,2.5668,2.5664,0.6599,0.7298,0.8108,0.8789,0.8891,0.8891,0.8858,0.8306,0.7901,0.7885,0.8999,0.979,0.979,0.9841,0.9905,0.9905,0.9905,1.0068,1.049,1.0253,0.9747,0.899,0.8743,0.8651,0.8748,0.8347,0.8171,0.8278,0.78,0.0,0.0,0.0,0.0,0.0,0.9139,0.0,0.8739,1.0158,1.0702,1.0703,1.2029,1.2556,1.2556,1.2553,1.2687,1.2852,1.2455,1.2251,1.2185,1.2149,1.1775,1.1296,1.125,1.108,1.0825,1.0534,1.1038,1.1744,1.1915,1.2476,1.3008,1.3127,1.3008,1.2671,1.1937,1.2948,1.3864,1.324,1.4158,1.517,1.5484,1.4371,1.3335,0.0,0.0,0.0,0.0,0.0,1.0113,1.0156,1.0133,0.0,0.0,1.0244,1.0258,1.0194,1.1044,1.1886,1.2656,1.3517,1.4393,1.5272,1.6971,1.7893,1.7892,1.9558,2.0408,2.0408,2.0408,2.0408,2.0408,2.0465,2.0454,2.0412,2.0395,2.0394,2.0473,2.1314,2.2192,2.3093,2.3928,2.4773,2.5502,2.5578,2.5593,2.5605,0.6599,0.7298,0.8108,0.8789,0.8891,0.8726,0.8243,0.8012,0.7862,0.7771,0.8036,0.8269,0.8269,0.9251,0.9905,0.9905,0.9905,1.0157,1.0753,1.0264,0.989,0.9727,0.9144,0.8585,0.8082,0.8327,0.8289,0.7937,0.8245,0.0,0.8921,0.0,0.0,0.0,0.0,0.857,0.8128,0.9639,1.0843,1.1773,1.1887,1.2036,1.2173,1.1738,1.1637,1.1779,1.2113,1.2086,1.1854,1.1623,1.1431,1.1227,1.0784,1.0567,1.0626,1.1016,1.1282,1.1737,1.2927,1.3587,1.3909,1.3845,1.3789,1.3573,1.2886,1.363,1.4255,1.3544,1.4848,1.5848,1.4949,1.4855,1.4389,0.0,0.0,0.0,0.0,0.0,1.0352,1.1065,1.0572,0.0,1.0194,1.0791,1.0906,1.0252,1.156,1.2476,1.2694,1.3473,1.4324,1.5195,1.6869,1.7753,1.7759,1.9458,2.0331,2.0331,2.0331,2.0331,2.0331,2.035,2.0345,2.0332,2.0385,2.0394,2.0504,2.1963,2.2746,2.3151,2.455,2.523,2.5434,2.5486,2.5554,2.5605,0.6599,0.7298,0.8012,0.8396,0.8138,0.7765,0.7393,0.7329,0.7427,0.7677,0.7695,0.7695,0.7695,0.9008,0.9905,0.9905,0.9905,1.0046,1.0422,1.0307,1.0043,0.966,0.9223,0.8851,0.8603,0.8452,0.8263,0.8029,0.8382,0.8644,0.8801,0.0,0.0,0.0,0.0,0.8424,0.8,0.9263,1.0413,1.1407,1.1381,1.1446,0.0,1.1196,1.1094,1.1182,1.1512,1.1527,1.137,1.1173,1.1034,1.0897,1.0776,1.0651,1.0703,1.1507,1.1907,1.2325,1.341,1.3917,1.4202,1.4456,1.4285,1.3964,1.3765,1.3996,1.4222,1.398,1.4779,1.5485,1.5487,1.5055,1.4016,0.0,0.0,0.0,0.0,1.0082,1.0314,1.0868,1.0508,1.0203,1.0198,1.0648,1.074,1.0272,1.1443,1.2187,1.2185,1.3295,1.4159,1.4613,1.6638,1.7702,1.7702,1.9427,2.0312,2.0312,2.0312,2.0312,2.0312,2.0312,2.0292,2.0302,2.0332,2.0354,2.0485,2.2169,2.2881,2.3083,2.4716,2.537,2.537,2.5409,2.5456,2.5524,0.674,0.7282,0.7812,0.8117,0.718,0.6409,0.6425,0.6609,0.6894,0.7298,0.7355,0.7442,0.7676,0.8844,0.9607,0.9607,0.979,0.9905,0.9905,1.0286,1.0179,0.9408,0.9254,0.9294,0.953,0.8631,0.8199,0.8264,0.833,0.8493,0.8779,0.0,0.0,0.0,0.0,0.0,0.0,0.901,0.9759,1.0492,1.0722,1.0825,1.0825,1.0801,1.0777,1.0767,1.0786,1.0832,1.091,1.0931,1.0751,1.0596,1.1096,1.1045,1.0992,1.2016,1.2678,1.3199,1.3656,1.3915,1.4214,1.4845,1.4501,1.4065,1.4428,1.4227,1.407,1.4439,1.444,1.4828,1.6339,1.507,1.3236,1.1543,1.1276,1.1055,1.0369,1.0254,0.0,0.0,1.0432,0.0,1.0364,1.0367,1.0346,1.0299,1.104,1.1545,1.1655,1.3041,1.3898,1.4074,1.6426,1.7702,1.7702,1.9427,2.0312,2.0312,2.0312,2.0312,2.0312,2.0312,2.0312,2.0312,2.0312,2.0312,2.0427,2.21,2.2928,2.3274,2.4736,2.5303,2.5303,2.5303,2.5341,2.5407,0.753,0.7219,0.739,0.9221,0.7234,0.5395,0.55,0.6646,0.7046,0.5732,0.5565,0.611,0.754,0.7947,0.808,0.808,0.9197,0.9905,0.9905,0.997,1.0121,1.0334,0.9968,0.9591,0.9207,0.8748,0.8377,0.8134,0.8139,0.8313,0.8634,0.0,0.0,0.0,0.0,0.0,0.9152,0.891,0.9602,1.0791,1.0565,1.0483,1.0458,1.0173,1.0072,1.0084,1.0138,1.0469,1.0931,1.1094,1.1123,1.1109,1.1423,1.1496,1.1627,1.2563,1.3195,1.37,1.4211,1.4606,1.4845,1.4658,1.4501,1.441,1.4474,1.4446,1.4415,1.4477,1.4965,1.54,1.5546,1.5168,1.4363,1.2881,1.216,1.1753,1.1665,1.1327,1.1355,0.0,1.163,1.1271,1.1273,1.1266,1.0982,1.0263,1.1011,1.1793,1.2451,1.2768,1.3565,1.492,1.6753,1.7702,1.7702,1.9427,2.0312,2.0312,2.0312,2.0312,2.0312,2.0312,2.0312,2.0312,2.0312,2.0312,2.0427,2.21,2.3601,2.488,2.5187,2.5303,2.5303,2.5303,2.5303,2.5341,0.8645,0.7248,0.6153,0.7224,0.5666,0.4503,0.5188,0.5952,0.6161,0.5304,0.5192,0.5854,0.7511,0.7695,0.7695,0.7695,0.8354,0.9089,0.9854,0.9905,0.9995,1.0236,1.0034,0.978,0.9516,0.9182,0.8856,0.8523,0.8521,0.8555,0.0,0.0,0.0,0.8579,0.0,0.8323,0.0,0.8547,0.9031,0.983,0.9641,0.9571,0.9544,0.9398,0.947,0.9685,0.973,1.0044,1.055,1.0866,1.1181,1.1481,1.19,1.2015,1.2209,1.3179,1.3623,1.3848,1.41,1.4342,1.4438,1.4246,1.4032,1.3901,1.4117,1.4,1.3901,1.4149,1.4648,1.5168,1.5574,1.5436,1.4983,1.4175,1.3183,1.2524,1.2513,1.2103,1.1843,1.1915,0.0,0.0,1.0861,1.0835,1.0662,1.0279,1.0604,1.1187,1.2032,1.2477,1.3248,1.4437,1.6561,1.7675,1.765,1.9404,2.0312,2.0312,2.0312,2.0312,2.0312,2.0312,2.0312,2.0312,2.0312,2.0542,2.1062,2.2774,2.4197,2.5303,2.5303,2.5303,2.5303,2.5303,2.5303,2.5303,0.9139,0.7124,0.4984,0.4492,0.4104,0.4208,0.5168,0.5309,0.5309,0.5309,0.5309,0.5773,0.7056,0.7175,0.7333,0.7666,0.7695,0.8184,0.9357,0.9738,0.9816,0.9686,0.9816,0.988,0.979,0.9498,0.9236,0.8994,0.8848,0.8757,0.8713,0.0,0.0,0.0,0.7918,0.7846,0.8142,0.8203,0.8485,0.8862,0.8809,0.8845,0.8945,0.8945,0.9218,0.9633,0.9651,0.9926,1.031,1.0717,1.1188,1.1697,1.2242,1.2481,1.2733,1.3519,1.3835,1.3868,1.3769,1.3835,1.3868,1.3769,1.3459,1.3301,1.3682,1.3459,1.3301,1.3682,1.42,1.4861,1.5669,1.5814,1.5539,1.4693,1.3945,1.3341,1.2992,1.2539,1.2057,1.1566,0.0,1.0992,1.0256,1.0191,1.0214,1.0254,1.0236,1.0662,1.1696,1.2194,1.2959,1.4054,1.6239,1.7466,1.7611,1.9353,2.0269,2.0312,2.0312,2.0312,2.0312,2.0312,2.0312,2.0312,2.0312,2.0869,2.1908,2.3456,2.4562,2.5303,2.5303,2.5303,2.5303,2.5303,2.5303,2.5303,0.8125,0.65,0.462,0.2485,0.3773,0.5181,0.5295,0.5309,0.5309,0.5309,0.5309,0.5372,0.5491,0.5529,0.6106,0.7578,0.7695,0.7754,0.7889,0.917,0.9607,0.8926,0.9542,0.9764,0.9461,0.9231,0.9203,0.9344,0.8673,0.8595,0.9042,0.8616,0.8326,0.8118,0.7519,0.7639,0.8274,0.8096,0.8335,0.8804,0.8794,0.9057,0.9429,0.9429,0.9699,1.0048,1.0112,1.043,1.084,1.0955,1.1291,1.1781,1.2305,1.2787,1.3135,1.3254,1.3581,1.3802,1.3391,1.3581,1.3802,1.3357,1.3232,1.3198,1.3267,1.3232,1.3198,1.3267,1.4173,1.5023,1.5242,1.6289,1.6231,1.3538,1.3904,1.4134,1.297,1.2361,1.2067,1.22,1.1664,1.099,1.0183,1.0163,1.0179,1.0117,1.0234,1.0957,1.2514,1.1967,1.2664,1.501,1.5895,1.6774,1.7689,1.9254,2.0115,2.0312,2.0312,2.0312,2.0312,2.0312,2.0312,2.0312,2.0312,2.1196,2.2754,2.3706,2.4562,2.5303,2.5303,2.5303,2.5303,2.5303,2.5303,2.5303,0.501,0.4183,0.3461,0.2506,0.3102,0.3756,0.3756,0.3756,0.3756,0.3756,0.466,0.5309,0.5309,0.5309,0.5554,0.6199,0.7145,0.7695,0.7695,0.8241,0.8439,0.8166,0.8717,0.9166,0.9396,0.9323,0.933,0.9413,0.9231,0.9157,0.9214,0.8874,0.8273,0.7482,0.6989,0.7017,0.7405,0.7367,0.7782,0.85,0.8466,0.8555,0.8744,0.9081,0.9042,0.8883,0.9251,0.9469,0.962,0.9992,1.0845,1.1802,1.2008,1.221,1.2354,1.2354,1.2484,1.2614,1.2425,1.2484,1.2649,1.2756,1.2791,1.2838,1.3129,1.3198,1.3198,1.3198,1.4006,1.484,1.5362,1.5765,1.5807,1.5011,1.4627,1.4332,1.4141,1.3243,1.2503,1.2267,1.1572,1.084,1.0177,1.0116,1.0147,1.0154,1.0207,1.0741,1.1917,1.2127,1.2832,1.4201,1.6016,1.712,1.7397,1.9046,1.9912,2.0001,2.0001,2.0041,2.0115,2.0115,2.0446,2.1062,2.1562,2.2485,2.3648,2.4485,2.5005,2.5303,2.5303,2.5303,2.5303,2.5303,2.5303,2.5303,0.2164,0.1913,0.1913,0.1913,0.2503,0.298,0.298,0.298,0.298,0.298,0.4051,0.4722,0.4566,0.4985,0.5309,0.5309,0.6352,0.7205,0.7666,0.7264,0.7205,0.7666,0.8052,0.8512,0.9074,0.9182,0.9231,0.9218,0.9279,0.9153,0.8914,0.8532,0.7893,0.7052,0.6802,0.6788,0.6966,0.7023,0.7416,0.8038,0.7973,0.8052,0.8183,0.8584,0.8492,0.8257,0.8635,0.8728,0.8756,0.9119,1.0011,1.096,1.1431,1.1664,1.1811,1.1811,1.1811,1.1811,1.1811,1.1811,1.1884,1.221,1.2282,1.2437,1.2908,1.2978,1.3082,1.3357,1.3901,1.4481,1.5067,1.5101,1.5046,1.4995,1.4525,1.4172,1.4183,1.3236,1.2455,1.217,1.1262,1.0514,1.0087,1.0268,1.0439,1.0497,1.0737,1.1161,1.1821,1.2161,1.2865,1.3993,1.5995,1.7103,1.7229,1.8906,1.9762,1.979,1.979,1.9869,1.9993,2.0069,2.0601,2.1543,2.2427,2.3302,2.4168,2.4966,2.5303,2.5303,2.5303,2.5303,2.5303,2.5303,2.5303,2.5303,0.0045,0.0045,0.0045,0.0045,0.2006,0.3568,0.3568,0.3568,0.3568,0.3568,0.3612,0.3382,0.2812,0.4274,0.5309,0.5309,0.5309,0.6014,0.7608,0.6199,0.6044,0.7637,0.7656,0.7848,0.8308,0.8634,0.8816,0.8805,0.847,0.821,0.7998,0.7335,0.7,0.6996,0.7081,0.7214,0.7408,0.738,0.7416,0.7424,0.7424,0.7662,0.8008,0.8008,0.8314,0.8675,0.8707,0.8716,0.8716,0.8716,0.8716,0.899,1.0514,1.1356,1.1811,1.1811,1.1811,1.1811,1.1811,1.1811,1.1811,1.1811,1.1811,1.192,1.2389,1.2508,1.2779,1.3689,1.3901,1.396,1.4098,1.4448,1.4141,1.2442,1.3255,1.3652,1.2415,1.1819,1.164,1.1958,1.0766,0.9912,0.9893,1.0683,1.1186,1.1186,1.1988,1.2531,1.267,1.1935,1.258,1.4919,1.5649,1.6439,1.7291,1.8833,1.9669,1.979,1.979,1.9869,2.0012,2.0205,2.0735,2.1543,2.2427,2.3302,2.4168,2.4966,2.5303,2.5303,2.5303,2.5303,2.5303,2.5303,2.5303,2.5303,0.0,0.0,0.0,0.0,0.0628,0.1164,0.1164,0.2549,0.3581,0.3581,0.3581,0.3507,0.3317,0.4489,0.5309,0.5309,0.5309,0.5529,0.6014,0.5585,0.5711,0.6643,0.6955,0.7567,0.8558,0.85,0.8674,0.9151,0.9024,0.8438,0.7367,0.7256,0.686,0.6277,0.6406,0.6521,0.6607,0.6784,0.7053,0.741,0.7655,0.7561,0.7344,0.7742,0.723,0.6482,0.7245,0.7294,0.7098,0.7904,0.816,0.8316,0.9142,0.9531,0.9688,0.9688,0.9688,0.9688,0.9688,0.9962,1.0321,1.0647,1.096,1.1468,1.2318,1.2756,1.3047,1.3357,1.3682,1.39,1.3956,1.4002,1.3754,1.2935,1.2984,1.3005,1.2653,1.2271,1.22,1.2622,1.1921,1.1418,1.1456,1.173,1.1678,1.1231,1.1503,1.1988,1.267,1.2934,1.3622,1.4827,1.6086,1.7095,1.7837,1.8873,1.9423,1.9462,1.9462,1.9559,1.9726,1.9888,2.072,2.2068,2.2475,2.3445,2.4747,2.5138,2.5303,2.5303,2.5303,2.5303,2.5303,2.5303,2.5303,2.5303,0.0,0.0,0.0,0.0,0.0,0.0,0.0,0.1298,0.2593,0.349,0.3581,0.3581,0.3581,0.4227,0.4666,0.4666,0.5425,0.5932,0.5932,0.5932,0.6099,0.6466,0.6682,0.7198,0.8183,0.806,0.8152,0.8586,0.8216,0.7452,0.6312,0.6371,0.6071,0.5533,0.5755,0.5848,0.5854,0.6023,0.6322,0.6612,0.6851,0.6706,0.6398,0.6723,0.6222,0.5389,0.6107,0.6177,0.6057,0.6749,0.7009,0.7065,0.7462,0.7544,0.7652,0.8463,0.8716,0.8716,0.8716,0.8958,0.9319,0.9806,1.0196,1.0705,1.1715,1.2318,1.272,1.2908,1.316,1.339,1.3513,1.3266,1.3009,1.2775,1.2516,1.2427,1.2678,1.247,1.2457,1.2872,1.2464,1.2151,1.2205,1.2474,1.2489,1.2098,1.2712,1.3233,1.3519,1.369,1.4199,1.5178,1.6638,1.7633,1.8096,1.8828,1.923,1.9305,1.9365,1.9485,1.9596,1.9738,2.0715,2.2318,2.2443,2.341,2.4924,2.5061,2.5149,2.5192,2.5192,2.5224,2.5303,2.5303,2.5303,2.5303,0.0,0.0,0.0,0.0,0.0,0.0,0.0,0.0,0.0807,0.3043,0.3353,0.3401,0.3578,0.3581,0.3581,0.3581,0.5518,0.6852,0.6979,0.6852,0.681,0.6894,0.66,0.6698,0.7315,0.7284,0.7284,0.7308,0.6334,0.5539,0.4964,0.4933,0.4918,0.4887,0.5169,0.5303,0.5303,0.5303,0.5303,0.5308,0.5323,0.5285,0.5241,0.5256,0.5266,0.5222,0.5266,0.5356,0.5482,0.5528,0.5528,0.5563,0.5755,0.5686,0.5936,0.7948,0.8585,0.8577,0.8594,0.8635,0.879,0.9288,0.9439,0.9746,1.0705,1.1356,1.1872,1.2354,1.2461,1.2528,1.2807,1.2355,1.1985,1.2127,1.1853,1.1849,1.2439,1.2407,1.2456,1.2796,1.2527,1.2317,1.2317,1.3011,1.3485,1.3551,1.5076,1.5696,1.4999,1.4286,1.4541,1.59,1.7215,1.7972,1.8126,1.8689,1.9086,1.9274,1.9485,1.9606,1.9675,1.9795,2.0753,2.2354,2.2367,2.3285,2.4775,2.479,2.4877,2.501,2.501,2.5111,2.5303,2.5303,2.5303,2.5303,0.0,0.0,0.0,0.0,0.0,0.0,0.0,0.0,0.0225,0.0762,0.0851,0.1566,0.3401,0.3581,0.3581,0.3581,0.41,0.5135,0.6894,0.5389,0.4792,0.5647,0.562,0.5842,0.6394,0.6225,0.6219,0.6394,0.5755,0.5141,0.4548,0.4985,0.4971,0.4543,0.5062,0.5303,0.5303,0.5303,0.5303,0.5323,0.5405,0.5198,0.4855,0.4957,0.4726,0.439,0.4822,0.4996,0.5127,0.5553,0.5745,0.5755,0.5804,0.5785,0.5922,0.6941,0.7247,0.7341,0.7674,0.8106,0.8392,0.8305,0.8852,0.9591,1.0253,1.074,1.1265,1.1836,1.1957,1.2103,1.2504,1.1773,1.1234,1.168,1.137,1.1205,1.1564,1.2278,1.2874,1.3152,1.337,1.3492,1.3492,1.3816,1.4035,1.4109,1.4643,1.5144,1.5551,1.5839,1.6138,1.65,1.7318,1.7994,1.8485,1.8627,1.8825,1.9086,1.9259,1.9696,2.0289,2.0317,2.1253,2.2842,2.3005,2.3643,2.4575,2.4731,2.4877,2.501,2.501,2.5111,2.5303,2.5303,2.5303,2.5303,0.0,0.0,0.0,0.0,0.0,0.0,0.0,0.0,0.0,0.0,0.0,0.0494,0.1789,0.1967,0.1967,0.1967,0.2951,0.4144,0.5346,0.4272,0.3884,0.4491,0.453,0.4826,0.5454,0.5502,0.5324,0.4919,0.4366,0.3942,0.3642,0.3946,0.4085,0.4049,0.4355,0.4578,0.461,0.4239,0.4146,0.4229,0.4274,0.4123,0.3942,0.4326,0.4267,0.4019,0.4367,0.4515,0.463,0.4976,0.5073,0.509,0.5169,0.514,0.5242,0.5979,0.6266,0.6395,0.6527,0.7,0.7514,0.7827,0.8504,0.9164,0.9442,0.9904,1.0407,1.095,1.1271,1.1579,1.2102,1.1429,1.0946,1.1374,1.115,1.108,1.1592,1.238,1.3173,1.3905,1.4232,1.4556,1.4912,1.5142,1.5284,1.5302,1.5826,1.6146,1.6122,1.71,1.7524,1.7176,1.7663,1.8144,1.8604,1.8585,1.8734,1.8984,1.9101,1.9433,1.9968,2.0319,2.1216,2.2464,2.2955,2.3617,2.4375,2.4478,2.462,2.4762,2.4762,2.4924,2.5163,2.5163,2.5214,2.5303,-0.0538,-0.0269,0.0,0.0,-0.0314,-0.0404,-0.0045,0.0,0.0,0.0,0.0,0.0,0.0,0.0,0.0,0.0,0.1878,0.3043,0.3043,0.3043,0.322,0.3578,0.3581,0.384,0.4355,0.4609,0.4291,0.3237,0.2794,0.2586,0.2563,0.2563,0.2847,0.3327,0.3327,0.3389,0.3443,0.282,0.2633,0.2713,0.278,0.2787,0.284,0.3619,0.3881,0.3932,0.4036,0.4168,0.4227,0.4227,0.4227,0.43,0.4423,0.4379,0.4407,0.512,0.5475,0.5623,0.5614,0.6037,0.6678,0.7461,0.8097,0.8536,0.857,0.8999,0.9509,0.9992,1.0504,1.1094,1.17,1.1194,1.0841,1.1277,1.1176,1.1272,1.1891,1.2668,1.3552,1.4572,1.4931,1.5361,1.6028,1.63,1.6447,1.6588,1.7415,1.7588,1.685,1.7983,1.8342,1.7717,1.8043,1.829,1.8469,1.8508,1.866,1.8931,1.8966,1.9173,1.951,2.0317,2.118,2.2024,2.2832,2.3566,2.419,2.419,2.4321,2.4495,2.4495,2.4708,2.501,2.501,2.5141,2.5303,-0.304,-0.1387,0.0,0.0,-0.17,-0.2368,-0.0314,0.0,0.0,0.0,0.0,0.0,0.0,0.0,0.0,0.0,0.0359,0.0538,0.0538,0.0538,0.1477,0.349,0.3581,0.3353,0.2768,0.2495,0.2271,0.2049,0.196,0.1952,0.1926,0.1926,0.2011,0.2075,0.2075,0.2082,0.2093,0.1993,0.195,0.1967,0.2082,0.216,0.222,0.3096,0.3457,0.3569,0.4171,0.4409,0.4429,0.4429,0.4429,0.4433,0.4512,0.4501,0.4488,0.4618,0.47,0.4889,0.5845,0.6395,0.6713,0.6639,0.716,0.7766,0.7972,0.8439,0.8958,0.9509,1.003,1.0687,1.1627,1.0922,1.0496,1.1412,1.1654,1.1686,1.146,1.3146,1.4383,1.4214,1.4965,1.5575,1.5675,1.5883,1.6271,1.6954,1.7312,1.7719,1.8252,1.802,1.7804,1.7702,1.8038,1.8103,1.7927,1.8146,1.8391,1.866,1.8896,1.9464,2.0338,2.1198,2.2042,2.2868,2.3657,2.408,2.419,2.419,2.4321,2.4495,2.4495,2.4708,2.501,2.501,2.5141,2.5303,-0.3581,-0.2682,-0.1521,-0.0225,-0.0941,-0.1298,-0.018,0.0,0.0,0.0,0.0,0.0,0.0,0.0,0.0,0.0,0.0,0.0,0.0,0.0,0.0494,0.1611,0.1681,0.1815,0.2051,0.1575,0.1337,0.1337,0.1004,0.1013,0.1323,0.1323,0.1484,0.181,0.181,0.1831,0.1865,0.1504,0.1363,0.1441,0.1465,0.1529,0.1586,0.2384,0.273,0.2843,0.3566,0.3901,0.3959,0.4349,0.4519,0.4519,0.4519,0.4519,0.4519,0.4519,0.4729,0.512,0.5958,0.658,0.7008,0.7177,0.7354,0.7517,0.7643,0.799,0.8439,0.8958,0.9478,1.0186,1.1169,1.0924,1.0776,1.1528,1.2013,1.2325,1.2291,1.3509,1.4629,1.5157,1.5641,1.6151,1.6724,1.685,1.7014,1.7398,1.7339,1.7454,1.7834,1.7442,1.7215,1.7215,1.7539,1.7755,1.7811,1.7927,1.8103,1.8391,1.8508,1.8967,1.9734,2.1024,2.188,2.2428,2.3657,2.419,2.419,2.419,2.4247,2.4339,2.4339,2.4575,2.4891,2.4891,2.5061,2.5303,-0.3581,-0.3581,-0.2862,-0.0404,0.0,0.0,0.0,0.0,0.0,0.0,0.0,0.0,0.0,0.0,-0.0285,-0.0995,-0.1042,-0.1042,-0.1042,-0.1042,-0.0746,-0.0045,0.0,0.0309,0.1014,0.0808,0.0706,0.0706,0.0202,0.0254,0.0715,0.0715,0.0922,0.1394,0.1394,0.1415,0.1506,0.0916,0.0766,0.0838,0.0838,0.0838,0.0951,0.1675,0.1952,0.2063,0.2788,0.3176,0.3456,0.407,0.4349,0.4519,0.4519,0.4519,0.4519,0.4519,0.4915,0.5444,0.5901,0.6507,0.7118,0.765,0.7655,0.7555,0.7527,0.7795,0.8201,0.8594,0.9239,0.9991,1.1019,1.1028,1.1115,1.1757,1.2451,1.2969,1.3097,1.4025,1.5057,1.597,1.6252,1.6656,1.7476,1.7522,1.7466,1.7363,1.7197,1.7077,1.6971,1.6793,1.6712,1.6789,1.7126,1.7462,1.7811,1.7811,1.7927,1.8187,1.8187,1.8538,1.9201,2.064,2.1532,2.2027,2.3472,2.4132,2.419,2.419,2.419,2.419,2.419,2.4428,2.4731,2.4731,2.4949,2.5224,-0.3581,-0.3581,-0.2862,-0.0404,0.0,0.0,0.0,0.0,0.0,0.0,0.0,0.0,0.0,0.0,-0.1102,-0.3902,-0.4175,-0.4175,-0.4175,-0.4175,-0.2904,-0.0136,0.0,-0.0382,-0.125,-0.0408,0.005,0.005,0.0,0.0,0.0053,0.0053,0.0108,0.0111,0.0111,0.0111,0.0168,0.0112,0.0056,0.0056,0.0056,0.0056,0.0168,0.0895,0.1174,0.1284,0.2009,0.273,0.3345,0.3456,0.3956,0.4519,0.4519,0.4519,0.4519,0.4519,0.4941,0.5521,0.5521,0.6108,0.6759,0.7218,0.7615,0.7822,0.7574,0.8087,0.8635,0.8675,0.9518,1.0544,1.1553,1.1289,1.1217,1.2197,1.305,1.3487,1.3154,1.4875,1.6019,1.5775,1.6335,1.6777,1.6866,1.6866,1.6706,1.6338,1.6638,1.668,1.6285,1.6309,1.6474,1.6789,1.7126,1.7462,1.7811,1.7811,1.7927,1.8187,1.8187,1.8717,1.9664,2.0557,2.1485,2.2501,2.3353,2.3917,2.419,2.419,2.419,2.419,2.419,2.4321,2.4528,2.4528,2.4737,2.5022,-0.3581,-0.3581,-0.3309,-0.2415,-0.0972,0.0,0.0,0.0,0.0,0.0,0.0,-0.0727,-0.2565,-0.2788,-0.3234,-0.4405,-0.4519,-0.4519,-0.4519,-0.4519,-0.316,-0.0156,-0.1793,-0.2104,-0.06,-0.0649,-0.0484,0.0,0.0,0.0,0.0,0.0,0.0,0.0,0.0,0.0,0.0,0.0,0.0,0.0,0.0,0.0,0.0056,0.0336,0.0392,0.0504,0.1229,0.1675,0.2063,0.3065,0.3566,0.3901,0.4349,0.4519,0.4519,0.4519,0.468,0.4948,0.5378,0.6357,0.732,0.7495,0.7904,0.8176,0.8056,0.8432,0.8842,0.8928,0.9862,1.0795,1.1223,1.1642,1.2025,1.2384,1.3233,1.3763,1.3629,1.4729,1.5475,1.5291,1.6003,1.6363,1.6022,1.6278,1.6184,1.549,1.5922,1.6009,1.5535,1.5811,1.6136,1.6474,1.6841,1.7264,1.7789,1.7811,1.7856,1.7949,1.7949,1.8478,1.9482,2.0293,2.133,2.2553,2.335,2.3896,2.419,2.419,2.419,2.419,2.419,2.4321,2.4495,2.4495,2.4651,2.4891,-0.3904,-0.3904,-0.3904,-0.3904,-0.2513,-0.1396,-0.1396,-0.0616,-0.0336,-0.1285,-0.1396,-0.2174,-0.4294,-0.4519,-0.4519,-0.4519,-0.4519,-0.4519,-0.4519,-0.4519,-0.3566,-0.1507,-0.2788,-0.2734,-0.1007,-0.0839,-0.0504,0.0,0.0,0.0,0.0,0.0,0.0,0.0,0.0,0.0,0.0,0.0,0.0,0.0,0.0,0.0,0.0,0.0,0.0,0.0056,0.056,0.0895,0.1284,0.2565,0.3178,0.3511,0.4294,0.4519,0.4519,0.4519,0.4519,0.4625,0.5054,0.6253,0.7396,0.7616,0.8061,0.8427,0.8427,0.8793,0.9173,0.925,1.027,1.1203,1.1383,1.1872,1.2332,1.2637,1.3235,1.3709,1.3888,1.447,1.4892,1.485,1.5375,1.5607,1.5213,1.552,1.5433,1.4713,1.5106,1.5329,1.5104,1.5418,1.5797,1.6301,1.6528,1.6917,1.7479,1.7923,1.8031,1.7811,1.8262,1.8852,1.9556,2.0353,2.1383,2.2602,2.3267,2.3735,2.4054,2.4151,2.419,2.419,2.419,2.4284,2.441,2.441,2.4545,2.4731,-0.4519,-0.4519,-0.4519,-0.4519,-0.4519,-0.4519,-0.4519,-0.1953,-0.1118,-0.4125,-0.4519,-0.4519,-0.4519,-0.4519,-0.4519,-0.4519,-0.4519,-0.4519,-0.4463,-0.4519,-0.4519,-0.4463,-0.2567,-0.1956,-0.2961,-0.1007,0.0,0.0,0.0,0.0,0.0,0.0,0.0,0.0,0.0,0.0,0.0,0.0,0.0,0.0,0.0,0.0,0.0,0.0,0.0,0.0,0.0,0.0448,0.1229,0.1952,0.2732,0.3511,0.4239,0.4519,0.4519,0.4519,0.4519,0.4519,0.4519,0.5555,0.675,0.7503,0.8061,0.8377,0.8377,0.9081,0.9703,0.9694,1.0695,1.1727,1.2223,1.1975,1.1991,1.2954,1.3106,1.3289,1.3835,1.4246,1.4501,1.4501,1.4501,1.4501,1.4501,1.4501,1.4342,1.3934,1.4278,1.4658,1.5074,1.5104,1.5448,1.6274,1.6301,1.6463,1.6805,1.8194,1.8521,1.7805,1.9292,1.9985,2.0018,2.0822,2.1746,2.2721,2.3045,2.3392,2.3714,2.4074,2.4208,2.4208,2.419,2.419,2.419,2.419,2.4339,2.4495,-0.4519,-0.4519,-0.4519,-0.4519,-0.4519,-0.4519,-0.4519,-0.3735,-0.3456,-0.4405,-0.4519,-0.4519,-0.4519,-0.4519,-0.4519,-0.4519,-0.4519,-0.4184,-0.3516,-0.3569,-0.3569,-0.3461,-0.285,-0.2347,-0.1956,-0.1174,-0.0504,0.0,0.0,0.0,0.0,0.0,0.0,0.0,0.0,0.0,0.0,0.0,0.0,0.0,0.0,0.0,0.0,0.0,0.0,0.0,0.0,0.0168,0.0504,0.1786,0.2343,0.2788,0.407,0.4519,0.4519,0.4519,0.4519,0.4519,0.4519,0.5555,0.6642,0.6858,0.7823,0.8677,0.8677,0.9249,0.9844,1.0034,1.0992,1.182,1.181,1.2236,1.2587,1.2546,1.323,1.3638,1.3362,1.4101,1.4385,1.3654,1.4117,1.4246,1.3648,1.4149,1.4214,1.3459,1.3835,1.4246,1.4658,1.469,1.4966,1.5581,1.5743,1.6288,1.7273,1.7597,1.7655,1.7455,1.8663,1.9502,2.0018,2.0822,2.1746,2.2721,2.2822,2.3045,2.3369,2.3714,2.3837,2.3876,2.4113,2.419,2.419,2.419,2.4247,2.4321,-0.4519,-0.4519,-0.4519,-0.4519,-0.4519,-0.4519,-0.4519,-0.4519,-0.4519,-0.4519,-0.4519,-0.4519,-0.4519,-0.4519,-0.4519,-0.4519,-0.3959,-0.3345,-0.2736,-0.2788,-0.2788,-0.2681,-0.2402,-0.1845,-0.0952,-0.0727,-0.0448,0.0,0.0,0.0,0.0,0.0,0.0,0.0,0.0,0.0,0.0,0.0,0.0,0.0,0.0,0.0,0.0,0.0,0.0,0.0,0.0,0.0,0.0224,0.173,0.2619,0.3289,0.4184,0.4519,0.4519,0.4519,0.4519,0.4519,0.4519,0.5555,0.6588,0.6588,0.7723,0.8857,0.9159,0.971,1.0308,1.0738,1.1597,1.226,1.2119,1.2406,1.2666,1.258,1.3187,1.3627,1.347,1.4225,1.4567,1.3959,1.4358,1.4358,1.3642,1.4041,1.4109,1.3594,1.4031,1.4485,1.4884,1.4918,1.5203,1.5915,1.6045,1.66,1.7575,1.7634,1.7811,1.8144,1.9384,2.0142,2.05,2.1278,2.1973,2.2537,2.266,2.2822,2.3045,2.3522,2.3692,2.3735,2.4074,2.419,2.419,2.419,2.419,2.4209,-0.4519,-0.4519,-0.4519,-0.4519,-0.4519,-0.4519,-0.4519,-0.4519,-0.4519,-0.4519,-0.4519,-0.4519,-0.4519,-0.4519,-0.4519,-0.4519,-0.2954,-0.2065,-0.212,-0.212,-0.2063,-0.2009,-0.1341,-0.0671,0.0,0.0,0.0,0.0,0.0,0.0,0.0,0.0,0.0,0.0,0.0,0.0,0.0,0.0,0.0,0.0,0.0,0.0,0.0,0.0,0.0,0.0,0.0056,0.0112,0.0336,0.1786,0.3289,0.4519,0.4519,0.4519,0.4519,0.4519,0.4519,0.457,0.457,0.5605,0.6696,0.6696,0.7777,0.8956,0.9562,1.0218,1.0914,1.1566,1.2295,1.2822,1.2881,1.2559,1.2414,1.2934,1.3141,1.3425,1.3895,1.4496,1.4888,1.4916,1.4916,1.4714,1.4211,1.416,1.416,1.416,1.4626,1.5057,1.5447,1.5447,1.5891,1.6837,1.6864,1.718,1.7796,1.8096,1.8603,1.9306,2.0796,2.1375,2.1167,2.1927,2.231,2.2293,2.2563,2.2643,2.2738,2.3392,2.3671,2.3692,2.4074,2.419,2.419,2.419,2.419,2.419,-0.4519,-0.4519,-0.4519,-0.4519,-0.4519,-0.4519,-0.4519,-0.4519,-0.4519,-0.4519,-0.4519,-0.4519,-0.4519,-0.4519,-0.4519,-0.4519,-0.2009,-0.0839,-0.162,-0.1453,-0.1062,-0.0504,-0.0336,-0.0168,0.0,0.0,0.0,0.0,0.0,0.0,0.0,0.0,0.0,0.0,0.0,0.0,0.0,0.0,0.0,0.0,0.0,0.0,0.0,0.0,0.0,0.0056,0.0671,0.0838,0.1062,0.2565,0.368,0.4519,0.4519,0.4519,0.4519,0.4519,0.4897,0.5273,0.5273,0.6362,0.7456,0.7456,0.8156,0.8857,0.8956,0.951,1.0218,1.0864,1.1575,1.2187,1.2774,1.2803,1.2782,1.2926,1.3325,1.3712,1.3912,1.4463,1.4817,1.4888,1.4916,1.4865,1.4739,1.4727,1.4727,1.4727,1.484,1.4942,1.5018,1.5018,1.5504,1.655,1.6473,1.7164,1.8637,1.8614,1.8539,1.8481,1.9994,2.0702,2.0671,2.1799,2.231,2.231,2.236,2.2388,2.2426,2.3038,2.3323,2.3369,2.3976,2.419,2.419,2.419,2.419,2.419,-0.4519,-0.4519,-0.4519,-0.4519,-0.4519,-0.4519,-0.4519,-0.4519,-0.4519,-0.4519,-0.4519,-0.4519,-0.4519,-0.4519,-0.3901,-0.2454,-0.0895,-0.0224,-0.0728,-0.0672,-0.0392,0.0,0.0,0.0,0.0,0.0,0.0,0.0,0.0,0.0,0.0,0.0,0.0,0.0,0.0,0.0,0.0,0.0,0.0,0.0,0.0,0.0,0.0,0.0,0.0224,0.056,0.095,0.1563,0.2286,0.3065,0.3846,0.4519,0.4519,0.4519,0.4519,0.4519,0.4948,0.5487,0.5487,0.6578,0.7723,0.7723,0.8262,0.8962,0.9614,1.0012,1.0568,1.1592,1.2089,1.2452,1.2832,1.2881,1.2968,1.3286,1.3826,1.4334,1.465,1.525,1.5635,1.5652,1.5655,1.5555,1.5291,1.5266,1.5266,1.5266,1.5505,1.5655,1.5655,1.5655,1.6053,1.685,1.6834,1.7457,1.8878,1.8834,1.8852,1.8915,2.0146,2.0828,2.1052,2.1922,2.231,2.231,2.231,2.236,2.2527,2.3014,2.3282,2.35,2.3996,2.419,2.419,2.419,2.419,2.419,-0.4519,-0.4519,-0.4519,-0.4519,-0.4519,-0.4519,-0.4519,-0.4519,-0.4519,-0.4519,-0.407,-0.3901,-0.446,-0.4519,-0.3289,-0.028,0.0,0.0,0.0,0.0,0.0,0.0,0.0,0.0,0.0,0.0,0.0,0.0,0.0,0.0,0.0,0.0,0.0,0.0,0.0,0.0,0.0,0.0,0.0,0.0,0.0112,0.0168,0.0224,0.0336,0.0783,0.1284,0.1452,0.2343,0.3511,0.3511,0.3959,0.4519,0.4519,0.4519,0.4519,0.4519,0.5058,0.5706,0.5706,0.674,0.7883,0.7883,0.8368,0.9106,1.0364,1.0712,1.1124,1.2314,1.2725,1.2881,1.2881,1.2881,1.3113,1.3684,1.4236,1.4778,1.5499,1.6051,1.638,1.6479,1.6522,1.6333,1.5881,1.5831,1.5831,1.5831,1.6258,1.6522,1.6522,1.6522,1.6752,1.7271,1.7312,1.7827,1.8893,1.8893,1.9169,1.9726,2.0499,2.1055,2.1399,2.1945,2.218,2.218,2.2282,2.2426,2.266,2.3045,2.3369,2.3649,2.4054,2.419,2.419,2.419,2.419,2.419,-0.4519,-0.4519,-0.4519,-0.4519,-0.4519,-0.4519,-0.4519,-0.4519,-0.4519,-0.4519,-0.2232,-0.1619,-0.4239,-0.4519,-0.3289,-0.028,0.0,0.0,0.0,0.0,0.0,0.0,0.0,0.0,0.0,0.0,0.0,0.0,0.0,0.0,0.0,0.0,0.0,0.0,0.0,0.0,0.0,0.0,0.0,0.0056,0.0671,0.095,0.1006,0.1675,0.1952,0.212,0.2843,0.3624,0.4349,0.4349,0.4405,0.4519,0.4519,0.4519,0.4519,0.4519,0.5445,0.648,0.648,0.7503,0.8646,0.8646,0.8752,0.9008,0.9762,1.0364,1.0864,1.1023,1.2049,1.2881,1.2881,1.2881,1.3113,1.3684,1.3862,1.4318,1.5443,1.5676,1.5908,1.6423,1.6522,1.6484,1.6409,1.6409,1.6409,1.6409,1.6471,1.6522,1.6522,1.6522,1.6752,1.7271,1.7312,1.7827,1.8893,1.8893,1.9169,1.9726,2.0158,2.0416,2.0501,2.1321,2.1688,2.1718,2.2106,2.2321,2.2388,2.2982,2.323,2.3346,2.3955,2.419,2.419,2.419,2.419,2.419,-0.4519,-0.4519,-0.4519,-0.4519,-0.4519,-0.4519,-0.4519,-0.4519,-0.4519,-0.4519,-0.1898,-0.0504,-0.1842,-0.2009,-0.1452,-0.0112,0.0,0.0,0.0,0.0,0.0,0.0,0.0,0.0,0.0,0.0,0.0,0.0,0.0,0.0,0.0,0.0,0.0,0.0,0.0,0.0,0.0,0.0,0.0,0.0056,0.0336,0.0727,0.1118,0.1452,0.212,0.2899,0.3735,0.4239,0.4519,0.4519,0.4519,0.4519,0.4519,0.4519,0.4519,0.4519,0.5222,0.6091,0.6475,0.7396,0.8262,0.8699,0.8804,0.8857,0.9159,1.0064,1.0914,1.1266,1.2197,1.2881,1.2881,1.2881,1.3113,1.3684,1.3815,1.4226,1.5443,1.5588,1.582,1.6423,1.6522,1.6522,1.6522,1.6522,1.6522,1.6522,1.6522,1.6522,1.6522,1.6522,1.6595,1.6837,1.6837,1.7394,1.8458,1.8458,1.8855,1.969,1.9874,2.0227,2.0715,2.1337,2.1718,2.2003,2.2209,2.2388,2.2537,2.2797,2.3021,2.3212,2.3522,2.3774,2.3937,2.4113,2.419,2.419]},{"header":{"parameterUnit":"m.s-1","parameterCategory":1,"la1":30.6,"la2":28.766,"lo1":-90.7593,"lo2":-88.6598,"dy":0.0162,"dx":0.0183,"nx":116,"ny":114,"refTime":"2024-05-19T06:00:00:Z","depth":0,"parameterNumber":3,"parameterNumberName":"V-component_of_WINDS"},"data":[0.0,0.0,0.0,0.0,0.0,0.0,0.0,0.0,0.0,0.0,0.0,0.0,0.0,0.0,0.0,0.0,0.0,0.0,0.0,0.0,0.0,0.0,0.0,0.0,0.0,0.0,0.0,0.0,0.0,0.0,0.0,0.0,0.0,0.0,0.0,0.0,0.0,0.0,0.0,0.0,0.0,0.0,0.0,0.0,0.0,0.0,0.0,0.0,0.0,0.0,0.0,0.0,0.0,0.0,0.0,0.0,0.0,0.0,0.0,0.0,0.0,0.0,0.0,0.0,0.0,0.0,0.0,0.0,0.0,0.0,0.0,0.0,0.0,0.0,0.0,0.0,0.0,0.0,0.0,0.0,0.0,0.0,0.0,0.0,0.0,0.0,0.0,0.0,0.0,0.0,0.0,0.0,0.0,0.0,0.0,0.0,0.0,0.0,0.0,0.0,0.0,0.0,0.0,0.0,0.0,0.0,0.0,0.0,0.0,0.0,0.0,0.0,0.0,0.0,0.0,0.0,0.0,0.0,0.0,0.0,0.0,0.0,0.0,0.0,0.0,0.0,0.0,0.0,0.0,0.0,0.0,0.0,0.0,0.0,0.0,0.0,0.0,0.0,0.0,0.0,0.0,0.0,0.0,0.0,0.0,0.0,0.0,0.0,0.0,0.0,0.0,0.0,0.0,0.0,0.0,0.0,0.0,0.0,0.0,0.0,0.0,0.0,0.0,0.0,0.0,0.0,0.0,0.0,0.0,0.0,0.0,0.0,0.0,0.0,0.0,0.0,0.0,0.0,0.0,0.0,0.0,0.0,0.0,0.0,0.0,0.0,0.0,0.0,0.0,0.0,0.0,0.0,0.0,0.0,0.0,0.0,0.0,0.0,0.0,0.0,0.0,0.0,0.0,0.0,0.0,0.0,0.0,0.0,0.0,0.0,0.0,0.0,0.0,0.0,0.0,0.0,0.0,0.0,0.0,0.0,0.0,0.0,0.0,0.0,0.0,0.0,0.0,0.0,0.0,0.0,0.0,0.0,0.0,0.0,0.0,0.0,0.0,0.0,0.0,0.0,0.0,0.0,0.0,0.0,0.0,0.0,0.0,0.0,0.0,0.0,0.0,0.0,0.0,0.0,0.0,0.0,0.0,0.0,0.0,0.0,0.0,0.0,0.0,0.0,0.0,0.0,0.0,0.0,0.0,0.0,0.0,0.0,0.0,0.0,0.0,0.0,0.0,0.0,0.0,0.0,0.0,0.0,0.0,0.0,0.0,0.0,0.0,0.0,0.0,0.0,0.0,0.0,0.0,0.0,0.0,0.0,0.0,0.0,0.0,0.0,0.0,0.0,0.0,0.0,0.0,0.0,0.0,0.0,0.0,0.0,0.0,0.0,0.0,0.0,0.0,0.0,0.0,0.0,0.0,0.0,0.0,0.0,0.0,0.0,0.0,0.0,0.0,0.0,0.0,0.0,0.0,0.0,0.0,0.0,0.0,0.0,0.0,0.0,0.0,0.0,0.0,0.0,0.0,0.0,0.0,0.0,0.0,0.0,0.0,0.0,0.0,0.0,0.0,0.0,0.0,0.0,0.0,0.0,0.0,0.0,0.0,0.0,0.0,0.0,0.0,0.0,0.0,0.0,0.0,0.0,0.0,0.0,0.0,0.0,0.0,0.0,0.0,0.0,0.0,0.0,0.0,0.0,0.0,0.0,0.0,0.0,0.0,0.0,0.0,0.0,0.0,0.0,0.0,0.0,0.0,0.0,0.0,0.0,0.0,0.0,0.0,0.0,0.0,0.0,0.0,0.0,0.0,0.0,0.0,0.0,0.0,0.0,0.0,0.0,0.0,0.0,0.0,0.0,0.0,0.0,0.0,0.0,0.0,0.0,0.0,0.0,0.0,0.0,0.0,0.0,0.0,0.0,0.0,0.0,0.0,0.0,0.0,0.0,0.0,0.0,0.0,0.0,0.0,0.0,0.0,0.0,0.0,0.0,0.0,0.0,0.0,0.0,0.0,0.0,0.0,0.0,0.0,0.0,0.0,0.0,0.0,0.0,0.0,0.0,0.0,0.0,0.0,0.0,0.0,0.0,0.0,0.0,0.0,0.0,0.0,0.0,0.0,0.0,0.0,0.0,0.0,0.0,0.0,0.0,0.0,0.0,0.0,0.0,0.0,0.0,0.0,0.0,0.0,0.0,0.0,0.0,0.0,0.0,0.0,0.0,0.0,0.0,0.0,0.0,0.0,0.0,0.0,0.0,0.0,0.0,0.0,0.0,0.0,0.0,0.0,0.0,0.0,0.0,0.0,0.0,0.0,0.0,0.0,0.0,0.0,0.0,0.0,0.0,0.0,0.0,0.0,0.0,0.0,0.0,0.0,0.0,0.0,0.0,0.0,0.0,0.0,0.0,0.0,0.0,0.0,0.0,0.0,0.0,0.0,0.0,0.0,0.0,0.0,0.0,0.0,0.0,0.0,0.0,0.0,0.0,0.0,0.0,0.0,0.0,0.0,0.0,0.0,0.0,0.0,0.0,0.0,0.0,0.0,0.0,0.0,0.0,0.0,0.0,0.0,0.0,0.0,0.0,0.0,0.0,0.0,0.0,0.0,0.0,0.0,0.0,0.0,0.0,0.0,0.0,0.0,0.0,0.0,0.0,0.0,0.0,0.0,0.0,0.0,0.0,0.0,0.0,0.0,0.0,0.0,0.0,0.0,0.0,0.0,0.0,0.0,0.0,0.0,0.0,0.0,0.0,0.0,0.0,0.0,0.0,0.0,0.0,0.0,0.0,0.0,0.0,0.0,0.0,0.0,0.0,0.0,0.0,0.0,0.0,0.0,0.0,0.0,0.0,0.0,0.0,0.0,0.0,0.0,0.0,0.0,0.0,0.0,0.0,0.0,0.0,0.0,0.0,0.0,0.0,0.0,0.0,0.0,0.0,0.0,0.0,0.0,0.0,0.0,0.0,0.0,0.0,0.0,0.0,0.0,0.0,0.0,0.0,0.0,0.0,0.0,0.0,0.0,0.0,0.0,0.0,0.0,0.0,0.0,0.0,0.0,0.0,0.0,0.0,0.0,0.0,0.0,0.0,0.0,0.0,0.0,0.0,0.0,0.0,0.0,0.0,0.0,0.0,0.0,0.0,0.0,0.0,0.0,0.0,0.0,0.0,0.0,0.0,0.0,0.0,0.0,0.0,0.0,0.0,0.0,0.0,0.0,0.0,0.0,0.0,0.0,0.0,0.0,0.0,0.0,0.0,0.0,0.0,0.0,0.0,0.0,0.0,0.0,0.0,0.0,0.0,0.0,0.0,0.0,0.0,0.0,0.0,0.0,0.0,0.0,0.0,0.0,0.0,0.0,0.0,0.0,0.0,0.0,0.0,0.0,0.0,0.0,0.0,0.0,0.0,0.0,0.0,0.0,0.0,0.0,0.0,0.0,0.0,0.0,0.0,0.0,0.0,0.0,0.0,0.0,0.0,0.0,0.0,0.0,0.0,0.0,0.0,0.0,0.0,0.0,0.0,0.0,0.0,0.0,0.0,0.0,0.0,0.0,0.0,0.0,0.0,0.0,0.0,0.0,0.0,0.0,0.0,0.0,0.0,0.0,0.0,0.0,0.0,0.0,0.0,0.0,0.0,0.0,0.0,0.0,0.0,0.0,0.0,0.0,0.0,0.0,0.0,0.0,0.0,0.0,0.0,0.0,0.0,0.0,0.0,0.0,0.0,0.0,0.0,0.0,0.0,0.0,0.0,0.0,0.0,0.0,0.0,0.0,0.0,0.0,0.0,0.0,0.0,0.0,0.0,0.0,0.0,0.0,0.0,0.0,0.0,0.0,0.0,0.0,0.0,0.0,0.0,0.0,0.0,0.0,0.0,0.0,0.0,0.0,0.0,0.0,0.0,0.0,0.0,0.0,0.0,0.0,0.0,0.0,0.0,0.0,0.0,0.0,0.0,0.0,0.0,0.0,0.0,0.0,0.0,0.0,0.0,0.0,0.0,0.0,0.0,0.0,0.0,0.0,0.0,0.0,0.0,0.0,0.0,0.0,0.0,0.0,0.0,0.0,0.0,0.0,0.0,0.0,0.0,0.0,0.0,0.0,0.0,0.0,0.0,0.0,0.0,0.0,0.0,0.0,0.0,0.0,0.0,0.0,0.0,0.0,0.0,0.0,0.0,0.0,0.0,0.0,0.0,0.0,0.0,0.0,0.0,0.0,0.0,0.0,0.0,0.0,0.0,0.0,0.0,0.0,0.0,0.0,0.0,0.0,0.0,0.0,0.0,0.0,0.0,0.0,0.0,0.0,0.0,0.0,0.0,0.0,0.0,0.0,0.0,0.0,0.0,0.0,0.0,0.0,0.0,0.0,0.0,0.0,0.0,0.0,0.0,0.0,0.0,0.0,0.0,0.0,0.0,0.0,0.0,0.0,0.0,0.0,0.0,0.0,0.0,0.0,0.0,0.0,0.0,0.0,0.0,0.0,0.0,0.0,0.0,0.0,0.0,0.0,0.0,0.0,0.0,0.0,0.0,0.0,0.0,0.0,0.0,0.0,0.0,0.0,0.0,0.0,0.0,0.0,0.0,0.0,0.0,0.0,0.0,0.0,0.0,0.0,0.0,0.0,0.0,0.0,0.0,0.0,0.0,0.0,0.0,0.0,0.0,0.0,0.0,0.0,0.0,0.0,0.0,0.0,0.0,0.0,0.0,0.0,0.0,0.0,0.0,0.0,0.0,0.0,0.0,0.0,0.0,0.0,0.0,0.0,0.0,0.0,0.0,0.0,0.0,0.0,0.0,0.0,0.0,0.0,0.0,0.0,0.0,0.0,0.0,0.0,0.0,0.0,0.0,0.0,0.0,0.0,0.0,0.0,0.0,0.0,0.0,0.0,0.0,0.0,0.0,0.0,0.0,0.0,0.0,0.0,0.0,0.0,0.0,0.0,0.0,0.0,0.0,0.0,0.0,0.0,0.0,0.0,0.0,0.0,0.0,0.0,0.0,0.0,0.0,0.0,0.0,0.0,0.0,0.0,0.0,0.0,0.0,0.0,0.0,0.0,0.0,0.0,0.0,0.0,0.0,0.0,0.0,0.0,0.0,0.0,0.0,0.0,0.0,0.0,0.0,0.0,0.0,0.0,0.0,0.0,0.0,0.0,0.0,0.0,0.0,0.0,0.0,0.0,0.0,0.0,0.0,0.0,0.0,0.0,0.0,0.0,0.0,0.0,0.0,0.0,0.0,0.0,0.0,0.0,0.0,0.0,0.0,0.0,0.0,0.0,0.0,0.0,0.0,0.0,0.0,0.0,0.0,0.0,0.0,0.0,0.0,0.0,0.0,0.0,0.0,0.0,0.0,0.0,0.0,0.0,0.0,0.0,0.0,0.0,0.0,0.0,0.0,0.0,0.0,0.0,0.0,0.0,0.0,0.0,0.0,0.0,0.0,0.0,0.0,0.0,0.0,0.0,0.0,0.0,0.0,0.0,0.0,0.0,0.0,0.0,0.0,0.0,0.0,0.0,0.0,0.0,0.0,0.0,0.0,0.0,0.0,0.0,0.0,0.0,0.0,0.0,0.0,0.0,0.0,0.0,0.0,0.0,0.0,0.0,0.0,0.0,0.0,0.0,0.0,0.0,0.0,0.0,0.0,0.0,0.0,0.0,0.0,0.0,0.0,0.0,0.0,0.0,0.0,0.0,0.0,0.0,0.0,0.0,0.0,0.0,0.0,0.0,0.0,0.0,0.0,0.0,0.0,0.0,0.0,0.0,0.0,0.0,0.0,0.0,0.0,0.0,0.0,0.0,0.0,0.0,0.0,0.0,0.0,0.0,0.0,0.0,0.0,0.0,0.0,0.0,0.0,0.0,0.0,0.0,0.0,0.0,0.0,0.0,0.0,0.0,0.0,0.0,0.0,0.0,0.0,0.0,0.0,0.0,0.0,0.0,0.0,0.0,0.0,0.0,0.0,0.0,0.0,0.0,0.0,0.0,0.0,0.0,0.0,0.0,0.0,0.0,0.0,0.0,0.0,0.0,0.0,0.0,0.0,0.0,0.0,0.0,0.0,0.0,0.0,0.0,0.0,0.0,0.0,0.0,0.0,0.0,0.0,0.0,0.0,0.5733,0.5708,0.0,0.0,0.0,0.0,0.0,0.0,0.0,0.0,0.0,0.0,0.0,0.0,0.0,0.0,0.0,0.0,0.0,0.0,0.0,0.0,0.0,0.0,0.0,0.4073,0.4037,0.4005,0.4046,0.4031,0.4005,0.0,0.0,0.0,0.0,0.0,0.3906,0.397,0.4085,0.4234,0.4327,0.4719,0.5376,0.5088,0.4937,0.486,0.0,0.0,0.0,0.0,0.0,0.0,0.0,0.0,0.0,0.0,0.0,0.0,0.0,0.0,0.0,0.0,0.0,0.0,0.0,0.0,0.0,0.0,0.0,0.0,0.0,0.0,0.0,0.0,0.0,0.0,0.0,0.0,0.0,0.0,0.0,0.0,0.0,0.0,0.0,0.0,0.0,0.0,0.0,0.0,0.0,0.0,0.0,0.0,0.0,0.0,0.0,0.0,0.0,0.0,0.0,0.0,0.0,0.0,0.0,0.0,0.0,0.0,0.0,0.0,0.0,0.0,0.0,0.0,0.0,0.0,0.6563,0.6391,0.0,0.0,0.0,0.0,0.0,0.0,0.0,0.0,0.0,0.0,0.0,0.0,0.0,0.0,0.0,0.0,0.0,0.0,0.0,0.0,0.0,0.4133,0.4075,0.3949,0.3891,0.3906,0.3906,0.3906,0.3906,0.3906,0.0,0.0,0.0,0.3898,0.3884,0.3965,0.4213,0.4573,0.4988,0.5495,0.6082,0.6186,0.6246,0.6231,0.6007,0.0,0.0,0.0,0.0,0.0,0.0,0.0,0.0,0.0,0.0,0.0,0.0,0.0,0.0,0.0,0.0,0.0,0.0,0.0,0.0,0.0,0.0,0.0,0.0,0.0,0.0,0.0,0.0,0.0,0.0,0.0,0.0,0.0,0.0,0.0,0.0,0.0,0.0,0.0,0.0,0.0,0.0,0.0,0.0,0.0,0.0,0.0,0.0,0.0,0.0,0.0,0.0,0.0,0.0,0.0,0.0,0.0,0.0,0.0,0.0,0.0,0.0,0.0,0.6787,0.6855,0.6875,0.7256,0.768,0.8107,0.7921,0.7622,0.7308,0.7415,0.0,0.0,0.0,0.0,0.0,0.0,0.0,0.0,0.0,0.0,0.0,0.0,0.0,0.0,0.0,0.0,0.0,0.0,0.0,0.3926,0.3934,0.3855,0.3832,0.3898,0.3906,0.3906,0.3906,0.3906,0.0,0.0,0.3906,0.3869,0.3817,0.4264,0.4509,0.4504,0.5762,0.6511,0.678,0.7361,0.7644,0.7584,0.6422,0.5858,0.5758,0.0,0.0,0.0,0.0,0.0,0.0,0.0,0.0,0.0,0.0,0.0,0.0,0.0,0.0,0.0,0.0,0.0,0.0,0.0,0.0,0.0,0.0,0.0,0.0,0.0,0.0,0.0,0.0,0.0,0.0,0.0,0.0,0.0,0.0,0.0,0.0,0.0,0.0,0.0,0.0,0.0,0.4664,0.499,0.0,0.0,0.0,0.0,0.0,0.0,0.0,0.0,0.0,0.0,0.0,0.0,0.0,0.6141,0.5981,0.7003,0.753,0.753,0.8301,0.8662,0.8662,0.873,0.9003,0.9457,0.977,0.0,0.8502,0.8749,0.0,0.0,0.0,0.0,0.0,0.0,0.0,0.0,0.0,0.0,0.0,0.0,0.0,0.0,0.0,0.0,0.0,0.0,0.0,0.0,0.0,0.4206,0.4318,0.4663,0.479,0.4694,0.4317,0.4399,0.4286,0.3921,0.3869,0.3968,0.4241,0.4285,0.4645,0.5291,0.6394,0.7056,0.7299,0.7707,0.7899,0.7869,0.7164,0.6643,0.6295,0.6208,0.0,0.0,0.0,0.0,0.0,0.0,0.0,0.0,0.0,0.0,0.0,0.0,0.0,0.0,0.0,0.0,0.0,0.0,0.0,0.0,0.0,0.0,0.0,0.0,0.0,0.0,0.0,0.0,0.0,0.0,0.0,0.0,0.0,0.0,0.0,0.0,0.0,0.0,0.0,0.4495,0.4959,0.5088,0.5108,0.5108,0.0,0.0,0.0,0.0,0.0,0.0,0.0,0.0,0.0,0.5749,0.6633,0.7067,0.6959,0.7947,0.8415,0.8447,0.8828,0.9004,0.9014,0.9248,0.9756,1.052,1.0932,1.099,1.0755,1.0204,0.9623,0.9018,0.0,0.0,0.0,0.0,0.8647,0.8322,0.0,0.0,0.0,0.0,0.0,0.0,0.0,0.0,0.0,0.0,0.0,0.0,0.4396,0.4423,0.4644,0.5245,0.5491,0.5387,0.0,0.0,0.4674,0.4143,0.3927,0.399,0.4416,0.4427,0.4997,0.6162,0.6865,0.7348,0.7605,0.7797,0.7899,0.7885,0.762,0.7286,0.6923,0.6758,0.6269,0.0,0.0,0.0,0.0,0.0,0.0,0.0,0.0,0.0,0.0,0.0,0.0,0.0,0.0,0.0,0.0,0.0,0.0,0.0,0.0,0.0,0.0,0.0,0.0,0.0,0.0,0.0,0.0,0.0,0.0,0.0,0.0,0.0,0.0,0.0,0.0,0.0,0.0,0.4792,0.5234,0.5127,0.5302,0.539,0.0,0.0,0.0,0.0,0.0,0.0,0.5745,0.6356,0.6694,0.6615,0.754,0.8026,0.8026,0.8789,0.916,0.916,0.9277,0.9326,0.9346,0.9758,1.0422,1.1284,1.176,1.2268,1.2741,1.1584,1.0899,1.0508,1.0109,0.9643,0.9337,1.0368,1.0362,0.9996,0.0,0.0,0.0,0.0,0.0,0.0,0.0,0.0,0.0,0.0,0.0,0.358,0.4249,0.4201,0.4432,0.5233,0.5491,0.5594,0.0,0.0,0.4856,0.4765,0.4149,0.3848,0.3939,0.4861,0.5835,0.6855,0.7085,0.0,0.7605,0.7797,0.7899,0.7885,0.7425,0.7456,0.7782,0.7162,0.6758,0.6501,0.0,0.0,0.0,0.0,0.0,0.0,0.0,0.0,0.0,0.0,0.0,0.0,0.0,0.0,0.0,0.0,0.0,0.0,0.0,0.0,0.0,0.0,0.0,0.0,0.0,0.0,0.0,0.0,0.0,0.0,0.0,0.0,0.0,0.0,0.0,0.0,0.0,0.0,0.0,0.5156,0.5827,0.0,0.0,0.0,0.0,0.5951,0.5985,0.6169,0.6618,0.7272,0.7822,0.8271,0.8711,0.8945,0.8945,0.9349,0.9563,0.9563,1.002,1.0215,1.0253,1.0712,1.118,1.1688,1.2173,1.2952,1.384,1.2756,1.1782,1.0953,1.0929,1.1005,1.1205,1.1595,1.2073,1.2539,0.0,0.0,0.0,0.0,0.0,0.3934,0.3847,0.3749,0.3618,0.3479,0.3559,0.3915,0.0,0.4867,0.5269,0.6069,0.6442,0.6464,0.6075,0.0,0.5427,0.5325,0.4386,0.404,0.4416,0.5396,0.6023,0.0,0.0,0.0,0.0,0.0,0.0,0.0,0.0,0.7629,0.7679,0.7123,0.6857,0.678,0.6576,0.6127,0.0,0.0,0.0,0.0,0.0,0.0,0.0,0.0,0.0,0.0,0.0,0.0,0.0,0.0,0.0,0.0,0.0,0.0,0.0,0.0,0.0,0.0,0.0,0.0,0.0,0.0,0.0,0.0,0.0,0.0,0.0,0.0,0.0,0.0,0.0,0.0,0.0,0.5937,0.6221,0.0,0.6191,0.6223,0.6375,0.6697,0.6938,0.73,0.7761,0.8248,0.8623,0.8779,0.9189,0.9369,0.9369,0.9834,1.0049,1.0059,1.054,1.0723,1.0724,1.1616,1.203,1.2142,1.306,1.3666,1.399,1.4013,1.38,1.3506,1.3506,1.335,1.316,1.3631,1.3704,1.3662,0.0,0.0,0.0,0.0,0.3963,0.3862,0.3749,0.3658,0.3525,0.3327,0.3611,0.409,0.4793,0.5219,0.5764,0.6532,0.6898,0.6933,0.6537,0.0,0.5869,0.5642,0.4783,0.447,0.4827,0.5676,0.6034,0.0,0.0,0.0,0.0,0.0,0.0,0.0,0.0,0.0,0.0,0.7557,0.7187,0.6908,0.6824,0.6506,0.6048,0.0,0.0,0.0,0.0,0.0,0.0,0.0,0.0,0.0,0.0,0.0,0.0,0.0,0.0,0.0,0.0,0.0,0.0,0.0,0.0,0.0,0.0,0.0,0.0,0.0,0.0,0.0,0.0,0.0,0.0,0.0,0.0,0.0,0.0,0.0,0.6328,0.6611,0.6895,0.707,0.707,0.7197,0.7412,0.7715,0.7998,0.835,0.8779,0.9062,0.9287,0.9434,0.9707,0.9853,0.9853,1.0137,1.0469,1.0853,1.1134,1.1452,1.1778,1.2698,1.3047,1.2968,1.3923,1.441,1.4589,1.4959,1.5256,1.5392,1.5054,1.4809,1.4667,1.5062,1.5042,1.4976,0.0,0.0,0.0,0.3906,0.3906,0.3833,0.3636,0.3605,0.3444,0.3001,0.352,0.4114,0.4594,0.5231,0.5903,0.6549,0.6791,0.6894,0.6908,0.6507,0.6101,0.5685,0.5317,0.5111,0.5095,0.5611,0.5893,0.0,0.0,0.0,0.0,0.0,0.0,0.0,0.0,0.0,0.0,0.0,0.7803,0.6927,0.6735,0.6637,0.6624,0.0,0.0,0.0,0.0,0.0,0.0,0.0,0.0,0.0,0.0,0.0,0.0,0.0,0.0,0.0,0.0,0.0,0.0,0.0,0.0,0.0,0.0,0.0,0.0,0.0,0.0,0.0,0.0,0.0,0.0,0.0,0.0,0.0,0.5842,0.6562,0.7109,0.7139,0.7871,0.8411,0.843,0.8803,0.9048,0.9057,0.9057,0.9209,0.9629,0.9612,0.9844,1.0273,1.0283,1.0322,1.0322,1.0332,1.0902,1.1922,1.1882,1.241,1.3429,1.3934,1.4134,1.4145,1.4662,1.5148,1.5588,1.5632,1.5952,1.6409,1.5341,1.5254,1.5718,1.5718,1.6057,1.6522,0.0,0.0,0.3906,0.3906,0.3906,0.3869,0.3757,0.3665,0.3679,0.3881,0.4197,0.4726,0.56,0.6073,0.6465,0.6794,0.7012,0.7048,0.6911,0.0,0.5605,0.5013,0.5241,0.5294,0.51,0.0,0.0,0.0,0.0,0.0,0.0,0.0,0.0,0.0,0.0,0.0,0.0,0.0,0.8518,0.7915,0.7854,0.7563,0.715,0.0,0.0,0.0,0.0,0.0,0.0,0.0,0.0,0.0,0.0,0.0,0.0,0.0,0.0,0.0,0.0,0.0,0.0,0.0,0.0,0.0,0.0,0.0,0.0,0.0,0.0,0.0,0.0,0.0,0.0,0.0,0.624,0.6738,0.6738,0.6943,0.7334,0.7959,0.8263,0.8646,0.9272,0.945,0.9791,1.046,1.0217,1.018,1.0586,1.0288,1.0156,1.0312,1.0283,1.0467,1.0791,1.1248,1.1794,1.2435,1.3117,1.3604,1.395,1.4832,1.4983,1.4598,1.5584,1.5874,1.5632,1.6051,1.6337,1.6484,1.6183,1.6158,1.6296,1.6296,1.6384,1.6552,0.0,0.3906,0.3906,0.3906,0.3906,0.3877,0.3809,0.3734,0.3735,0.3904,0.4513,0.5151,0.5701,0.6413,0.6888,0.7029,0.7048,0.6983,0.6781,0.0,0.5501,0.5209,0.0,0.5368,0.0,0.0,0.0,0.0,0.0,0.0,0.0,0.0,0.0,0.0,0.0,0.0,0.0,0.0,0.9046,0.8776,0.893,0.8499,0.7756,0.7653,0.7384,0.7028,0.6571,0.647,0.6462,0.5694,0.0,0.0,0.0,0.0,0.0,0.0,0.0,0.0,0.0,0.0,0.0,0.0,0.0,0.0,0.0,0.0,0.0,0.0,0.0,0.0,0.0,0.0,0.0,0.0,0.6914,0.7432,0.7607,0.7637,0.7881,0.8564,0.8988,0.9504,1.0179,1.0465,1.0827,1.135,1.1135,1.1075,1.1308,1.1067,1.085,1.0611,1.0802,1.1047,1.1341,1.1901,1.2675,1.3604,1.422,1.469,1.5128,1.5738,1.5813,1.5478,1.6207,1.6281,1.6008,1.638,1.6522,1.6522,0.0,0.0,0.0,0.0,1.6522,1.6595,0.0,0.3906,0.3906,0.3906,0.3906,0.3877,0.3824,0.3802,0.3739,0.357,0.0,0.5349,0.5439,0.6463,0.7157,0.7227,0.7061,0.6815,0.0,0.0,0.0,0.5893,0.5633,0.5387,0.0,0.0,0.0,0.0,0.0,0.0,0.0,0.0,0.0,0.0,0.0,0.0,0.0,0.0,0.9343,0.9434,0.9712,0.9266,0.8386,0.8386,0.8361,0.8214,0.7486,0.7243,0.7091,0.609,0.0,0.0,0.0,0.0,0.0,0.0,0.0,0.0,0.0,0.0,0.0,0.0,0.0,0.0,0.0,0.0,0.0,0.0,0.0,0.0,0.0,0.0,0.0,0.0,0.7529,0.7949,0.8389,0.8496,0.8662,0.9033,0.9862,1.0587,1.1052,1.1579,1.1884,1.1957,1.192,1.1884,1.1884,1.1811,0.0,0.0,0.0,1.1903,1.189,1.2524,1.3593,1.509,1.5151,1.5642,1.6522,1.6522,1.6522,1.6522,1.6522,1.6522,1.6522,1.6522,1.6522,1.6522,1.6522,1.6522,1.6522,1.6522,1.6522,1.6595,0.0,0.3906,0.3906,0.3906,0.3906,0.3898,0.3884,0.3832,0.395,0.4387,0.4587,0.5126,0.6293,0.6598,0.6928,0.7487,0.7286,0.6891,0.0,0.0,0.0,0.0,0.0,0.0,0.0,0.0,0.0,0.0,0.0,0.0,0.0,0.0,0.0,0.0,0.0,0.0,0.0,0.0,0.9101,0.9408,0.9475,0.9279,0.8949,0.8949,0.8663,0.8286,0.813,0.8072,0.7983,0.744,0.6927,0.6455,0.6343,0.0,0.0,0.0,0.0,0.0,0.0,0.0,0.0,0.0,0.0,0.0,0.0,0.0,0.0,0.0,0.0,0.0,0.0,0.0,0.0,0.7491,0.7969,0.8398,0.8818,0.918,0.9388,0.9466,1.0047,1.0741,1.1571,1.2066,1.2508,1.2908,1.2579,1.2354,1.2354,1.1993,1.1542,1.1019,1.1927,1.2451,1.2463,1.3819,1.4885,1.557,1.6006,0.0,1.6522,1.6522,1.6522,1.6522,1.6522,1.6522,1.6522,1.6522,1.6522,1.6522,1.6522,1.6522,1.6522,1.6522,1.6522,1.6595,0.4058,0.4026,0.3998,0.3998,0.3998,0.3998,0.3998,0.3971,0.404,0.4265,0.4593,0.5085,0.5816,0.6145,0.6424,0.6762,0.6531,0.0,0.0,0.0,0.0,0.0,0.0,0.0,0.0,0.0,0.0,0.0,0.0,0.0,0.0,0.0,0.0,0.0,0.0,0.0,0.0,0.0,0.8662,0.8855,0.9046,0.9045,0.899,0.9355,0.9328,0.9064,0.8788,0.8688,0.857,0.777,0.7281,0.6913,0.6489,0.6117,0.5864,0.0,0.0,0.0,0.0,0.0,0.0,0.0,0.0,0.0,0.0,0.0,0.0,0.0,0.0,0.623,0.0,0.0,0.7627,0.8262,0.873,0.9082,0.9287,0.9687,0.9873,0.9622,1.0256,1.0987,1.1715,1.221,1.2685,1.3163,1.2978,1.2838,1.2838,1.2615,1.2399,1.2159,1.2951,1.3492,1.3801,1.4824,1.5612,1.6107,1.6384,1.6522,1.6522,1.6522,1.6522,1.6522,1.6522,1.6522,1.6522,1.6522,1.6522,1.6522,1.6522,1.6522,1.6522,1.6522,1.6522,1.6595,0.4195,0.4166,0.4136,0.4123,0.4123,0.4123,0.4123,0.4123,0.408,0.3998,0.4517,0.4959,0.5125,0.5531,0.5818,0.0,0.0,0.0,0.0,0.0,0.0,0.0,0.0,0.0,0.0,0.0,0.0,0.0,0.0,0.0,0.0,0.0,0.0,0.0,0.0,0.0,0.0,0.0,0.8099,0.8223,0.8578,0.8734,0.8871,0.9463,0.9738,0.9728,0.9168,0.9006,0.8848,0.7761,0.7248,0.7013,0.6436,0.6202,0.6136,0.6149,0.6088,0.0,0.0,0.0,0.0,0.0,0.0,0.0,0.0,0.0,0.5965,0.5921,0.624,0.6787,0.7549,0.7773,0.8104,0.8984,0.9378,0.9622,0.9709,1.0059,1.0156,0.9795,1.0501,1.1169,1.1579,1.2174,1.265,1.306,1.3163,1.3198,1.3198,1.3198,1.3189,1.3144,1.3765,1.4318,1.4827,1.5409,1.5944,1.6522,1.6522,1.6522,1.6522,1.6522,1.6522,1.6522,1.6595,1.668,1.668,1.668,1.6595,1.6522,1.6522,1.6522,1.6522,1.6522,1.6522,1.6552,0.0,0.4242,0.4255,0.4205,0.4198,0.4198,0.4198,0.4198,0.4211,0.4242,0.4232,0.4482,0.5199,0.5127,0.5193,0.0,0.0,0.0,0.0,0.0,0.0,0.0,0.0,0.0,0.0,0.0,0.0,0.0,0.0,0.0,0.0,0.0,0.0,0.0,0.0,0.0,0.0,0.0,0.7443,0.7801,0.8195,0.8523,0.8816,0.8899,0.9143,0.9389,0.8788,0.8646,0.8622,0.7898,0.7101,0.6414,0.6455,0.6219,0.5941,0.5941,0.0,0.6594,0.689,0.7056,0.6992,0.6329,0.6441,0.6717,0.0,0.0,0.6633,0.6386,0.6699,0.7168,0.7608,0.8047,0.8584,0.9388,0.9563,0.9729,1.0156,1.0254,1.0264,1.0215,1.0685,1.1019,1.1094,1.1945,1.2508,1.2579,1.2943,1.3198,1.3198,1.3198,1.2998,1.2519,1.3497,1.4052,1.4198,1.5148,1.5903,1.6522,1.6522,1.6522,1.6522,1.6522,1.6522,1.6522,1.6993,1.7188,1.7188,1.7188,1.6909,1.6522,1.6522,1.6522,1.6522,1.6522,1.6522,1.6522,0.0,0.4403,0.4409,0.4385,0.4314,0.4249,0.4201,0.4236,0.4255,0.4242,0.4224,0.4343,0.4671,0.4552,0.4553,0.0,0.0,0.0,0.571,0.0,0.0,0.0,0.0,0.0,0.0,0.0,0.0,0.0,0.0,0.0,0.0,0.0,0.0,0.0,0.0,0.0,0.0,0.6579,0.699,0.7355,0.753,0.783,0.8135,0.7904,0.8042,0.8342,0.8332,0.819,0.0,0.0,0.7214,0.6837,0.6583,0.6383,0.6212,0.5971,0.6376,0.0,0.7345,0.7125,0.6738,0.0,0.6762,0.69,0.6621,0.696,0.7286,0.7178,0.7725,0.834,0.8727,0.895,0.9307,0.0,1.001,1.0078,1.0254,1.0283,1.0283,1.0283,1.0467,1.0687,1.0981,1.1653,1.221,1.2461,1.2943,1.3336,1.3697,1.3408,1.3362,1.3784,1.3912,1.4127,1.444,1.5215,1.5732,1.5964,1.6324,1.6522,1.6522,1.6522,1.668,1.6993,1.7188,1.7463,1.7787,1.7787,1.7626,1.7422,1.7422,1.7229,1.6909,1.6637,1.6522,1.6522,0.0,0.452,0.4523,0.4499,0.442,0.4332,0.4296,0.432,0.4332,0.4296,0.4302,0.4286,0.4251,0.4179,0.4181,0.0,0.0,0.0,0.0,0.6161,0.0,0.0,0.0,0.0,0.0,0.0,0.0,0.0,0.0,0.0,0.0,0.0,0.0,0.0,0.0,0.0,0.0,0.6113,0.6518,0.6781,0.688,0.7123,0.7329,0.7033,0.7002,0.716,0.7527,0.7438,0.0,0.0,0.6826,0.6652,0.6418,0.6288,0.6183,0.6026,0.6502,0.7101,0.7255,0.7014,0.0,0.6849,0.7074,0.7187,0.6846,0.7335,0.7841,0.769,0.8358,0.9062,0.9333,0.9483,0.9738,1.0215,1.0283,1.0283,1.0283,1.0283,1.0283,1.0283,1.0283,1.0428,1.0753,1.1282,1.1774,1.2282,1.2615,1.3093,1.3779,1.3301,1.3414,1.4281,1.3929,1.3976,1.4457,1.4869,1.5264,1.5588,1.6051,1.6337,1.6522,1.6522,1.6879,1.7504,1.7504,1.7827,1.8341,1.8341,1.8224,1.8106,1.7947,1.7747,1.7422,1.6752,1.6522,1.6522,0.0,0.0,0.4577,0.4506,0.4499,0.4494,0.4494,0.4494,0.4494,0.4494,0.4379,0.4259,0.4123,0.4159,0.4166,0.0,0.0,0.0,0.501,0.6012,0.648,0.0,0.0,0.0,0.0,0.0,0.0,0.0,0.0,0.0,0.0,0.0,0.0,0.0,0.0,0.0,0.487,0.5603,0.5913,0.5975,0.6366,0.6536,0.6548,0.6511,0.6235,0.5886,0.6157,0.0,0.0,0.0,0.5608,0.5263,0.5756,0.5748,0.0,0.6055,0.6583,0.6893,0.6392,0.0,0.7499,0.7177,0.7402,0.7676,0.7666,0.8037,0.8223,0.7619,0.8318,0.8958,0.8848,0.9253,0.9738,1.0215,1.0283,1.0283,1.0283,1.0283,1.0283,1.0283,1.0283,1.0322,0.0,1.0764,1.1244,1.1774,1.1811,1.221,1.3082,1.2673,1.2604,1.3055,1.3031,1.3296,1.3815,1.3862,1.4457,1.5588,1.5632,1.5908,1.6522,1.6522,1.7076,1.8066,1.8066,1.838,1.8893,1.8893,1.8574,1.8066,1.7544,1.7626,1.7947,1.6879,1.6522,1.6522,0.0,0.0,0.0,0.4392,0.4437,0.4471,0.4385,0.4442,0.4505,0.4508,0.4432,0.0,0.0,0.0,0.0,0.0,0.0,0.0,0.0,0.551,0.0,0.0,0.0,0.0,0.0,0.0,0.0,0.0,0.0,0.0,0.0,0.0,0.0,0.0,0.0,0.0,0.396,0.4205,0.4579,0.5052,0.519,0.55,0.5874,0.5596,0.5401,0.5249,0.0,0.0,0.0,0.0,0.552,0.5425,0.58,0.0,0.0,0.6486,0.6479,0.636,0.701,0.0,0.7229,0.713,0.7396,0.7627,0.7373,0.767,0.7849,0.7327,0.7739,0.8272,0.8513,0.8894,0.9337,0.975,1.0098,1.0283,1.0283,1.0283,1.0283,1.0283,1.0283,0.0,0.0,0.0,0.0,1.1244,1.1839,1.2496,1.3151,1.2921,1.2999,1.3516,1.3198,1.3042,1.319,1.4014,1.4606,1.5017,1.5832,1.6281,1.6522,1.6522,1.6879,1.7585,1.7585,1.8066,1.8893,1.8893,1.9006,1.9132,1.8968,1.8574,1.8066,1.7706,1.7118,1.6522,0.0,0.0,0.0,0.0,0.0,0.0,0.0,0.0,0.0,0.0,0.0,0.0,0.0,0.0,0.0,0.0,0.0,0.0,0.0,0.0,0.0,0.0,0.0,0.0,0.0,0.0,0.0,0.0,0.0,0.0,0.0,0.0,0.0,0.0,0.0,0.0,0.3698,0.3791,0.4033,0.4375,0.4375,0.4559,0.4826,0.4564,0.4532,0.0,0.0,0.0,0.0,0.0,0.0,0.0,0.0,0.0,0.5929,0.6425,0.6431,0.6465,0.7441,0.7358,0.7093,0.7305,0.7462,0.7467,0.7001,0.7332,0.755,0.695,0.733,0.7806,0.7904,0.8281,0.8757,0.9308,0.9488,0.9714,1.0225,1.0118,1.0088,1.0283,1.0283,1.0283,0.0,0.0,0.0,1.0981,1.1556,1.2144,1.2866,1.2754,1.2947,1.3437,1.3134,1.2946,1.2881,1.3658,1.4247,1.4698,1.5688,1.6281,1.6522,1.6522,1.6795,1.7312,1.7312,1.7787,1.8612,1.8612,1.893,1.9406,1.9207,1.8817,1.8341,1.7947,1.7394,1.6752,0.0,0.0,0.0,0.0,0.0,0.0,0.0,0.0,0.0,0.0,0.0,0.0,0.0,0.0,0.0,0.0,0.0,0.0,0.0,0.0,0.0,0.0,0.4431,0.4456,0.5417,0.4417,0.3789,0.0,0.0,0.0,0.0,0.0,0.0,0.0,0.0,0.0,0.3961,0.4216,0.4166,0.3923,0.3929,0.3735,0.3448,0.3448,0.0,0.0,0.0,0.0,0.0,0.0,0.0,0.0,0.0,0.0,0.6256,0.5912,0.6406,0.7135,0.7521,0.7271,0.7059,0.7616,0.7569,0.7214,0.6615,0.7016,0.7263,0.639,0.6991,0.7503,0.0,0.0,0.7981,0.8757,0.852,0.8677,1.0021,0.9765,0.9646,0.0,0.0,0.0,0.0,0.0,0.0,1.093,1.0945,1.1333,1.2234,1.2283,1.2451,1.2871,1.2881,1.2881,1.2881,1.2929,1.3525,1.4698,1.5276,1.5864,1.6423,1.6423,1.671,1.7216,1.7216,1.7544,1.8066,1.8066,1.838,1.8817,1.8302,1.838,1.8688,1.7666,1.7271,1.7188,0.0,0.0,0.0,0.0,0.0,0.0,0.0,0.0,0.0,0.0,0.0,0.0,0.0,0.0,0.0,0.0,0.0,0.0,0.0,0.0,0.0,0.0,0.0,0.0,0.5746,0.4439,0.0,0.0,0.0,0.0,0.0,0.0,0.0,0.0,0.0,0.0,0.0,0.3141,0.3039,0.3009,0.0,0.2846,0.2885,0.0,0.0,0.0,0.0,0.0,0.0,0.0,0.0,0.0,0.0,0.5161,0.5541,0.0,0.0,0.6529,0.6634,0.6966,0.7235,0.7072,0.703,0.6915,0.6443,0.6351,0.611,0.5355,0.5385,0.5552,0.0,0.0,0.0,0.7475,0.7948,0.0,0.9027,0.8999,0.0,0.9375,0.0,0.9478,0.9707,0.968,0.0,1.0646,1.1147,1.1679,1.2213,1.2518,1.2773,1.2881,1.2881,1.2881,1.2881,1.3324,1.3967,1.4698,1.488,1.5017,1.5152,1.5152,1.5499,1.6015,1.6015,1.6574,1.7504,1.7504,1.7827,1.8302,1.8145,1.7947,1.7666,1.7394,1.7034,1.668,0.0,0.0,0.0,0.0,0.0,0.0,0.0,0.0,0.0,0.0,0.0,0.0,0.0,0.0,0.0,0.0,0.0,0.0,0.0,0.0,0.0,0.0,0.0,0.0,0.0,0.0,0.0,0.0,0.0,0.0,0.0,0.0,0.0,0.0,0.0,0.0,0.0,0.0,0.0,0.0,0.0,0.0,0.0,0.0,0.0,0.0,0.0,0.0,0.0,0.0,0.0,0.4634,0.4894,0.5206,0.5554,0.5811,0.0,0.661,0.681,0.7083,0.7272,0.7115,0.69,0.6612,0.5999,0.5738,0.5458,0.4758,0.4531,0.0,0.4548,0.4835,0.5397,0.0,0.0,0.0,0.8347,0.8415,0.8526,0.0,0.9082,0.0,0.9479,0.9512,0.976,1.0389,1.1049,1.1672,1.2171,1.2646,1.2881,1.2881,1.2881,1.2881,1.2881,1.3238,1.3695,1.4329,1.4329,1.4422,1.4698,1.4698,1.488,1.5186,1.5186,1.5576,1.6176,1.6176,1.6634,1.7341,1.7341,1.7327,1.7312,1.7312,1.6951,1.6522,0.0,0.0,0.0,0.0,0.0,0.0,0.0,0.0,0.0,0.0,0.0,0.0,0.0,0.0,0.0,0.0,0.0,0.0,0.0,0.0,0.0,0.0,0.0,0.0,0.0,0.0,0.0,0.0,0.0,0.0,0.0,0.0,0.0,0.0,0.0,0.0,0.0,0.0,0.0,0.0,0.0,0.0,0.0,0.0,0.0,0.0,0.0,0.0,0.0,0.0,0.3297,0.4269,0.48,0.5289,0.5657,0.5714,0.6191,0.682,0.7292,0.7288,0.7212,0.7277,0.6898,0.6313,0.5504,0.5251,0.505,0.4469,0.0,0.3984,0.3895,0.3805,0.4123,0.5301,0.0,0.6019,0.7579,0.7797,0.8047,0.8751,0.8885,0.9043,0.9384,0.9424,0.9597,1.0092,1.0689,1.1327,1.1968,1.2464,1.2774,1.2881,1.2881,1.2881,1.2881,1.2881,1.3152,1.3684,1.3684,1.3967,1.4479,1.4479,1.4525,1.456,1.456,1.4606,1.4698,1.4698,1.5264,1.6164,1.6164,1.6476,1.6967,1.6967,1.6642,1.625,0.0,0.0,0.0,0.0,0.0,0.0,0.0,0.0,0.0,0.0,0.4343,0.4499,0.0,0.0,0.0,0.0,0.0,0.0,0.0,0.0,0.0,0.0,0.0,0.0,0.0,0.0,0.0,0.0,0.0,0.0,0.0,0.0,0.0,0.0,0.0,0.0,0.0,0.0,0.0,0.0,0.0,0.0,0.0,0.0,0.0,0.0,0.0,0.0,0.0,0.0,0.2634,0.3505,0.3731,0.4039,0.44,0.4715,0.5261,0.5853,0.6316,0.6735,0.697,0.6806,0.6483,0.6102,0.5457,0.509,0.0,0.0,0.4024,0.3849,0.3356,0.3406,0.3723,0.4203,0.4881,0.5462,0.5741,0.6603,0.7221,0.0,0.7836,0.8345,0.8848,0.8903,0.0,0.9826,0.998,1.0327,1.1031,1.1639,1.2295,1.2881,1.2881,1.2881,1.2881,1.2881,1.2978,1.3065,1.3065,1.3104,1.32,1.32,1.3467,1.3956,1.3956,1.4236,1.4698,1.4698,1.4835,1.5005,1.5005,1.505,1.5141,1.5141,1.5096,1.5017,0.0,0.0,0.0,0.0,0.0,0.0,0.0,0.3766,0.3847,0.3977,0.414,0.4273,0.4385,0.4391,0.4373,0.0,0.0,0.0,0.0,0.0,0.0,0.0,0.0,0.0,0.0,0.0,0.0,0.0,0.0,0.0,0.0,0.0,0.0,0.0,0.0,0.0,0.0,0.0,0.0,0.0,0.0,0.0,0.0,0.0,0.0,0.0,0.0,0.0,0.0,0.0,0.2255,0.2733,0.3303,0.3739,0.4026,0.4215,0.4598,0.4973,0.5282,0.5668,0.5973,0.5849,0.5784,0.5564,0.4872,0.0,0.0,0.0,0.3509,0.3236,0.294,0.279,0.0,0.3336,0.3884,0.4536,0.5303,0.5927,0.661,0.7433,0.7732,0.8163,0.8751,0.8804,0.8956,0.9263,0.9263,0.9718,1.0771,1.1116,1.1783,1.2881,1.2206,1.199,1.2344,1.199,1.1792,1.1792,1.1792,1.1792,1.1841,1.2197,1.2482,1.2793,1.317,1.3515,1.3752,1.3752,1.3978,1.4236,1.4236,1.4422,1.4698,1.4698,1.4698,1.4698,0.0,0.0,0.0,0.0,0.0,0.0,0.0,0.3877,0.3906,0.3906,0.3939,0.4056,0.4255,0.4296,0.4314,0.0,0.0,0.0,0.0,0.0,0.0,0.0,0.0,0.0,0.0,0.0,0.0,0.0,0.0,0.0,0.0,0.0,0.0,0.0,0.0,0.0,0.0,0.0,0.0,0.0,0.0,0.0,0.0,0.0,0.0,0.0,0.0,0.0,0.0,0.0,0.2012,0.2099,0.2892,0.3394,0.3694,0.3795,0.4043,0.4281,0.4362,0.4718,0.5105,0.5089,0.5203,0.5084,0.4328,0.4233,0.0,0.0,0.3004,0.2676,0.2611,0.2296,0.2193,0.0,0.3045,0.3692,0.4845,0.5439,0.6207,0.0,0.7732,0.0,0.8751,0.8804,0.0,0.8804,0.8804,0.9309,1.0517,1.0568,1.1183,1.2412,1.1384,1.1065,1.1566,1.1065,1.0813,1.0813,1.0813,1.0813,1.0813,1.1366,1.1566,1.1616,1.2197,1.2461,1.2461,1.2461,1.2735,1.3178,1.3178,1.3453,1.3867,1.3867,1.3867,1.3867,0.0,0.0,0.0,0.0,0.0,0.0,0.0,0.3898,0.3906,0.3906,0.3898,0.3983,0.4182,0.4261,0.4338,0.0,0.0,0.0,0.0,0.0,0.0,0.0,0.0,0.0,0.0,0.0,0.0,0.0,0.0,0.0,0.0,0.0,0.0,0.0,0.0,0.0,0.0,0.0,0.0,0.0,0.0,0.0,0.0,0.0,0.0,0.0,0.0,0.0,0.0,0.0,0.0,0.1837,0.1922,0.2276,0.2717,0.3151,0.0,0.0,0.3633,0.4323,0.5111,0.5095,0.5214,0.5074,0.4214,0.0,0.3789,0.2951,0.274,0.2611,0.2302,0.221,0.22,0.2242,0.0,0.3306,0.3316,0.4807,0.5996,0.632,0.0,0.0,0.8751,0.8804,0.8804,0.8804,0.8804,0.9106,0.9865,0.9917,1.0218,1.0973,1.0864,1.0813,1.0914,1.0813,1.0813,1.0813,1.0813,1.0813,1.0813,1.0864,1.0914,1.0914,1.0965,1.0973,1.0973,1.0973,1.1015,1.1057,1.1057,1.1107,1.1157,1.1157,1.1157,1.1157,0.0,0.0,0.0,0.0,0.0,0.0,0.392,0.3869,0.3855,0.3898,0.3906,0.3976,0.4176,0.423,0.4226,0.4204,0.0,0.0,0.0,0.0,0.0,0.0,0.0,0.0,0.0,0.0,0.0,0.0,0.0,0.0,0.0,0.0,0.0,0.0,0.0,0.0,0.0,0.0,0.0,0.0,0.0,0.0,0.0,0.0,0.0,0.0,0.0,0.0,0.0,0.0,0.0,0.0,0.1792,0.1928,0.0,0.0,0.2826,0.2966,0.3014,0.3342,0.368,0.3756,0.4204,0.439,0.3441,0.0,0.3763,0.2884,0.2599,0.2478,0.2346,0.2122,0.195,0.197,0.22,0.2507,0.2829,0.3711,0.4703,0.5671,0.6241,0.0,0.0,0.0,0.745,0.745,0.7883,0.8256,0.8508,0.8942,0.971,1.0771,1.0012,0.9762,1.021,0.9814,0.9614,0.9614,0.9614,0.9614,0.9614,1.0012,1.0218,1.0218,1.0618,1.0813,1.0813,1.0813,1.0813,1.0813,1.0813,1.0813,1.0813,1.0813,1.0813,1.0813,0.0,0.0,0.0,0.0,0.0,0.4127,0.4003,0.3949,0.3935,0.3956,0.3984,0.4037,0.4182,0.4169,0.4066,0.3894,0.3945,0.0,0.0,0.0,0.0,0.0,0.0,0.0,0.0,0.0,0.0,0.0,0.0,0.0,0.0,0.0,0.0,0.0,0.0,0.0,0.0,0.0,0.0,0.0,0.0,0.0,0.0,0.0,0.0,0.0,0.0,0.0,0.0,0.0,0.0,0.0,0.0,0.0,0.0,0.0,0.2216,0.2289,0.2548,0.2698,0.2786,0.299,0.3491,0.3723,0.0,0.3191,0.3392,0.2601,0.2324,0.2108,0.1762,0.1452,0.1301,0.0,0.1488,0.1765,0.2426,0.2854,0.363,0.4998,0.0,0.5846,0.6307,0.6523,0.6588,0.6588,0.7074,0.7396,0.7396,0.7883,0.8778,1.0159,0.9309,0.8903,0.919,0.8732,0.8374,0.8156,0.8374,0.8374,0.8156,0.9093,0.9406,0.9235,0.9902,1.0218,1.0218,1.0218,1.0218,1.0218,1.0218,1.0218,1.0159,0.9946,0.9997,1.0159,0.0,0.0,0.0,0.0,0.0,0.0,0.4207,0.4188,0.4179,0.4109,0.4153,0.4195,0.4195,0.4082,0.3896,0.3622,0.3788,0.0,0.0,0.0,0.0,0.0,0.0,0.0,0.0,0.0,0.0,0.0,0.0,0.0,0.0,0.0,0.0,0.0,0.0,0.0,0.0,0.0,0.0,0.0,0.0,0.0,0.0,0.0,0.0,0.0,0.0,0.0,0.0,0.0,0.0,0.0,0.0,0.0,0.0,0.0,0.1814,0.1904,0.2282,0.2653,0.2976,0.3245,0.3294,0.323,0.2974,0.281,0.2544,0.1941,0.1798,0.1433,0.0245,0.0022,0.0156,0.0558,0.0784,0.1181,0.1995,0.2437,0.3128,0.0,0.0,0.5697,0.6165,0.6426,0.6588,0.6588,0.6588,0.6588,0.6588,0.6642,0.7289,0.8752,0.8811,0.848,0.7723,0.7723,0.7343,0.6642,0.7343,0.7343,0.6696,0.8156,0.8427,0.7777,0.848,0.8804,0.8804,0.8804,0.8804,0.8804,0.8804,0.8804,0.8752,0.799,0.8209,0.8593,0.0,0.0,0.0,0.0,0.0,0.0,0.0,0.433,0.4263,0.423,0.4249,0.4249,0.4201,0.4082,0.3889,0.3614,0.3659,0.0,0.0,0.0,0.0,0.0,0.0,0.0,0.0,0.0,0.0,0.3941,0.3914,0.0,0.0,0.0,0.0,0.0,0.0,0.0,0.0,0.0,0.0,0.0,0.0,0.0,0.0,0.0,0.0,0.0,0.0,0.0,0.0,0.0,0.0,0.0,0.0,0.0,0.0,0.0,0.0,0.0,0.2179,0.2296,0.2378,0.2506,0.278,0.2887,0.2411,0.2491,0.2515,0.1915,0.148,0.0936,0.0156,-0.0668,-0.1253,-0.1302,-0.0173,0.0,0.0,0.0,0.0,0.3392,0.4035,0.4624,0.0,0.5105,0.5171,0.5171,0.5601,0.5873,0.5873,0.6312,0.6804,0.7289,0.7289,0.7182,0.6966,0.6966,0.6804,0.6588,0.6858,0.6804,0.6588,0.7074,0.7182,0.6966,0.7182,0.7289,0.7289,0.7289,0.7289,0.7289,0.7289,0.7289,0.7289,0.702,0.7074,0.7235,0.0,0.0,0.0,0.0,0.0,0.0,0.0,0.4477,0.4387,0.4346,0.4356,0.4326,0.4207,0.4007,0.3796,0.3543,0.3501,0.0,0.0,0.0,0.0,0.0,0.0,0.0,0.0,0.0,0.3743,0.4171,0.4079,0.4137,0.4348,0.0,0.0,0.0,0.0,0.0,0.0,0.0,0.0,0.0,0.0,0.0,0.0,0.0,0.0,0.0,0.0,0.0,0.0,0.0,0.0,0.0,0.0,0.0,0.0,0.0,0.0763,0.1251,0.0,0.2065,0.2097,0.2155,0.2353,0.246,0.2107,0.2206,0.2251,0.1885,0.1502,0.0914,-0.0133,-0.1139,-0.1854,-0.2025,-0.1162,-0.0314,0.0,0.0,0.0,0.3172,0.0,0.0,0.4351,0.4429,0.4519,0.4519,0.4893,0.5109,0.5109,0.5555,0.5837,0.5837,0.6317,0.6475,0.6199,0.6204,0.6041,0.5828,0.6041,0.6041,0.5823,0.6372,0.6421,0.6199,0.6475,0.6588,0.0,0.6588,0.6588,0.6588,0.6588,0.6588,0.6588,0.6312,0.6367,0.6534,0.0,0.0,0.0,0.0,0.0,0.0,0.0,0.4653,0.4557,0.442,0.4443,0.4419,0.4217,0.391,0.3617,0.3419,0.0,0.0,0.0,0.0,0.0,0.0,0.0,0.0,0.0,0.3468,0.3688,0.429,0.4346,0.4447,0.4621,0.4932,0.4641,0.0,0.0,0.0,0.0,0.0,0.0,0.0,0.0,0.0,0.0,0.0,0.0,0.0,0.0,0.0,0.0,0.0,0.0,0.0,0.0,0.0,0.0,0.0,0.0,0.0,0.0,0.1839,0.2041,0.2068,0.2021,0.1994,0.2072,0.1892,0.0,0.1683,0.1661,0.1118,-0.0651,-0.1438,-0.1804,-0.1828,-0.2026,-0.1594,0.0,0.1232,0.0,0.0,0.3741,0.3941,0.4184,0.4389,0.4519,0.4519,0.4519,0.4519,0.4519,0.4473,0.4425,0.4366,0.5609,0.6036,0.5433,0.5437,0.5113,0.4519,0.5113,0.5113,0.4519,0.5828,0.6095,0.5492,0.615,0.6426,0.6426,0.6426,0.6426,0.6426,0.6426,0.6426,0.6367,0.5655,0.5873,0.6263,0.0,0.0,0.0,0.0,0.0,0.0,0.0,0.0,0.0,0.0,0.4338,0.429,0.4142,0.3919,0.3676,0.0,0.0,0.0,0.0,0.0,0.0,0.0,0.0,0.0,0.0,0.3468,0.3663,0.4223,0.4138,0.429,0.4687,0.4755,0.445,0.3834,0.3868,0.0,0.0,0.0,0.0,0.0,0.0,0.0,0.0,0.0,0.0,0.0,0.2208,0.1931,0.0,0.0,0.0,0.0,0.0,0.0,0.0,0.0,-0.1594,-0.1121,0.0091,0.0,0.1493,0.1805,0.1852,0.1848,0.0,0.1477,0.0983,0.0512,0.0,-0.0045,-0.1547,-0.1799,-0.1872,-0.207,-0.1979,-0.1655,-0.0981,0.1466,0.0,0.3588,0.3818,0.4075,0.4419,0.4467,0.4487,0.4487,0.4487,0.4487,0.4487,0.449,0.3978,0.279,0.306,0.3732,0.4705,0.4761,0.4653,0.4487,0.4653,0.4653,0.4487,0.4816,0.4927,0.4761,0.4927,0.4982,0.4982,0.4982,0.4978,0.4967,0.4967,0.5018,0.4956,0.4787,0.4849,0.4967,0.0,0.0,0.0,0.0,0.0,0.0,0.0,0.0,0.0,0.0,0.0,0.0,0.0,0.0,0.0,0.0,0.0,0.0,0.0,0.0,0.0,0.0,0.0,0.0,0.0,0.323,0.3426,0.4103,0.3794,0.4,0.4708,0.4697,0.435,0.3708,0.3596,0.0,0.0,0.0,0.0,0.0,0.0,0.0,0.0,0.0,0.0,0.0,0.1942,0.1795,0.0,0.1478,0.1569,0.1502,0.0,0.0,0.0,0.0,-0.1798,-0.1594,-0.0668,0.0111,0.0825,0.1616,0.1798,0.1661,0.1094,0.0,0.0,0.0,0.0,0.0,0.0,0.0,-0.1974,-0.2083,-0.2001,-0.1616,0.0,0.0,0.2164,0.2693,0.2918,0.3133,0.3403,0.3469,0.3469,0.3469,0.3469,0.3469,0.3469,0.4101,0.4104,0.3307,0.2575,0.2573,0.3413,0.3469,0.3469,0.3469,0.3469,0.3469,0.3469,0.3469,0.3469,0.3469,0.3469,0.3469,0.3469,0.3469,0.3466,0.3519,0.4203,0.4484,0.4477,0.4477,0.448,0.4373,0.0,0.0,0.0,0.0,0.0,0.0,0.0,0.0,0.0,0.0,0.0,0.0,0.0,0.0,0.0,0.0,0.0,0.0,0.0,0.0,0.0,0.0,0.0,0.0,0.3372,0.2946,0.3103,0.3876,0.3455,0.3683,0.4512,0.465,0.4329,0.365,0.3299,0.0,0.0,0.0,0.0,0.0,0.0,0.0,0.0,0.0,0.0,0.0,0.0,0.0,0.0,0.1145,0.105,0.0914,-0.0936,0.0,0.0,0.0,0.0,0.0,-0.0961,-0.0245,0.0468,0.1321,0.1661,0.148,0.0267,0.0,0.0,0.0,0.0,0.0,0.0,-0.1971,0.0,0.0,0.0,0.0,0.0116,0.0128,0.0369,0.1396,0.1507,0.1615,0.1835,0.1842,0.1842,0.1842,0.1842,0.1842,0.1842,0.3084,0.4002,0.4462,0.2811,0.185,0.1842,0.1842,0.1842,0.1842,0.1842,0.1842,0.1842,0.1842,0.1842,0.1842,0.1842,0.1842,0.1842,0.1842,0.184,0.2009,0.353,0.4154,0.4154,0.4154,0.4327,0.4271,0.0,0.0,0.0,0.0,0.0,0.0,0.0,0.0,0.0,0.0,0.0,0.0,0.0,0.0,0.0,0.0,0.0,0.0,0.0,0.0,0.0,0.0,0.0,0.3368,0.3227,0.2998,0.3025,0.332,0.3412,0.354,0.3705,0.438,0.4437,0.3929,0.3531,0.0,0.0,0.0,0.0,0.0,0.0,0.0,0.0,0.0,0.0,0.0,0.0,0.0,0.0,0.1017,-0.0067,-0.1139,-0.049,0.0,0.0,0.0,0.0,0.0,-0.0446,0.0668,0.1321,0.049,0.105,0.148,0.0267,0.0,0.0,0.0,0.0,0.0,0.0,-0.1986,-0.2011,0.0,0.0,-0.166,0.0,0.0,0.0046,0.025,0.026,0.027,0.0335,0.0336,0.0336,0.0336,0.0336,0.0336,0.0336,0.056,0.1852,0.4412,0.1797,0.0336,0.0336,0.0336,0.0336,0.0336,0.0336,0.0336,0.0336,0.0336,0.0336,0.0336,0.0336,0.0336,0.0336,0.0336,0.0336,0.0502,0.1958,0.2573,0.2567,0.2567,0.3363,0.411,0.0,0.0,0.0,0.0,0.0,0.0,0.0,0.0,0.0,0.0,0.0,0.0,0.0,0.0,0.0,0.0,0.0,0.0,0.0,0.0,0.0,0.0,0.31,0.3109,0.3409,0.2899,0.2902,0.3466,0.334,0.3429,0.3719,0.3837,0.3839,0.3712,0.3202,0.2878,0.0,0.0,0.0,0.0,0.0,0.0,0.0,0.0,0.0,0.0,0.0,0.0,0.0,0.0,0.0128,-0.0847,-0.0936,0.0,0.0,0.0,0.0,0.0,-0.1118,0.0379,0.1661,0.1116,0.1141,0.1084,0.0212,0.0,0.0,0.0,0.0,0.0,0.0,0.0,-0.2322,-0.2921,0.0,-0.2324,-0.129,-0.0489,0.0,0.0,0.0,0.0,0.0,0.0,0.0,0.0,0.0,0.0,0.0,-0.157,-0.1064,0.1967,-0.0056,-0.1567,-0.2413,-0.1623,-0.0783,0.0,0.0,-0.0841,-0.2413,-0.2413,-0.1569,0.0,0.0,0.0,0.0,0.0,0.0,0.0056,0.0728,0.1008,0.0838,-0.0837,0.0056,0.185,0.0,0.0,0.0,0.0,0.0,0.0,0.0,0.0,0.0,0.0,0.0,0.0,0.0,0.0,0.0,0.0,0.0,0.0,0.0,0.0,0.3285,0.3165,0.2775,0.2834,0.3443,0.2796,0.2817,0.3554,0.3289,0.3407,0.3896,0.3473,0.3327,0.3401,0.2882,0.0,0.0,0.0,0.0,0.0,0.0,0.0,0.0,0.0,0.0,0.0,0.0,0.0,0.0,0.0,0.0,0.0,0.0,0.0,0.0,-0.0646,-0.1005,-0.1413,-0.1547,-0.0044,0.1616,0.1775,0.0,0.0958,0.0345,0.0,0.0,0.0,0.0,0.0,0.0,-0.2132,0.0,-0.2861,-0.3088,-0.304,-0.2512,-0.1533,-0.0613,-0.0048,0.0,0.0,0.0,0.0,0.0,0.0,0.0,0.0,0.0,-0.2865,-0.3431,-0.1121,-0.1788,-0.2963,-0.4511,-0.3304,-0.2011,-0.0504,-0.0504,-0.1736,-0.3993,-0.4337,-0.3254,-0.1061,-0.067,-0.0503,-0.0504,-0.0168,0.0,0.0,0.0,-0.0449,-0.1345,-0.3658,-0.3033,-0.0952,0.0,0.0,0.0,0.0,0.0,0.0,0.0,0.0,0.0,0.0,0.0,0.0,0.0,0.0,0.0,0.0,0.0,0.0,0.0,0.0,0.3009,0.2756,0.2529,0.2618,0.3037,0.2739,0.2773,0.3148,0.3234,0.3503,0.3903,0.361,0.338,0.3205,0.0,0.0,0.0,0.0,0.0,0.0,0.0,0.0,0.0,0.0,0.0,0.0,0.0,0.0,0.0,0.0,0.0,0.0,0.0,0.0,-0.1457,-0.0379,-0.0089,-0.0247,-0.0805,-0.0022,0.1094,0.1661,0.1775,0.0,0.0982,0.025,0.0,-0.041,0.0,0.0,0.0,-0.1746,-0.1488,-0.1849,-0.2821,-0.3547,-0.3493,-0.3388,-0.253,-0.0285,0.0,0.0,0.0,0.0,0.0,0.0,0.0,0.0,0.0,-0.2865,-0.4399,-0.4172,-0.291,-0.2961,-0.4497,-0.4383,-0.3583,-0.2063,-0.2063,-0.2176,-0.24,-0.3869,-0.4383,-0.4098,-0.2681,-0.2063,-0.1952,-0.0558,0.0,0.0,0.0,-0.1738,-0.4228,-0.4399,-0.4337,-0.3758,0.0,0.0,0.0,0.0,0.0,0.0,0.0,0.0,0.0,0.0,0.0,0.0,0.0,0.0,0.0,0.0,0.0,0.0,0.0,0.0,0.2812,0.27,0.2353,0.2307,0.2623,0.2969,0.3383,0.3843,0.3725,0.3671,0.3633,0.3332,0.3104,0.0,0.0,0.0,0.0,0.0,0.0,0.0,0.0,0.0,0.0,0.0,0.0,0.0,0.0,0.0,0.0,0.0,0.052,0.0,0.0,0.0,-0.0736,-0.1027,-0.0582,-0.0045,-0.0267,0.0393,0.1264,0.1683,0.1793,0.0,0.0,0.0945,0.0797,0.0033,-0.1399,0.0,0.0,0.0,-0.1029,-0.2636,-0.332,-0.3598,-0.3588,-0.296,-0.2119,-0.1234,-0.0459,0.0,0.0,-0.1718,-0.2032,-0.0159,0.0,0.0,0.0,-0.1959,-0.3535,-0.4458,-0.3919,-0.391,-0.4487,-0.448,-0.419,-0.3624,-0.3635,-0.3638,-0.3633,-0.4255,-0.4487,-0.4484,-0.386,-0.3635,-0.3583,-0.3021,-0.2235,-0.1395,-0.134,-0.2068,-0.319,-0.415,-0.4494,-0.4324,0.0,0.0,0.0,0.0,0.0,0.0,0.0,0.0,0.0,0.0,0.0,0.0,0.0,0.0,0.0,0.0,0.0,0.0,0.0,0.0,0.2625,0.2577,0.2243,0.2189,0.2457,0.3044,0.3572,0.4043,0.394,0.3807,0.3619,0.321,0.0,0.0,0.0,0.0,0.0,0.0,0.0,0.0,0.0,0.0,0.0,0.0,0.0,0.0,0.0,0.0,0.0,0.0,0.0103,0.0,0.0,0.0,0.0,0.0,-0.0919,-0.0494,-0.0112,0.0581,0.1328,0.0,0.0,0.0,0.1372,0.1704,0.1865,0.1039,-0.0598,0.0,-0.2078,0.0,0.0,-0.2305,-0.3087,-0.3605,-0.3592,-0.287,-0.2105,-0.1341,-0.0493,0.0,0.0,-0.1849,-0.2629,-0.1518,-0.0541,0.0,0.0,-0.0949,-0.2404,-0.4455,-0.4484,-0.4525,-0.448,-0.4522,-0.4519,-0.4519,-0.4477,-0.448,-0.4473,-0.4473,-0.4473,-0.4473,-0.4473,-0.4477,-0.4487,-0.449,-0.3866,-0.2905,-0.2905,-0.2905,-0.307,-0.4082,-0.4484,-0.449,0.0,0.0,0.0,0.0,0.0,0.0,0.0,0.0,0.0,0.0,0.0,0.0,0.0,0.0,0.0,0.0,0.0,0.0,0.0,0.2792,0.2443,0.2306,0.2233,0.2315,0.2588,0.2868,0.3158,0.35,0.3767,0.3883,0.3875,0.3335,0.0,0.0,0.0,0.0,0.0,0.0,0.0,0.0,0.0,0.0,0.0,0.0,0.0,0.0,0.0,0.0,0.0,0.0,-0.0167,-0.0998,0.0,0.0,0.0,0.0,-0.0852,-0.1516,-0.0337,0.0448,0.121,0.0,0.0,0.0,0.2095,0.2434,0.2689,0.2658,0.1243,0.0,0.0,-0.1956,0.0,-0.0397,-0.2025,-0.3581,-0.3571,-0.3581,-0.2712,-0.0315,-0.0,0.0,0.0,0.0,-0.1215,-0.4231,-0.1725,-0.0054,-0.0,0.0,-0.1397,-0.434,-0.449,-0.4477,-0.448,-0.4522,-0.4519,-0.4519,-0.4519,-0.4519,-0.4519,-0.4519,-0.4519,-0.4519,-0.4519,-0.4519,-0.4519,-0.4473,-0.4487,-0.4497,-0.4497,-0.449,-0.448,-0.448,-0.448,-0.448,0.0,0.0,0.0,0.0,0.0,0.0,0.0,0.0,0.0,0.0,0.0,0.0,0.0,0.0,0.0,0.0,0.0,0.0,0.0,0.2644,0.2364,0.2236,0.2115,0.21,0.2174,0.2716,0.3054,0.3143,0.3275,0.3335,0.0,0.0,0.0,0.308,0.0,0.0,0.0,0.0,0.0,0.0,0.0,0.0,0.0,0.0,0.0,0.0,0.0,0.0,0.0,0.0,0.0,0.0,0.0,0.0,0.0,-0.0241,-0.0246,-0.0652,-0.1143,0.0419,0.0,0.2616,0.0,0.0,0.0,0.1632,0.0,0.0,0.0382,0.0,0.0,-0.0567,0.0,-0.1245,-0.1164,-0.1344,-0.2194,-0.3063,-0.3344,-0.2613,-0.1034,0.0,0.0,0.0,-0.0383,-0.1265,-0.2472,-0.2221,-0.0104,0.0,-0.0421,-0.1293,-0.269,-0.3758,-0.4477,-0.4522,-0.4519,-0.4519,-0.4519,-0.4519,-0.4519,-0.4519,-0.4519,-0.4519,-0.4519,-0.4519,-0.4519,-0.4522,-0.4525,-0.4473,-0.4473,-0.4525,-0.4522,-0.4522,-0.4522,-0.4522,0.0,0.0,0.0,0.0,0.0,0.0,0.0,0.0,0.0,0.0,0.0,0.0,0.0,0.0,0.0,0.0,0.0,0.0,0.0,0.0,0.2304,0.2285,0.2094,0.2033,0.2116,0.2596,0.28,0.2714,0.3083,0.0,0.0,0.0,0.0,0.3093,0.0,0.2968,0.0,0.0,0.0,0.0,0.2154,0.2027,0.1924,0.0,0.0,0.0,0.0,0.0,0.0,0.0,0.0,0.0,0.0,0.0,0.0,-0.0891,-0.0383,-0.0064,-0.0309,0.0854,0.0,0.2158,0.2381,0.2668,0.2796,0.0,0.0,0.0,0.0,0.0,0.0,0.0,-0.022,-0.0982,-0.0492,-0.0269,-0.0984,-0.1705,-0.216,-0.216,-0.0899,0.0,0.0,0.0,0.0,0.0,-0.1662,-0.194,-0.0101,0.0,0.0,0.0,-0.1155,-0.2675,-0.4504,-0.4501,-0.4522,-0.4519,-0.4522,-0.4525,-0.4525,-0.4519,-0.4519,-0.4519,-0.4519,-0.4519,-0.4519,-0.4519,-0.4519,-0.4519,-0.4519,-0.4519,-0.4519,-0.4519,-0.4522,-0.4477,0.0,0.0,0.0,0.0,0.0,0.0,0.0,0.0,0.0,0.0,0.0,0.0,0.0,0.0,0.0,0.0,0.0,0.0,0.0,0.0,0.2285,0.2393,0.2164,0.2124,0.2306,0.2504,0.2501,0.2306,0.305,0.0,0.0,0.0,0.3208,0.3146,0.0,0.3307,0.0,0.0,0.0,0.0,0.2258,0.2157,0.2119,0.1983,0.0,0.0,0.0,0.0,0.0,0.0,0.0,0.0,-0.0265,-0.0746,-0.1248,-0.1616,-0.0827,0.04,0.1493,0.0,0.0,0.1405,0.1974,0.0,0.2903,0.1596,0.0241,0.0044,0.0,0.0,0.0,0.0,0.0,0.0,0.0,0.0,0.0,0.0,0.0,0.0,0.0,0.0,0.0,0.0,0.0,0.0,0.0,0.0,0.0,0.0,0.0,0.0,0.0,-0.1317,-0.4052,-0.4338,-0.4515,-0.4522,-0.4473,-0.4421,-0.4307,-0.4411,-0.4519,-0.4519,-0.4519,-0.4519,-0.4519,-0.4519,-0.4519,-0.4519,-0.4519,-0.4519,-0.4519,-0.4519,-0.4477,-0.449,0.0,0.0,0.0,0.0,0.0,0.0,0.0,0.0,0.0,0.0,0.0,0.0,0.0,0.0,0.0,0.0,0.0,0.0,0.0,0.0,0.2481,0.2403,0.2344,0.2334,0.2383,0.2524,0.2524,0.2383,0.2665,0.0,0.0,0.0,0.0,0.3406,0.0,0.3008,0.0,0.0,0.0,0.196,0.1904,0.1788,0.1632,0.1508,0.133,0.0,0.0,0.0,0.0,0.0,0.0,0.0,0.0081,-0.0171,-0.0381,-0.0936,0.0098,0.1474,0.1738,0.2082,0.0,0.0,0.2408,0.269,0.2874,0.2744,0.2089,0.0351,0.0,0.0,0.0,0.0,0.0,0.0,0.0,0.0,0.0,0.0,0.0,0.0,0.0,0.0,0.0,0.0,0.0,0.0,0.0,0.0,0.0,0.0,0.0,0.0,0.0,-0.0301,-0.0954,-0.3313,-0.4473,-0.449,-0.4484,-0.3858,-0.2734,-0.3968,-0.4525,-0.4519,-0.4519,-0.4519,-0.4519,-0.4519,-0.4519,-0.4519,-0.4519,-0.4519,-0.4519,-0.4473,-0.4473,-0.4301,0.0,0.0,0.0,0.0,0.0,0.0,0.0,0.0,0.0,0.0,0.0,0.0,0.0,0.0,0.0,0.0,0.0,0.0,0.0,0.0,0.2539,0.2403,0.2461,0.2529,0.2597,0.2539,0.25,0.2491,0.0,0.0,0.0,0.0,0.0,0.3293,0.0,0.2908,0.0,0.0,0.2123,0.1981,0.1917,0.1834,0.1727,0.1594,0.1356,0.1086,0.1024,0.0,0.0,0.0,0.0,0.0,0.0,0.0,0.004,-0.0499,0.0,0.0833,0.1255,0.0,0.0,0.2406,0.0,0.272,0.2873,0.3063,0.2915,0.1924,0.0794,0.0,0.0,0.0,0.0,0.0,0.0,0.0,0.0,0.0,0.0,0.0,0.0,0.0,0.0,0.0,0.0,0.0,0.0,0.0,0.0,0.0,0.0,0.0,0.0,0.0,0.0,-0.288,-0.4362,-0.4333,-0.4462,-0.3695,-0.2235,-0.3808,-0.4484,-0.4477,-0.4473,-0.4525,-0.4525,-0.4519,-0.4519,-0.4519,-0.4519,-0.4522,-0.4525,-0.4477,-0.448,-0.4366,0.0,0.0,0.0,0.0,0.0,0.0,0.0,0.0,0.0,0.0,0.0,0.0,0.0,0.0,0.0,0.0,0.0,0.0,0.0,0.2674,0.2539,0.2403,0.2529,0.2646,0.2721,0.251,0.2442,0.0,0.0,0.0,0.0,0.0,0.0,0.3166,0.0,0.0,0.0,0.0,0.2171,0.2124,0.1977,0.19,0.1868,0.1725,0.1418,0.1068,0.1068,0.0995,0.0899,0.0899,0.0,0.0,0.0,0.0,0.0335,-0.0,-0.0068,0.0141,0.0853,0.0,0.1965,0.2384,0.2599,0.0,0.2842,0.2981,0.3173,0.3463,0.1855,0.0313,0.0045,0.0,0.0,0.0,0.0,0.0,0.0,0.0,0.0,0.0,0.0,0.0,0.0,0.0,0.0,0.0,0.0,0.0,0.0,0.0,0.0,0.0,0.0,0.0,0.0,-0.2317,-0.373,-0.4253,-0.4153,-0.3304,-0.1887,-0.313,-0.3872,-0.4095,-0.4086,-0.4252,-0.448,-0.4525,-0.4522,-0.4522,-0.4522,-0.4473,-0.4484,-0.4484,-0.4317,-0.4154,0.0,0.0,0.0,0.0,0.0,0.0,0.0,0.0,0.0,0.0,0.0,0.3452,0.3311,0.3177,0.0,0.0,0.0,0.0,0.2807,0.0,0.0,0.2403,0.2529,0.2558,0.2452,0.2413,0.2354,0.0,0.0,0.0,0.0,0.0,0.0,0.344,0.0,0.0,0.0,0.0,0.0,0.1832,0.1647,0.1498,0.138,0.1251,0.1077,0.0932,0.0932,0.0921,0.0899,0.0899,0.098,0.0,0.0,0.0,0.085,0.103,0.1287,0.153,0.0,0.0,0.2193,0.0,0.2599,0.2719,0.0,0.0,0.3018,0.0,0.266,0.1647,0.0268,0.0,0.0,0.0,0.0,0.0,0.0,0.0,0.0,0.0,0.0,0.0,0.0,0.0,0.0,0.0,0.0,0.0,0.0,0.0,0.0,0.0,0.0,0.0,0.0,-0.0383,-0.1857,-0.4433,-0.3156,-0.171,-0.0322,-0.0497,-0.1286,-0.2512,-0.251,-0.3239,-0.448,-0.4487,-0.4487,-0.4477,-0.4487,-0.4494,-0.4494,-0.4504,-0.3646,-0.2683,0.0,0.0,0.0,0.0,0.0,0.0,0.0,0.0,0.0,0.0,0.0,0.3429,0.3203,0.3136,0.0,0.0,0.0,0.0,0.2807,0.2675,0.0,0.0,0.0,0.2461,0.2403,0.2136,0.2033,0.0,0.0,0.0,0.0,0.2693,0.2977,0.0,0.0,0.0,0.0,0.0,0.0,0.1877,0.1526,0.1348,0.1272,0.1063,0.0993,0.1007,0.0929,0.0899,0.0912,0.099,0.1045,0.1112,0.1218,0.0,0.0,0.0,0.1284,0.0,0.1741,0.195,0.212,0.0,0.2472,0.2606,0.2695,0.2798,0.2951,0.3138,0.3048,0.2732,0.2138,0.1474,0.1027,0.1029,0.1029,0.1029,0.1029,0.0448,0.0,0.0,0.0,0.0,0.0,0.0,0.0,0.0,0.0,0.0,0.0,0.0,0.0,0.0,0.0,0.0,0.0,0.0,-0.0659,-0.1963,-0.2645,-0.1949,0.0,0.0,-0.1265,-0.3421,-0.1676,-0.2289,-0.449,-0.4494,-0.3978,-0.3239,-0.3186,-0.3758,-0.4507,-0.4511,-0.3028,-0.106,0.0,0.0,0.0,0.0,0.0,0.0,0.0,0.0,0.0,0.0,0.0,0.0,0.3091,0.0,0.0,0.0,0.0,0.0,0.275,0.0,0.0,0.0,0.0,0.0,0.2304,0.1961,0.0,0.0,0.0,0.0,0.255,0.2582,0.2959,0.0,0.3399,0.0,0.0,0.0,0.0,0.0,0.0,0.1479,0.145,0.1217,0.1195,0.1253,0.1061,0.0998,0.1015,0.1091,0.1164,0.1248,0.1326,0.1276,0.0,0.0,0.0,0.0,0.0,0.0,0.201,0.2203,0.2374,0.2544,0.0,0.0,0.2893,0.3039,0.3118,0.3256,0.35,0.2843,0.2277,0.2279,0.2279,0.2279,0.2279,0.1474,0.0804,0.0491,0.0179,0.0,0.0,0.0,0.0,0.0,0.0,0.0,0.0,0.0,0.0,0.0,0.0,0.0,0.0,0.0,0.0,-0.0,-0.1807,-0.1722,0.0,0.0,-0.1241,-0.3272,-0.1783,-0.2181,-0.3869,-0.353,-0.2907,-0.2174,-0.1786,-0.235,-0.3373,-0.3373,-0.1905,0.0,0.0,0.0,0.0,0.0,0.0,0.0,0.0,0.0,0.0,0.0,0.0,0.0,0.0,0.0,0.0,0.0,0.0,0.0,0.0,0.0,0.0,0.0,0.0,0.0,0.0,0.0,0.0,0.0,0.0,0.0,0.241,0.255,0.3065,0.389,0.3875,0.3396,0.264,0.0,0.0,0.0,0.0,0.0,0.1942,0.1809,0.1758,0.1718,0.1401,0.1283,0.1267,0.1208,0.1372,0.1566,0.1515,0.1487,0.1514,0.0,0.0,0.0,0.0,0.1805,0.0,0.2288,0.246,0.0,0.0,0.0,0.2734,0.289,0.2927,0.3022,0.3351,0.3483,0.3493,0.3503,0.3506,0.3506,0.3506,0.3458,0.3004,0.183,0.0714,0.0,0.0,0.0,0.0,0.0,0.0,0.0,0.0,0.0,0.0,0.0,0.0,0.0,0.0,0.0,0.0,-0.0,-0.0141,-0.0144,0.0,0.0,-0.0106,-0.0373,-0.3099,-0.3535,-0.223,-0.0837,-0.1004,-0.2063,-0.0671,-0.0168,-0.0224,-0.0224,-0.0112,0.0,0.0,0.0,0.0,0.0,0.0,0.0,0.0,0.0,0.0,0.0,0.0,0.0,0.0,0.0,0.0,0.0,0.0,0.0,0.0,0.0,0.0,0.0,0.0,0.0,0.0,0.0,0.0,0.0,0.0,0.1703,0.2139,0.2361,0.2686,0.3079,0.3474,0.3563,0.3422,0.3168,0.0,0.0,0.0,0.0,0.0,0.1852,0.1746,0.1639,0.1391,0.1307,0.132,0.1416,0.1523,0.1607,0.1675,0.1597,0.1502,0.1482,0.12,0.0,0.0,0.0,0.0,0.2298,0.2292,0.23,0.279,0.2739,0.2637,0.2856,0.291,0.2968,0.3168,0.3327,0.3466,0.3568,0.3588,0.3588,0.3588,0.3588,0.3448,0.2996,0.2595,0.17,0.0134,0.0715,0.0851,0.0045,0.0,0.0,0.0,0.0,0.0,0.0,0.0,0.0,0.0,0.0,0.0,0.0,0.0,0.0,0.0,0.0,0.0,-0.0051,-0.1119,-0.2413,-0.3649,-0.3091,-0.2076,-0.0727,-0.0224,0.0,0.0,0.0,0.0,0.0,0.0,0.0,0.0,0.0,0.0,0.0,0.0,0.0,0.0,0.0,0.0,0.0,0.0,0.0,0.0,0.0,0.0,0.0,0.0,0.0,0.0,0.0,0.0,0.0,0.0,0.0,0.0,0.0,0.0,0.0,0.0,0.2175,0.2432,0.2745,0.3059,0.3365,0.0,0.0,0.0,0.2949,0.0,0.0,0.2367,0.2263,0.2178,0.2065,0.1842,0.1779,0.178,0.1838,0.184,0.1843,0.2043,0.188,0.1504,0.1007,0.1031,0.0,0.1949,0.0,0.0,0.0,0.0,0.2237,0.2645,0.2704,0.2758,0.2914,0.3002,0.3086,0.3242,0.3208,0.3226,0.3512,0.3503,0.352,0.3571,0.3581,0.3581,0.3581,0.3588,0.2957,0.1386,0.1206,0.1207,0.1212,0.1211,0.103,0.0627,0.0224,0.0,0.0,0.0,0.0,0.0,0.0,0.0,0.0,0.0,0.0,0.0,0.0,0.0,0.0,0.0,-0.113,-0.3092,-0.4101,-0.3322,-0.1401,-0.0392,0.0,0.0,0.0,0.0,0.0,0.0,0.0,0.0,0.0,0.0,0.0,0.0,0.0,0.0,0.362,0.0,0.0,0.0,0.0,0.0,0.0,0.0,0.2211,0.2195,0.0,0.0,0.0,0.0,0.0,0.0,0.0,0.0,0.0,0.0,0.0,0.0,0.0,0.2345,0.2968,0.2718,0.2779,0.3098,0.0,0.3336,0.3106,0.0,0.31,0.3114,0.3119,0.3111,0.3068,0.2805,0.2697,0.2676,0.2466,0.232,0.2241,0.2553,0.224,0.1542,0.0363,0.0877,0.0,0.0,0.0,0.0,0.0,0.0,0.0,0.24,0.0,0.3078,0.3091,0.3196,0.334,0.3568,0.3218,0.2998,0.3334,0.3344,0.336,0.3551,0.3578,0.3581,0.3581,0.3581,0.3585,0.3595,0.1475,0.1073,0.3385,0.3567,0.3105,0.1919,0.067,0.0,0.0,0.0,0.0,0.0,0.0,0.0,0.0,0.0,0.0,0.0,0.0,0.0,0.0,0.0,0.0,-0.0212,-0.3154,-0.4343,-0.4058,-0.1121,0.0,0.0,0.0,0.0,0.0,0.0,0.0,0.0,0.0,0.0,0.0,0.3832,0.3703,0.356,0.0,0.0,0.0,0.0,0.0,0.0,0.0,0.0,0.2371,0.2069,0.2053,0.2033,0.201,0.1907,0.1886,0.0,0.0,0.0,0.0,0.0,0.0,0.0,0.0,0.0,0.0,0.2652,0.274,0.2739,0.2822,0.0,0.3366,0.318,0.3213,0.0,0.339,0.3262,0.3093,0.3023,0.2864,0.2697,0.2632,0.2433,0.2108,0.1573,0.1383,0.1274,0.0786,0.1196,0.0,0.2237,0.0,0.0,0.0,0.0,0.0,0.0,0.2507,0.2681,0.3035,0.3068,0.3089,0.3336,0.3041,0.2808,0.2998,0.3172,0.3323,0.3451,0.3554,0.3581,0.3581,0.3581,0.3581,0.3585,0.2996,0.2502,0.2326,0.3093,0.3455,0.3141,0.1117,0.0,0.0,0.0,0.0,0.0,0.0,0.0,0.0,0.0,0.0,0.0,0.0,0.0,0.0,0.0,0.0,-0.0052,-0.0875,-0.1233,-0.1177,-0.0336,0.0,0.0,0.0,0.0,0.0,0.0,0.0,0.0,0.0,0.0,0.4137,0.4,0.3885,0.3812,0.0,0.0,0.0,0.0,0.0,0.0,0.0,0.0,0.0,0.1939,0.1917,0.1886,0.1803,0.1792,0.1792,0.1792,0.0,0.0,0.0,0.0,0.0,0.0,0.0,0.0,0.2119,0.2217,0.2324,0.2422,0.2227,0.0,0.0,0.3405,0.0,0.3688,0.3792,0.3744,0.3612,0.3612,0.3431,0.3211,0.3211,0.2885,0.2345,0.1527,0.1175,0.1093,0.1242,0.1641,0.0,0.0,0.0,0.0,0.0,0.0,0.0,0.2285,0.2515,0.2813,0.3186,0.3251,0.3316,0.3615,0.3185,0.2859,0.3025,0.312,0.3185,0.3246,0.3388,0.3483,0.3483,0.3541,0.3581,0.3581,0.3581,0.3309,0.2591,0.3217,0.3585,0.3592,0.2279,0.1027,0.0045,0.0,0.0,0.0,0.0,0.0,0.0,0.0,0.0,0.0,0.0,0.0,0.0,0.0,0.0,0.0,0.0,0.0,0.0,0.0,0.0,0.0,0.0,0.0,0.0,0.0,0.0,0.4263,0.4129,0.4332,0.4479,0.4344,0.4318,0.4326,0.0,0.3919,0.0,0.0,0.0,0.0,0.0,0.0,0.0,0.1867,0.1813,0.1719,0.1539,0.1698,0.1719,0.1539,0.1708,0.0,0.0,0.0,0.0,0.0,0.0,0.0,0.193,0.1655,0.1737,0.2073,0.1744,0.2172,0.3114,0.3609,0.3864,0.3965,0.4252,0.4354,0.4354,0.4354,0.4215,0.4012,0.3979,0.3572,0.2951,0.216,0.1572,0.1254,0.1772,0.2174,0.0,0.0,0.0,0.0,0.0,0.2478,0.0,0.2267,0.266,0.3152,0.3369,0.3532,0.371,0.4014,0.3378,0.2896,0.3142,0.2992,0.2913,0.3076,0.3189,0.3283,0.3283,0.3446,0.3527,0.3527,0.3527,0.3537,0.3554,0.3571,0.3581,0.3581,0.3581,0.2637,0.0447,0.0134,0.0,0.0,0.0,0.0,0.0,0.0,0.0,0.0,0.0,0.0,0.0,0.0,0.0,0.0,0.0,0.0,0.0,0.0,0.0,0.0,0.0,0.0,0.0,0.0,0.4364,0.4255,0.4123,0.4061,0.4258,0.4905,0.4696,0.4372,0.4123,0.0,0.0,0.0,0.0,0.0,0.0,0.0,0.0,0.2137,0.1918,0.1782,0.174,0.1771,0.1782,0.174,0.1782,0.1792,0.0,0.0,0.0,0.0,0.0,0.0,0.0,0.1639,0.159,0.1513,0.2009,0.0,0.2874,0.3093,0.3598,0.4252,0.4527,0.4626,0.4626,0.4626,0.4683,0.4745,0.4539,0.4371,0.4074,0.301,0.2669,0.2665,0.2692,0.2664,0.2686,0.2902,0.2875,0.0,0.2896,0.2699,0.0,0.2231,0.2572,0.2919,0.2861,0.2974,0.3073,0.3155,0.2697,0.2346,0.2402,0.2506,0.2668,0.291,0.3038,0.3125,0.3125,0.3191,0.3212,0.3212,0.3212,0.3263,0.3343,0.351,0.3581,0.3581,0.3588,0.3366,0.2915,0.1031,0.0,0.0,0.0,0.0,0.0,0.0,0.0,0.0,0.0,0.0,0.0,0.0,0.0,0.0,0.0,0.0,0.0,0.0,0.0,0.0,0.0,0.0,0.0,0.0,0.437,0.423,0.4159,0.4401,0.475,0.5176,0.527,0.512,0.0,0.0,0.0,0.0,0.0,0.0,0.0,0.0,0.0,0.2231,0.2075,0.1892,0.1662,0.1645,0.1736,0.19,0.1742,0.1769,0.2006,0.0,0.0,0.0,0.0,0.0,0.0,0.1631,0.159,0.176,0.0,0.2395,0.275,0.3399,0.3985,0.4527,0.4785,0.5043,0.5242,0.5242,0.5351,0.5429,0.4965,0.4804,0.4675,0.3929,0.3773,0.3793,0.3566,0.3545,0.3513,0.3193,0.3205,0.3263,0.313,0.2912,0.0,0.0,0.2821,0.2833,0.2967,0.2902,0.2855,0.3074,0.2648,0.2465,0.2916,0.2731,0.263,0.2958,0.3018,0.3015,0.3015,0.3041,0.3082,0.3082,0.3082,0.3112,0.3189,0.3336,0.3463,0.3463,0.3544,0.3318,0.2732,0.1521,0.0627,0.0,0.0,0.0,0.0,0.0,0.0,0.0,0.0,0.0,0.0,0.0,0.0,0.0099,0.1614,0.1345,0.0,0.0,0.0,0.0,0.0,0.0,0.0,0.0,0.4306,0.4179,0.4144,0.4636,0.5144,0.5502,0.5764,0.5712,0.0,0.0,0.0,0.0,0.0,0.0,0.0,0.0,0.0,0.2492,0.2387,0.2171,0.1739,0.1667,0.1762,0.2033,0.172,0.174,0.2129,0.0,0.0,0.0,0.1796,0.1931,0.2295,0.0,0.0,0.0,0.0,0.0,0.29,0.3901,0.4426,0.4646,0.4971,0.54,0.5823,0.5999,0.6132,0.6113,0.5576,0.5399,0.5338,0.4949,0.4854,0.4833,0.4487,0.4556,0.4557,0.3796,0.3836,0.3987,0.3519,0.3301,0.3243,0.0,0.0,0.0,0.3043,0.2876,0.2765,0.2971,0.2645,0.2595,0.3291,0.2892,0.2572,0.2834,0.283,0.2791,0.2818,0.2947,0.3035,0.3035,0.3035,0.3049,0.308,0.3155,0.3236,0.3262,0.3471,0.3159,0.2163,0.1677,0.0976,0.0,0.0,0.0,0.0,0.0,0.0,0.0,0.0,0.0,0.0,0.0,0.0,0.024,0.3246,0.3079,0.0802,0.0221,0.0,0.0,0.0,0.0,0.0,0.4024,0.4053,0.4082,0.3963,0.401,0.4603,0.6206,0.5738,0.5185,0.0,0.0,0.0,0.0,0.0,0.4094,0.0,0.3941,0.3676,0.3376,0.3073,0.2771,0.2491,0.2243,0.2138,0.2171,0.1904,0.1791,0.1847,0.1834,0.0,0.0,0.1792,0.1888,0.2046,0.1953,0.0,0.0,0.0,0.3099,0.3618,0.4098,0.4313,0.4406,0.4912,0.54,0.5901,0.667,0.6956,0.6954,0.6876,0.6859,0.6766,0.6101,0.5934,0.5874,0.5524,0.5465,0.5457,0.5332,0.5109,0.4806,0.4501,0.4016,0.3532,0.323,0.0,0.3072,0.2458,0.0,0.256,0.2072,0.0,0.0,0.2058,0.2238,0.2334,0.2164,0.2205,0.2335,0.252,0.2671,0.273,0.273,0.273,0.2788,0.2924,0.2951,0.3015,0.3102,0.3428,0.3519,0.3405,0.1313,0.013,0.0,0.0,0.0,0.0,0.0,0.0,0.0,0.0,0.0,0.0,0.0,0.0,0.024,0.3266,0.4285,0.3714,0.1049,0.0,0.0,0.0,0.0,0.0,0.3927,0.3949,0.4462,0.5966,0.4738,0.4246,0.6294,0.5741,0.5204,0.0,0.0,0.0,0.4486,0.4414,0.4495,0.4747,0.438,0.4086,0.3965,0.3546,0.0,0.2835,0.2655,0.2609,0.2728,0.2338,0.2191,0.2258,0.1947,0.0,0.0,0.0,0.2067,0.2346,0.2423,0.0,0.297,0.0,0.3614,0.3878,0.4637,0.4949,0.4971,0.5352,0.5937,0.6631,0.7246,0.7433,0.7423,0.7177,0.7091,0.7075,0.7005,0.685,0.6679,0.6738,0.6633,0.6379,0.5945,0.5708,0.5499,0.5151,0.4754,0.4393,0.4133,0.3743,0.3344,0.3129,0.0,0.0,0.0,0.0,0.0,0.0,0.2472,0.24,0.24,0.2295,0.2234,0.232,0.2384,0.2455,0.2572,0.2582,0.2644,0.2764,0.2778,0.2842,0.2991,0.325,0.3139,0.2566,0.2233,0.1419,0.0,0.0,0.0,0.0,0.0,0.0,0.0,0.0,0.0,0.0,0.0,0.0,0.0093,0.138,0.2917,0.4362,0.3082,0.1568,0.0,0.0,0.0,0.0,0.392,0.0,0.0,0.6463,0.4861,0.3956,0.5887,0.5574,0.5243,0.5622,0.5339,0.4952,0.4567,0.4655,0.4949,0.5492,0.5262,0.5019,0.4861,0.4409,0.3994,0.3583,0.3272,0.3193,0.3413,0.2953,0.2748,0.285,0.2334,0.0,0.0,0.0,0.2441,0.2855,0.3023,0.3341,0.3751,0.0,0.4248,0.4385,0.5232,0.5671,0.5876,0.6073,0.6543,0.7158,0.7549,0.7783,0.782,0.754,0.7498,0.7607,0.786,0.7756,0.7626,0.7973,0.7819,0.7474,0.7021,0.6678,0.6358,0.5852,0.5427,0.5039,0.4726,0.4356,0.4015,0.379,0.3566,0.0,0.0,0.0,0.0,0.0,0.0,0.255,0.2474,0.224,0.2104,0.2144,0.2184,0.2279,0.2443,0.2415,0.2424,0.2516,0.2551,0.2613,0.2774,0.3004,0.27,0.1696,0.2302,0.1775,0.0,0.0,0.0,0.0,0.0,0.0,0.0,0.0,0.0359,0.0988,0.0988,0.0629,0.0,0.0,0.1301,0.3332,0.4193,0.2674,0.0,0.0,0.0,0.0,0.3933,0.3906,0.0,0.401,0.3614,0.3718,0.4955,0.5127,0.5108,0.5127,0.5108,0.5088,0.5069,0.5069,0.5513,0.6554,0.6938,0.6847,0.6285,0.5982,0.5592,0.5068,0.4284,0.3983,0.425,0.3743,0.3472,0.3466,0.2997,0.0,0.0,0.0,0.0,0.0,0.3744,0.4014,0.4309,0.4771,0.5102,0.5384,0.5808,0.6423,0.7061,0.7061,0.708,0.7158,0.7549,0.7947,0.829,0.8269,0.8484,0.8761,0.8767,0.875,0.8805,0.9153,0.9004,0.8799,0.9118,0.8442,0.746,0.6731,0.5978,0.5208,0.4486,0.4947,0.5217,0.4124,0.4545,0.4774,0.3682,0.3755,0.0,0.0,0.0,0.0,0.0,0.1813,0.1852,0.1998,0.2124,0.2242,0.2391,0.2221,0.2115,0.2128,0.2116,0.2241,0.2513,0.264,0.2294,0.1345,0.0536,0.0081,0.0,0.0,0.0,0.0,0.0,0.0,0.0,0.0,0.1258,0.3478,0.3478,0.2154,0.0,0.0,0.0049,0.0457,0.3334,0.2678,0.0,0.0,0.0,0.0,0.0,0.0,0.0,0.0,0.405,0.4627,0.5039,0.5108,0.5328,0.5998,0.6099,0.6099,0.6099,0.7403,0.8418,0.8779,0.8263,0.7942,0.795,0.6835,0.6149,0.6089,0.5365,0.4983,0.5015,0.4547,0.4209,0.4031,0.3509,0.3174,0.0,0.0,0.0,0.0,0.0,0.4425,0.0,0.0,0.0,0.6004,0.675,0.7243,0.7491,0.7491,0.7651,0.7914,0.8039,0.8336,0.8634,0.8634,0.8717,0.8887,0.931,0.931,0.923,0.9792,0.9728,0.9583,1.0137,0.9797,0.9159,0.8713,0.7773,0.6745,0.582,0.5749,0.5668,0.5028,0.5235,0.5312,0.4614,0.0,0.0,0.0,0.0,0.0,0.0,0.1803,0.1823,0.1852,0.1994,0.2089,0.2141,0.2117,0.2153,0.2283,0.2164,0.2193,0.2422,0.2596,0.2365,0.1661,0.1335,0.1202,0.1176,0.1182,0.1207,0.1207,0.1207,0.1207,0.1163,0.0358,0.0448,0.1299,0.2889,0.3119,0.2402,0.281,0.1801,0.0102,0.1131,0.0887,0.0,0.0,0.0,0.0,0.5326,0.601,0.6039,0.4255,0.4572,0.5108,0.5108,0.5404,0.587,0.6512,0.769,0.846,0.846,0.9733,1.0592,1.0592,0.9957,0.9318,0.8849,0.7988,0.7327,0.6911,0.6456,0.6185,0.6117,0.5542,0.5095,0.4843,0.4268,0.3817,0.0,0.0,0.0,0.0,0.0,0.4736,0.5301,0.6181,0.6553,0.6672,0.7629,0.8062,0.808,0.808,0.8166,0.8319,0.8551,0.8789,0.9008,0.9008,0.9158,0.9439,0.9881,0.9957,0.997,1.0503,1.0612,1.0611,1.1018,1.0994,1.0728,1.0042,0.9307,0.843,0.712,0.6985,0.6927,0.6365,0.6212,0.6209,0.6232,0.5307,0.0,0.0,0.0,0.0,0.0,0.1803,0.1803,0.1803,0.1869,0.0,0.0,0.1961,0.1876,0.1576,0.1702,0.1974,0.2377,0.253,0.2444,0.2113,0.2196,0.2312,0.2424,0.2435,0.246,0.246,0.246,0.246,0.2415,0.1655,0.1298,0.1341,0.2474,0.3206,0.3591,0.3781,0.2951,0.1525,0.102,0.0774,0.0839,0.1401,0.0896,0.0,0.7899,0.7203,0.6278,0.5281,0.5108,0.5108,0.5166,0.5979,0.6688,0.6915,0.9821,1.1876,1.1876,1.1833,1.1805,1.1805,1.1805,1.0987,0.9039,0.9395,0.905,0.7577,0.7567,0.7553,0.7471,0.6669,0.613,0.585,0.5236,0.0,0.0,0.0,0.0,0.0,0.4606,0.0,0.5621,0.6628,0.7185,0.7495,0.8462,0.8833,0.8833,0.8871,0.8679,0.8467,0.9008,0.9316,0.9434,0.9449,0.988,1.0396,1.0445,1.0653,1.0968,1.1247,1.1631,1.1899,1.1811,1.2048,1.2025,1.0821,1.0534,1.0079,0.832,0.857,0.8918,0.8074,0.7528,0.7481,0.832,0.6474,0.4821,0.0,0.0,0.0,0.0,0.0,0.1806,0.1791,0.1809,0.0,0.0,0.1737,0.1237,0.0178,0.0821,0.1591,0.2346,0.2414,0.2505,0.2693,0.2954,0.3236,0.3559,0.3581,0.3598,0.3598,0.3598,0.3598,0.3598,0.3609,0.3561,0.3462,0.2324,0.2504,0.3564,0.2995,0.3465,0.4332,0.2885,0.2331,0.2512,0.3937,0.2577,0.0,0.7899,0.7203,0.6278,0.5281,0.5108,0.5347,0.6099,0.643,0.7827,1.1201,1.2434,1.298,1.298,1.2276,1.1805,1.1805,1.1805,1.138,1.043,0.9868,0.9468,0.9271,0.8947,0.8623,0.8296,0.7564,0.6925,0.6399,0.5693,0.0,0.4894,0.0,0.0,0.0,0.0,0.5486,0.6379,0.7297,0.8134,0.8912,0.9371,0.9403,0.9257,0.9893,0.9983,0.9753,0.9463,0.9528,0.9816,1.0059,1.0247,1.047,1.0926,1.1136,1.1295,1.1813,1.2046,1.226,1.2871,1.2893,1.269,1.2411,1.1673,1.0797,0.9932,0.9949,0.9982,0.9396,0.9188,0.8875,0.8201,0.6731,0.5237,0.0,0.0,0.0,0.0,0.0,0.1802,0.1802,0.1793,0.0,0.1798,0.0802,0.05,0.1282,0.0986,0.1256,0.2353,0.2436,0.2558,0.2679,0.2974,0.313,0.3211,0.3475,0.3585,0.3585,0.3585,0.3585,0.3585,0.3588,0.3268,0.2677,0.2053,0.2504,0.3615,0.3774,0.4062,0.4448,0.4053,0.3883,0.3971,0.4379,0.2573,0.0,0.7899,0.7203,0.643,0.5852,0.6077,0.6516,0.7077,0.7171,0.8657,1.2841,1.3396,1.3396,1.3396,1.2455,1.1805,1.1805,1.1805,1.1659,1.1324,1.0627,1.0175,1.0003,0.9933,0.9744,0.9389,0.8342,0.7605,0.7166,0.6174,0.548,0.5107,0.0,0.0,0.0,0.0,0.5709,0.6507,0.7738,0.8738,0.9529,1.0069,1.0171,0.0,1.0532,1.0667,1.0519,1.0185,1.0198,1.0373,1.0556,1.0702,1.0897,1.1556,1.1829,1.2045,1.2503,1.2825,1.3102,1.341,1.3676,1.3775,1.348,1.3147,1.2629,1.155,1.1486,1.1517,1.107,1.0493,1.0008,0.9677,0.7795,0.5663,0.0,0.0,0.0,0.0,0.1869,0.1795,0.1794,0.157,0.1502,0.1775,0.0581,-0.0211,-0.0179,0.025,0.0986,0.2094,0.2434,0.2592,0.2609,0.2934,0.3082,0.3082,0.3425,0.3581,0.3581,0.3581,0.3581,0.3581,0.3581,0.335,0.2898,0.2677,0.2951,0.3612,0.3959,0.4189,0.4278,0.4469,0.4473,0.4473,0.448,0.3408,0.1785,0.7753,0.7219,0.6881,0.7213,0.7699,0.8203,0.8682,0.8691,0.9621,1.2452,1.2803,1.2956,1.3362,1.2572,1.2024,1.2024,1.1876,1.1805,1.1805,1.1474,1.0964,1.0267,1.0692,1.0786,1.0446,0.9095,0.8235,0.7946,0.6596,0.5675,0.5145,0.0,0.0,0.0,0.0,0.0,0.0,0.8149,0.918,0.9827,1.0629,1.0968,1.0968,1.0991,1.1015,1.1052,1.1169,1.1071,1.091,1.1027,1.123,1.1563,1.227,1.2706,1.2984,1.3228,1.3655,1.397,1.3716,1.4284,1.4783,1.4149,1.4501,1.4628,1.3106,1.3037,1.3178,1.2831,1.1745,1.1023,1.1601,0.901,0.6137,0.4031,0.326,0.2808,0.2489,0.211,0.0,0.0,0.1258,0.0,0.1734,0.0702,-0.0723,-0.2449,-0.0869,0.063,0.169,0.2299,0.2607,0.2513,0.2896,0.3082,0.3082,0.3425,0.3581,0.3581,0.3581,0.3581,0.3581,0.3581,0.3581,0.3581,0.3581,0.3581,0.3602,0.3897,0.4043,0.4104,0.4362,0.4519,0.4519,0.4519,0.4525,0.4138,0.696,0.7282,0.8353,1.0514,0.9687,0.9783,1.2879,1.2835,1.1785,0.9929,0.9687,1.0636,1.3125,1.3226,1.3122,1.3122,1.2316,1.1805,1.1805,1.1725,1.149,1.1033,1.1417,1.1329,1.0733,0.9758,0.8905,0.8134,0.6799,0.5902,0.5422,0.0,0.0,0.0,0.0,0.0,0.8313,0.8988,0.9814,1.0698,1.1084,1.1242,1.1265,1.1549,1.1637,1.1755,1.2575,1.2043,1.1027,1.1793,1.2086,1.2284,1.3257,1.358,1.3674,1.3892,1.3784,1.37,1.4211,1.4228,1.4149,1.4342,1.4501,1.4537,1.4223,1.4196,1.4228,1.4165,1.3357,1.236,1.1399,0.8846,0.6395,0.4977,0.4336,0.3961,0.379,0.2929,0.2181,0.0,0.1274,0.1135,0.1735,0.0714,-0.0552,-0.1856,-0.1352,-0.0309,0.1309,0.1908,0.2361,0.2664,0.2954,0.3082,0.3082,0.3425,0.3581,0.3581,0.3581,0.3581,0.3581,0.3581,0.3581,0.3581,0.3581,0.3581,0.3602,0.3897,0.4161,0.4443,0.4498,0.4519,0.4519,0.4519,0.4519,0.4411,0.911,0.8832,0.8829,1.0081,0.9764,1.048,1.397,1.4193,1.344,1.1984,1.1799,1.2204,1.3276,1.3396,1.3396,1.3396,1.2926,1.2396,1.1848,1.1805,1.1703,1.1519,1.1696,1.1655,1.1341,1.047,0.9581,0.8711,0.7375,0.6301,0.0,0.0,0.0,0.5545,0.0,0.7627,0.0,0.9832,1.0574,1.0965,1.1695,1.1978,1.1999,1.2138,1.2453,1.2853,1.3331,1.3268,1.297,1.3241,1.3207,1.3207,1.4057,1.4318,1.4359,1.4573,1.4482,1.4403,1.4729,1.4658,1.4564,1.4752,1.4982,1.5104,1.4876,1.5013,1.5104,1.4845,1.4269,1.3185,1.116,0.9275,0.7634,0.6385,0.5326,0.4651,0.4679,0.37,0.2707,0.2047,0.0,0.0,0.0902,0.0331,-0.0233,-0.0832,-0.1302,-0.0733,0.1185,0.2004,0.2575,0.2905,0.3032,0.3236,0.3471,0.3553,0.3581,0.3581,0.3581,0.3581,0.3581,0.3581,0.3581,0.3581,0.3581,0.3622,0.3714,0.4016,0.4267,0.4519,0.4519,0.4519,0.4519,0.4519,0.4519,0.4519,1.1697,1.1023,0.9889,0.9261,1.0033,1.1563,1.4102,1.4488,1.4488,1.4488,1.4488,1.4288,1.37,1.3638,1.3576,1.3413,1.3396,1.3034,1.2195,1.1918,1.1854,1.1961,1.1854,1.1826,1.1876,1.1023,1.0213,0.9478,0.8037,0.6811,0.5767,0.0,0.0,0.0,0.7714,0.8599,0.8964,1.0643,1.1312,1.1343,1.2237,1.2691,1.2835,1.2835,1.3288,1.395,1.4175,1.4578,1.5002,1.4955,1.4581,1.4252,1.4917,1.5074,1.5041,1.5213,1.5165,1.5134,1.5225,1.5165,1.5134,1.5225,1.5551,1.5712,1.5329,1.5551,1.5712,1.5329,1.4769,1.3617,1.1229,1.0074,0.9062,0.7771,0.6466,0.556,0.5381,0.4379,0.3372,0.2511,0.0,0.1496,0.0605,0.0311,0.0134,0.0,-0.0873,-0.0675,0.0998,0.2041,0.2725,0.3019,0.3157,0.3395,0.3663,0.3718,0.3711,0.3581,0.3581,0.3581,0.3581,0.3581,0.3581,0.3581,0.3581,0.368,0.3863,0.4083,0.4331,0.4519,0.4519,0.4519,0.4519,0.4519,0.4519,0.4519,1.3002,1.3627,1.3137,1.0451,1.2244,1.4139,1.4451,1.4488,1.4488,1.4488,1.4488,1.4464,1.4399,1.4405,1.4127,1.3463,1.3396,1.3363,1.326,1.2336,1.2024,1.2514,1.205,1.1897,1.2164,1.1248,1.0633,1.0378,0.8673,0.7439,0.666,0.6117,0.6505,0.7704,0.8499,0.9646,1.103,1.1403,1.1903,1.2457,1.2559,1.2995,1.3592,1.3592,1.4047,1.4826,1.572,1.5909,1.5846,1.6709,1.62,1.5284,1.5964,1.5933,1.5724,1.5726,1.5418,1.5195,1.561,1.5418,1.5195,1.5639,1.577,1.5799,1.5741,1.577,1.5799,1.5741,1.4741,1.3409,1.1962,1.1195,1.0291,0.8666,0.8027,0.7279,0.6014,0.4963,0.4067,0.3441,0.2613,0.2111,0.2164,0.1361,0.0578,0.0044,-0.0112,-0.0,0.0382,0.1575,0.2404,0.2714,0.3379,0.3565,0.3159,0.3917,0.4092,0.3581,0.3581,0.3581,0.3581,0.3581,0.3581,0.3581,0.3581,0.3737,0.4012,0.4127,0.4331,0.4519,0.4519,0.4519,0.4519,0.4519,0.4519,0.4519,1.4346,1.471,1.4555,1.3361,1.4136,1.4925,1.4925,1.4925,1.4925,1.4925,1.4668,1.4488,1.4488,1.4488,1.4375,1.4087,1.3653,1.3396,1.3396,1.2998,1.2871,1.3069,1.2684,1.2388,1.219,1.1826,1.1268,1.05,0.9685,0.8765,0.7766,0.7714,0.8273,0.9322,1.0411,1.123,1.1909,1.3156,1.3684,1.3735,1.4372,1.4817,1.5069,1.4891,1.5505,1.6446,1.6689,1.7082,1.7534,1.7752,1.7106,1.6244,1.6528,1.6501,1.6394,1.6394,1.627,1.6145,1.634,1.627,1.6117,1.6108,1.608,1.6067,1.5856,1.5799,1.5799,1.5799,1.4954,1.3899,1.2776,1.1988,1.1068,0.9841,0.8876,0.7904,0.6783,0.569,0.4706,0.3897,0.3291,0.2703,0.2094,0.1898,0.1607,0.1112,0.0401,0.0187,0.0625,0.1839,0.2757,0.3344,0.3734,0.4071,0.4418,0.4749,0.4826,0.4618,0.4618,0.4443,0.4092,0.4092,0.3928,0.3714,0.3802,0.3965,0.4117,0.4317,0.4409,0.4519,0.4519,0.4519,0.4519,0.4519,0.4519,0.4519,1.6716,1.6786,1.6786,1.6786,1.6748,1.6689,1.6689,1.6689,1.6689,1.6689,1.6402,1.5814,1.482,1.4581,1.4488,1.4488,1.4019,1.3622,1.3413,1.3591,1.3622,1.3413,1.3139,1.2799,1.2431,1.2352,1.1922,1.1132,1.0722,1.0077,0.9231,0.9559,1.0241,1.1231,1.2464,1.3179,1.3526,1.4892,1.5289,1.5037,1.5819,1.6238,1.6413,1.6229,1.6848,1.7808,1.7606,1.7995,1.8566,1.8391,1.7876,1.7287,1.7027,1.6892,1.6789,1.6789,1.6789,1.6789,1.6789,1.6789,1.6738,1.6501,1.6448,1.6355,1.6011,1.5955,1.587,1.5639,1.5104,1.4355,1.3271,1.2448,1.1545,1.0354,0.9298,0.8265,0.7227,0.6137,0.5095,0.4131,0.3578,0.2941,0.2144,0.2323,0.2362,0.2088,0.1176,0.0829,0.1321,0.2117,0.2882,0.3619,0.3988,0.4463,0.5103,0.5421,0.548,0.5303,0.5303,0.5,0.4387,0.422,0.4051,0.3799,0.3955,0.4056,0.4207,0.4402,0.4519,0.4519,0.4519,0.4519,0.4519,0.4519,0.4519,0.4519,2.0527,2.0527,2.0527,2.0527,2.037,2.0235,2.0235,2.0235,2.0235,2.0235,2.0227,1.8939,1.5549,1.4785,1.4488,1.4488,1.4488,1.4167,1.3446,1.4087,1.4154,1.343,1.3261,1.3126,1.2979,1.2741,1.2591,1.2575,1.1711,1.1248,1.1161,1.1514,1.2309,1.3511,1.4518,1.5471,1.6349,1.6383,1.6367,1.6385,1.6385,1.6813,1.7471,1.7471,1.7932,1.8604,1.8567,1.8585,1.8585,1.8585,1.8585,1.8432,1.7585,1.7076,1.6789,1.6789,1.6789,1.6789,1.6789,1.6789,1.6789,1.6789,1.6789,1.6712,1.6367,1.6301,1.6065,1.527,1.5104,1.4647,1.3262,1.2615,1.1709,0.9897,0.9196,0.8448,0.7168,0.6185,0.5213,0.4205,0.3266,0.2702,0.2697,0.2688,0.2686,0.2686,0.2303,0.2153,0.2377,0.2266,0.2531,0.3273,0.4157,0.4598,0.4593,0.5668,0.5873,0.5303,0.5303,0.5,0.4391,0.3836,0.3656,0.3799,0.3955,0.4056,0.4207,0.4402,0.4519,0.4519,0.4519,0.4519,0.4519,0.4519,0.4519,0.4519,2.0605,2.0605,2.0605,2.0605,2.0557,2.0494,2.0494,2.0388,2.0312,2.0312,2.0312,1.9888,1.8811,1.6186,1.4488,1.4488,1.4488,1.4405,1.4167,1.4362,1.4879,1.5746,1.434,1.3937,1.4748,1.4147,1.4017,1.4364,1.4097,1.4184,1.4616,1.4714,1.514,1.5832,1.6159,1.645,1.6773,1.7333,1.7457,1.7351,1.7926,1.8368,1.8645,1.8462,1.8836,1.9374,1.9123,1.9125,1.924,1.8966,1.8878,1.8789,1.8336,1.8115,1.8031,1.8031,1.8031,1.8031,1.8031,1.7881,1.7698,1.7459,1.7287,1.7002,1.6421,1.6108,1.5898,1.5639,1.5329,1.4972,1.4516,1.37,1.2714,1.1495,1.0656,0.9579,0.7983,0.6908,0.5951,0.51,0.4309,0.3793,0.3612,0.3586,0.3349,0.2748,0.234,0.2195,0.2377,0.2838,0.3333,0.3904,0.4765,0.5472,0.5968,0.6499,0.6641,0.6465,0.6465,0.6167,0.561,0.5005,0.4974,0.5298,0.4829,0.477,0.5035,0.4659,0.4519,0.4519,0.4519,0.4519,0.4519,0.4519,0.4519,0.4519,2.0605,2.0605,2.0605,2.0605,2.0605,2.0605,2.0605,2.0486,2.0383,2.0308,2.0312,2.0312,2.0312,1.8127,1.6684,1.6684,1.6453,1.6298,1.6298,1.6298,1.6757,1.7766,1.6132,1.5436,1.5888,1.5401,1.5331,1.5651,1.5783,1.6071,1.6552,1.6927,1.7264,1.7547,1.7845,1.7999,1.8018,1.8538,1.8624,1.8544,1.9081,1.9339,1.9402,1.9251,1.9439,1.9767,1.9516,1.974,2.0124,1.9882,1.9792,1.9813,1.9959,1.9782,1.9426,1.8787,1.8585,1.8585,1.8585,1.8469,1.829,1.7967,1.7749,1.7469,1.6809,1.6421,1.6136,1.6011,1.5754,1.5404,1.4877,1.4041,1.3066,1.2017,1.1025,0.9885,0.8552,0.7345,0.6313,0.5564,0.4753,0.4184,0.4025,0.4083,0.3908,0.3298,0.3023,0.2934,0.2997,0.3382,0.3905,0.4532,0.5486,0.6201,0.6587,0.7086,0.7238,0.6979,0.681,0.652,0.6179,0.5567,0.555,0.598,0.5492,0.5566,0.5869,0.5441,0.5117,0.4897,0.4897,0.4732,0.4519,0.4519,0.4519,0.4519,2.0605,2.0605,2.0605,2.0605,2.0605,2.0605,2.0605,2.0605,2.0531,2.036,2.0311,2.0323,2.0292,2.0312,2.0312,2.0312,1.9731,1.935,1.9305,1.935,1.9365,1.9335,1.8382,1.745,1.6626,1.6554,1.6554,1.6608,1.6941,1.7176,1.731,1.8251,1.868,1.8728,1.9462,1.979,1.979,1.979,1.979,1.9809,1.9866,1.9896,1.9908,1.9964,2.0002,2.0013,2.0002,2.0524,2.1197,2.1185,2.1185,2.1317,2.2054,2.179,2.0872,1.9307,1.8839,1.8821,1.8749,1.873,1.8637,1.8328,1.8229,1.8044,1.7469,1.7076,1.6722,1.6394,1.6313,1.5964,1.4668,1.3843,1.2965,1.1762,1.0625,0.9638,0.8996,0.764,0.6484,0.5832,0.4809,0.4181,0.4181,0.4385,0.4447,0.4305,0.4252,0.4206,0.4089,0.4029,0.4342,0.5166,0.6266,0.6809,0.6732,0.7551,0.7663,0.7063,0.652,0.6276,0.6251,0.5723,0.5707,0.6147,0.6098,0.6294,0.6696,0.6642,0.6145,0.5487,0.5487,0.5109,0.4519,0.4519,0.4519,0.4519,2.0605,2.0605,2.0605,2.0605,2.0605,2.0605,2.0605,2.0605,2.0585,2.0533,2.0529,2.0467,2.0323,2.0312,2.0312,2.0312,2.0153,1.9855,1.9335,1.9767,1.996,1.9695,1.9438,1.9107,1.8703,1.8079,1.8061,1.8703,1.8971,1.9186,1.9315,1.9449,1.9574,1.9678,1.9752,1.979,1.979,1.979,1.979,1.9866,2.0531,2.0846,2.1029,2.1687,2.1998,2.2068,2.1977,2.2078,2.2209,2.2066,2.2017,2.2054,2.2243,2.2168,2.1909,2.1362,2.1198,2.1021,2.0255,1.9938,1.965,1.8986,1.8455,1.8038,1.767,1.7356,1.702,1.6747,1.6686,1.6507,1.5933,1.4868,1.3873,1.3319,1.1774,1.0494,1.0008,0.8718,0.7659,0.7253,0.6449,0.5902,0.5902,0.5688,0.5458,0.5205,0.4864,0.4775,0.4978,0.5531,0.5914,0.6005,0.6822,0.7545,0.8182,0.8391,0.8234,0.7663,0.7105,0.6927,0.7185,0.7045,0.7266,0.781,0.7253,0.7172,0.7396,0.6858,0.6145,0.5487,0.5487,0.5109,0.4519,0.4519,0.4519,0.4519,2.0605,2.0605,2.0605,2.0605,2.0605,2.0605,2.0605,2.0605,2.0605,2.0605,2.0605,2.056,2.0449,2.0433,2.0433,2.0433,2.0354,2.0144,1.9778,2.0098,2.0216,2.005,2.0021,1.9912,1.9668,1.9188,1.9197,1.9728,1.9898,2.0046,2.0142,2.0065,2.0077,2.0124,2.006,2.0231,2.0584,2.0604,2.0842,2.1263,2.1732,2.198,2.2073,2.2518,2.2748,2.2793,2.2729,2.2959,2.3274,2.3163,2.3122,2.3198,2.3561,2.3427,2.3164,2.3328,2.2787,2.1939,2.1022,2.0622,2.0232,1.9251,1.8661,1.8281,1.8139,1.7868,1.758,1.7271,1.7109,1.6926,1.6581,1.5305,1.4201,1.386,1.2168,1.0653,0.9945,0.8912,0.8072,0.7787,0.7173,0.6865,0.7073,0.6663,0.6331,0.6182,0.5799,0.5718,0.6068,0.6736,0.6991,0.6809,0.7818,0.8461,0.8675,0.8716,0.8439,0.7912,0.7572,0.7363,0.7268,0.7446,0.7722,0.8176,0.7904,0.7959,0.8156,0.7777,0.7176,0.6519,0.6519,0.5869,0.4948,0.4948,0.4787,0.4519,2.0559,2.0584,2.0605,2.0605,2.0564,2.0562,2.0605,2.0605,2.0605,2.0605,2.0605,2.0605,2.0605,2.0605,2.0605,2.0605,2.0441,2.036,2.036,2.036,2.0332,2.0292,2.0312,2.0225,2.006,1.9963,1.9974,2.0152,2.0198,2.0324,2.0504,2.0504,2.0585,2.0711,2.0711,2.1097,2.1741,2.1791,2.2247,2.2926,2.3056,2.3114,2.3127,2.3176,2.3193,2.3185,2.3186,2.3639,2.4283,2.4283,2.4283,2.4389,2.5082,2.4832,2.437,2.4889,2.3953,2.2552,2.1708,2.1229,2.0707,1.9563,1.9075,1.884,1.8696,1.845,1.817,1.7842,1.7568,1.7248,1.6866,1.5478,1.4256,1.3864,1.225,1.065,0.9586,0.8911,0.8387,0.7995,0.7608,0.7534,0.7948,0.7515,0.7237,0.7256,0.6948,0.6884,0.724,0.7819,0.8071,0.7842,0.8898,0.9319,0.8958,0.8878,0.8553,0.8036,0.7953,0.7601,0.7101,0.7395,0.7709,0.8016,0.831,0.8577,0.8804,0.8804,0.8374,0.7723,0.7723,0.6794,0.5487,0.5487,0.5058,0.4519,2.034,2.048,2.0605,2.0605,2.0457,2.039,2.0564,2.0605,2.0605,2.0605,2.0605,2.0605,2.0605,2.0605,2.0605,2.0605,2.0563,2.0559,2.0559,2.0559,2.0474,2.0308,2.0312,2.0311,2.034,2.0316,2.0323,2.0346,2.0355,2.0748,2.1476,2.1476,2.188,2.2581,2.2581,2.2658,2.2775,2.2784,2.2866,2.3061,2.3796,2.4083,2.4156,2.4768,2.4996,2.5,2.4927,2.5005,2.512,2.512,2.512,2.5139,2.5264,2.5207,2.513,2.5225,2.5051,2.4577,2.3442,2.2487,2.1618,2.0741,2.036,1.9969,1.9128,1.8734,1.8469,1.817,1.791,1.7526,1.6917,1.5671,1.4513,1.3905,1.2553,1.1236,1.0273,1.0042,0.9656,0.8839,0.8727,0.8723,0.8824,0.8445,0.8291,0.8499,0.8165,0.8075,0.8414,0.9331,0.9818,0.9762,0.9591,0.9677,1.004,0.9597,0.9119,0.8553,0.8118,0.7716,0.7453,0.7715,0.8023,0.8323,0.8611,0.8764,0.8804,0.8804,0.8374,0.7723,0.7723,0.6794,0.5487,0.5487,0.5058,0.4519,2.0312,2.0371,2.0471,2.0585,2.0525,2.0486,2.0585,2.0605,2.0605,2.0605,2.0605,2.0605,2.0605,2.0605,2.0605,2.0605,2.0605,2.0605,2.0605,2.0605,2.056,2.0464,2.136,2.1839,2.1798,2.1838,2.1854,2.1854,2.1891,2.2106,2.2441,2.2441,2.2647,2.2995,2.2995,2.3268,2.3696,2.3741,2.4004,2.443,2.484,2.4992,2.5028,2.5337,2.544,2.5447,2.5376,2.5346,2.5357,2.5313,2.5303,2.5303,2.5303,2.5303,2.5303,2.5303,2.4907,2.435,2.3676,2.2759,2.1894,2.1448,2.0912,2.0376,1.9911,1.929,1.8734,1.8469,1.8208,1.7822,1.7199,1.612,1.5177,1.4688,1.3284,1.2007,1.1362,1.0939,1.0434,0.9796,0.9726,0.9753,0.9704,0.9485,0.9431,0.9545,0.9611,0.9725,0.9886,1.0636,1.1073,1.1073,1.0591,1.0302,1.0283,1.004,0.9677,0.9119,0.8878,0.8395,0.7724,0.8123,0.8235,0.8163,0.8611,0.8804,0.8804,0.8804,0.8586,0.8321,0.8321,0.7396,0.6091,0.6091,0.5441,0.4519,2.0312,2.0312,2.0366,2.0562,2.0605,2.0605,2.0605,2.1269,2.1797,2.1797,2.1797,2.1797,2.1797,2.1797,2.1756,2.1696,2.1694,2.1694,2.1694,2.1694,2.1374,2.0625,2.2637,2.3592,2.322,2.313,2.3095,2.3095,2.3144,2.3241,2.3407,2.3407,2.3478,2.3631,2.3631,2.4001,2.4622,2.469,2.5066,2.5611,2.5611,2.5611,2.5627,2.5551,2.5511,2.5503,2.5453,2.5408,2.5391,2.5339,2.5313,2.5303,2.5303,2.5303,2.5303,2.5303,2.4711,2.406,2.3891,2.3267,2.2576,2.2216,2.1469,2.0758,2.0539,1.9664,1.8861,1.8642,1.833,1.7932,1.7296,1.6427,1.5655,1.5253,1.3889,1.2689,1.2159,1.1665,1.1141,1.0621,1.0655,1.0714,1.0657,1.058,1.0598,1.0692,1.0956,1.1143,1.1233,1.1704,1.192,1.1811,1.1282,1.0753,1.0283,1.0283,1.004,0.9518,0.9518,0.9041,0.825,0.8708,0.8699,0.829,0.8776,0.8962,0.8804,0.8804,0.8804,0.8804,0.8804,0.7996,0.6858,0.6858,0.5932,0.4732,2.0312,2.0312,2.0366,2.0562,2.0605,2.0605,2.0605,2.3281,2.5312,2.5312,2.5312,2.5312,2.5312,2.5312,2.523,2.499,2.4946,2.4946,2.4946,2.4946,2.365,2.0722,2.3769,2.4997,2.3854,2.3356,2.3105,2.3105,2.3105,2.3516,2.4297,2.4297,2.4726,2.5508,2.5508,2.5547,2.5605,2.5605,2.5644,2.5683,2.5683,2.5683,2.5683,2.5629,2.5598,2.5573,2.5526,2.544,2.5406,2.5391,2.5337,2.5303,2.5303,2.5303,2.5303,2.5303,2.5124,2.4903,2.4903,2.4726,2.4373,2.3425,2.2434,2.1492,2.0668,1.9524,1.8623,1.8604,1.8187,1.7635,1.6968,1.6272,1.5582,1.4928,1.4056,1.3138,1.2213,1.2262,1.2072,1.1148,1.1438,1.1693,1.17,1.17,1.1861,1.22,1.1923,1.1898,1.2271,1.2401,1.2246,1.1811,1.1282,1.0753,1.0283,1.0283,1.004,0.9518,0.9518,0.9383,0.9222,0.9477,0.951,0.932,0.9613,0.9361,0.8804,0.8804,0.8804,0.8804,0.8804,0.8315,0.7616,0.7616,0.6686,0.5433,2.0312,2.0312,2.0318,2.0404,2.2264,2.3769,2.3769,2.4863,2.5703,2.5703,2.5703,2.5634,2.5477,2.5453,2.542,2.5303,2.5303,2.5303,2.5303,2.5303,2.4839,2.3808,2.4857,2.5323,2.5012,2.4777,2.4663,2.4707,2.4707,2.4883,2.5215,2.5215,2.5371,2.5703,2.5703,2.5703,2.5703,2.5703,2.5703,2.5703,2.5703,2.5703,2.5703,2.5662,2.5661,2.5659,2.5595,2.5551,2.5503,2.5421,2.5376,2.5346,2.5313,2.5303,2.5303,2.5303,2.5253,2.5163,2.5034,2.4804,2.4516,2.4137,2.3285,2.2464,2.2134,2.1134,2.0094,1.9477,1.8845,1.8145,1.7281,1.655,1.603,1.5779,1.5023,1.4377,1.399,1.3616,1.3217,1.2831,1.2447,1.233,1.2518,1.2378,1.2531,1.323,1.2894,1.2849,1.3327,1.3091,1.272,1.2246,1.1737,1.1105,1.0322,1.0283,1.0205,1.0,1.0,0.9929,0.982,1.0118,0.9946,0.94,0.9672,0.9413,0.8804,0.8804,0.8804,0.8804,0.8804,0.8374,0.7723,0.7723,0.7069,0.6091,2.1861,2.1861,2.1861,2.1861,2.3911,2.5567,2.5567,2.5657,2.5662,2.5593,2.5567,2.5493,2.5322,2.5303,2.5303,2.5303,2.5303,2.5303,2.5303,2.5303,2.5376,2.5561,2.5453,2.5479,2.5625,2.5631,2.5659,2.5703,2.5703,2.5703,2.5703,2.5703,2.5703,2.5703,2.5703,2.5703,2.5703,2.5703,2.5703,2.5703,2.5703,2.5703,2.5703,2.5703,2.5703,2.5683,2.5658,2.5629,2.5573,2.5477,2.5427,2.5383,2.5322,2.5303,2.5303,2.5303,2.5303,2.5264,2.5122,2.485,2.4575,2.4528,2.3747,2.2997,2.2997,2.2041,2.0972,2.0296,1.9623,1.8925,1.8129,1.7436,1.6896,1.6694,1.5844,1.5226,1.509,1.4533,1.4071,1.403,1.3483,1.3213,1.3459,1.3255,1.3416,1.4146,1.3842,1.3682,1.3901,1.3581,1.3138,1.2508,1.2174,1.1627,1.0764,1.0557,1.041,1.0283,1.0596,1.0666,1.0563,1.0936,1.0778,1.0122,1.0117,0.971,0.9113,0.891,0.8804,0.8804,0.8804,0.848,0.8049,0.8049,0.7563,0.6858,2.5303,2.5303,2.5303,2.5303,2.5303,2.5303,2.5303,2.5531,2.5601,2.533,2.5303,2.5303,2.5303,2.5303,2.5303,2.5303,2.5303,2.5303,2.5313,2.5303,2.5303,2.5313,2.5496,2.557,2.5493,2.5625,2.5703,2.5703,2.5703,2.5703,2.5703,2.5703,2.5703,2.5703,2.5703,2.5703,2.5703,2.5703,2.5703,2.5703,2.5703,2.5703,2.5703,2.5703,2.5703,2.5703,2.5703,2.566,2.5595,2.5511,2.5459,2.5383,2.5331,2.5303,2.5303,2.5303,2.5303,2.5303,2.5303,2.5056,2.476,2.4543,2.3747,2.3015,2.3015,2.1924,2.0926,2.0909,2.0437,1.9908,1.9561,1.8887,1.8202,1.7506,1.6403,1.5491,1.5165,1.4752,1.4501,1.4501,1.4501,1.4501,1.4501,1.4501,1.4658,1.5074,1.4721,1.4342,1.3934,1.3901,1.3488,1.2544,1.2508,1.2294,1.1822,1.1204,1.0693,1.0332,1.1194,1.1596,1.1616,1.2021,1.2054,1.1765,1.1116,1.0415,0.9762,0.9061,0.8811,0.8811,0.8804,0.8804,0.8804,0.8804,0.8321,0.7723,2.5303,2.5303,2.5303,2.5303,2.5303,2.5303,2.5303,2.5371,2.5391,2.5303,2.5303,2.5303,2.5303,2.5303,2.5303,2.5303,2.5303,2.534,2.5422,2.5395,2.5395,2.543,2.5505,2.5537,2.557,2.5618,2.5659,2.5703,2.5703,2.5703,2.5703,2.5703,2.5703,2.5703,2.5703,2.5703,2.5703,2.5703,2.5703,2.5703,2.5703,2.5703,2.5703,2.5703,2.5703,2.5703,2.5703,2.5683,2.5659,2.5543,2.5498,2.5453,2.5339,2.5303,2.5303,2.5303,2.5303,2.5303,2.5303,2.5056,2.479,2.4731,2.4258,2.3841,2.3841,2.3331,2.264,2.1892,2.1229,2.0577,1.995,1.93,1.8838,1.8865,1.8127,1.7377,1.6799,1.6079,1.5561,1.5433,1.4876,1.4752,1.5359,1.4845,1.4783,1.5551,1.5165,1.4752,1.4342,1.431,1.439,1.4593,1.3505,1.3249,1.3988,1.1982,1.0925,1.0802,1.0993,1.126,1.1616,1.2021,1.2054,1.1765,1.1566,1.1116,1.0466,0.9762,0.951,0.9465,0.8956,0.8804,0.8804,0.8804,0.8646,0.8374,2.5303,2.5303,2.5303,2.5303,2.5303,2.5303,2.5303,2.5303,2.5303,2.5303,2.5303,2.5303,2.5303,2.5303,2.5303,2.5303,2.5357,2.5406,2.5498,2.5453,2.5453,2.5504,2.5532,2.5578,2.5646,2.5634,2.566,2.5703,2.5703,2.5703,2.5703,2.5703,2.5703,2.5703,2.5703,2.5703,2.5703,2.5703,2.5703,2.5703,2.5703,2.5703,2.5703,2.5703,2.5703,2.5703,2.5703,2.5703,2.5683,2.5547,2.5451,2.5413,2.534,2.5303,2.5303,2.5303,2.5303,2.5303,2.5303,2.5056,2.4804,2.4804,2.4495,2.417,2.4016,2.3735,2.3289,2.2512,2.1927,2.1451,2.0991,2.0344,1.9882,1.9937,1.9187,1.8416,1.7876,1.718,1.6684,1.6562,1.6087,1.5877,1.6114,1.5663,1.5601,1.6129,1.6141,1.5946,1.5548,1.5515,1.5538,1.5571,1.4638,1.4366,1.4878,1.3108,1.2014,1.1615,1.1879,1.1983,1.1836,1.2285,1.2368,1.2236,1.1922,1.1566,1.1116,1.0167,0.9814,0.971,0.9061,0.8804,0.8804,0.8804,0.8804,0.8752,2.5303,2.5303,2.5303,2.5303,2.5303,2.5303,2.5303,2.5303,2.5303,2.5303,2.5303,2.5303,2.5303,2.5303,2.5303,2.5303,2.5434,2.5522,2.5517,2.5517,2.5503,2.5526,2.559,2.5636,2.5703,2.5703,2.5703,2.5703,2.5703,2.5703,2.5703,2.5703,2.5703,2.5703,2.5703,2.5703,2.5703,2.5703,2.5703,2.5703,2.5703,2.5703,2.5703,2.5703,2.5703,2.5703,2.5683,2.5683,2.5662,2.5543,2.5413,2.5303,2.5303,2.5303,2.5303,2.5303,2.5303,2.5274,2.5274,2.5024,2.4775,2.4775,2.4478,2.4113,2.3816,2.35,2.3141,2.2822,2.2527,2.2321,2.231,2.1752,2.1181,2.0799,1.9854,1.8996,1.8607,1.8143,1.7822,1.7697,1.7697,1.7458,1.6861,1.6801,1.6801,1.6801,1.7354,1.7552,1.7156,1.7156,1.6746,1.5908,1.5795,1.5537,1.5132,1.4523,1.3703,1.2658,1.3376,1.3227,1.2283,1.2724,1.2881,1.2871,1.2187,1.1913,1.1774,1.0415,0.9865,0.9814,0.9061,0.8804,0.8804,0.8804,0.8804,0.8804,2.5303,2.5303,2.5303,2.5303,2.5303,2.5303,2.5303,2.5303,2.5303,2.5303,2.5303,2.5303,2.5303,2.5303,2.5303,2.5303,2.5526,2.5631,2.5574,2.5584,2.5603,2.5659,2.5662,2.5683,2.5703,2.5703,2.5703,2.5703,2.5703,2.5703,2.5703,2.5703,2.5703,2.5703,2.5703,2.5703,2.5703,2.5703,2.5703,2.5703,2.5703,2.5703,2.5703,2.5703,2.5703,2.5683,2.5636,2.5611,2.5603,2.5477,2.5379,2.5303,2.5303,2.5303,2.5303,2.5303,2.5192,2.5077,2.5077,2.4823,2.4578,2.4578,2.4375,2.417,2.4113,2.3837,2.35,2.3165,2.284,2.2563,2.2349,2.2175,2.2029,2.1945,2.1429,2.0717,1.9776,1.928,1.8711,1.7822,1.7697,1.7637,1.7488,1.7473,1.7473,1.7473,1.7608,1.765,1.7584,1.7584,1.7524,1.744,1.6617,1.6359,1.6781,1.5828,1.4813,1.3738,1.3423,1.3125,1.2917,1.2905,1.2881,1.2881,1.2715,1.2666,1.2559,1.1174,1.0568,1.0466,0.9263,0.8804,0.8804,0.8804,0.8804,0.8804,2.5303,2.5303,2.5303,2.5303,2.5303,2.5303,2.5303,2.5303,2.5303,2.5303,2.5303,2.5303,2.5303,2.5303,2.5346,2.5488,2.5629,2.5683,2.5654,2.5655,2.5661,2.5703,2.5703,2.5703,2.5703,2.5703,2.5703,2.5703,2.5703,2.5703,2.5703,2.5703,2.5703,2.5703,2.5703,2.5703,2.5703,2.5703,2.5703,2.5703,2.5703,2.5703,2.5703,2.5703,2.5683,2.5658,2.5607,2.5558,2.5484,2.5421,2.5354,2.5303,2.5303,2.5303,2.5303,2.5303,2.5163,2.501,2.501,2.4766,2.4495,2.4495,2.4339,2.4132,2.3795,2.3588,2.3323,2.2875,2.2616,2.2463,2.2338,2.231,2.2237,2.2003,2.1598,2.1052,2.0257,1.9785,1.9307,1.8736,1.8657,1.8538,1.8223,1.8194,1.8194,1.8194,1.8478,1.8657,1.8657,1.8657,1.8549,1.8389,1.7817,1.7457,1.7299,1.6736,1.603,1.5249,1.4303,1.3721,1.3411,1.3042,1.2881,1.2881,1.2881,1.2715,1.2295,1.1225,1.061,1.0218,0.9211,0.8804,0.8804,0.8804,0.8804,0.8804,2.5303,2.5303,2.5303,2.5303,2.5303,2.5303,2.5303,2.5303,2.5303,2.5303,2.5339,2.5346,2.5293,2.5303,2.5413,2.5682,2.5703,2.5703,2.5703,2.5703,2.5703,2.5703,2.5703,2.5703,2.5703,2.5703,2.5703,2.5703,2.5703,2.5703,2.5703,2.5703,2.5703,2.5703,2.5703,2.5703,2.5703,2.5703,2.5703,2.5703,2.5683,2.5683,2.5683,2.5662,2.5633,2.5573,2.5564,2.5498,2.5383,2.5383,2.5357,2.5303,2.5303,2.5303,2.5303,2.5303,2.5141,2.4962,2.4962,2.4723,2.4444,2.4444,2.4303,2.4036,2.3414,2.3236,2.3063,2.2561,2.2377,2.231,2.231,2.231,2.2152,2.1688,2.1306,2.091,2.0382,2.0,1.9782,1.9726,1.969,1.9465,1.8927,1.8867,1.8867,1.8867,1.9375,1.969,1.969,1.969,1.9442,1.893,1.8893,1.838,1.7312,1.7312,1.7034,1.6479,1.5377,1.4606,1.4097,1.3382,1.3065,1.3065,1.2929,1.2559,1.1922,1.1116,1.0466,0.9917,0.9113,0.8804,0.8804,0.8804,0.8804,0.8804,2.5303,2.5303,2.5303,2.5303,2.5303,2.5303,2.5303,2.5303,2.5303,2.5303,2.5508,2.5554,2.5331,2.5303,2.5413,2.5682,2.5703,2.5703,2.5703,2.5703,2.5703,2.5703,2.5703,2.5703,2.5703,2.5703,2.5703,2.5703,2.5703,2.5703,2.5703,2.5703,2.5703,2.5703,2.5703,2.5703,2.5703,2.5703,2.5703,2.5683,2.5636,2.5607,2.5605,2.5551,2.5511,2.5517,2.5447,2.5387,2.5313,2.5313,2.5303,2.5303,2.5303,2.5303,2.5303,2.5303,2.508,2.4832,2.4832,2.4543,2.4247,2.4247,2.4209,2.4094,2.3714,2.3414,2.3165,2.3111,2.266,2.231,2.231,2.231,2.2152,2.1688,2.1552,2.1228,2.04,2.0246,2.0089,1.9747,1.969,1.9645,1.9555,1.9555,1.9555,1.9555,1.963,1.969,1.969,1.969,1.9442,1.893,1.8893,1.838,1.7312,1.7312,1.7034,1.6479,1.582,1.5454,1.5309,1.4179,1.3684,1.3637,1.3152,1.2822,1.2666,1.1334,1.0771,1.0517,0.9316,0.8804,0.8804,0.8804,0.8804,0.8804,2.5303,2.5303,2.5303,2.5303,2.5303,2.5303,2.5303,2.5303,2.5303,2.5303,2.5535,2.5659,2.5539,2.5526,2.5564,2.5683,2.5703,2.5703,2.5703,2.5703,2.5703,2.5703,2.5703,2.5703,2.5703,2.5703,2.5703,2.5703,2.5703,2.5703,2.5703,2.5703,2.5703,2.5703,2.5703,2.5703,2.5703,2.5703,2.5703,2.5703,2.5662,2.5634,2.5601,2.5564,2.5517,2.5441,2.5371,2.5331,2.5303,2.5303,2.5303,2.5303,2.5303,2.5303,2.5303,2.5303,2.5107,2.4891,2.4814,2.4575,2.4339,2.4228,2.419,2.417,2.4016,2.3566,2.3141,2.2972,2.2581,2.231,2.231,2.231,2.2152,2.1688,2.1582,2.129,2.04,2.0314,2.0158,1.9747,1.969,1.969,1.969,1.969,1.969,1.969,1.969,1.969,1.969,1.969,1.9603,1.9369,1.9369,1.8817,1.7747,1.7747,1.7353,1.6522,1.6238,1.5732,1.505,1.419,1.3637,1.3286,1.3017,1.2666,1.2236,1.1616,1.1166,1.0762,1.0167,0.9666,0.9309,0.8956,0.8804,0.8804]}]]